<?xml version="1.0" encoding="UTF-8" standalone="no" ?>
<gpx xmlns="http://www.topografix.com/GPX/1/1" xmlns:xsi="http://www.w3.org/2001/XMLSchema-instance" xsi:schemaLocation="http://www.topografix.com/GPX/1/1 http://www.topografix.com/GPX/1/1/gpx.xsd" version="1.1" creator="VisuGPX - https://www.visugpx.com">
  <metadata>
    <name>pene cerclade</name>
    <desc><![CDATA[depart du pont de la moulette .très belles vues sur la vallée de campan]]></desc>
  </metadata>
  <trk>
    <name><![CDATA[4 déc. 2018]]></name>
    <cmt><![CDATA[09:25:03]]></cmt>
    <desc><![CDATA[comment ...]]></desc>
    <trkseg>
      <trkpt lat="42.97939" lon="0.24031">
        <ele>901</ele>
        <time>2018-12-04T08:25:08Z</time>
      </trkpt>
      <trkpt lat="42.97939" lon="0.24031">
        <ele>901</ele>
        <time>2018-12-04T08:25:09Z</time>
      </trkpt>
      <trkpt lat="42.97934" lon="0.24022">
        <ele>900</ele>
        <time>2018-12-04T08:25:54Z</time>
      </trkpt>
      <trkpt lat="42.97935" lon="0.24025">
        <ele>894</ele>
        <time>2018-12-04T08:28:58Z</time>
      </trkpt>
      <trkpt lat="42.97936" lon="0.2403">
        <ele>894</ele>
        <time>2018-12-04T08:29:09Z</time>
      </trkpt>
      <trkpt lat="42.97939" lon="0.24027">
        <ele>891</ele>
        <time>2018-12-04T08:30:55Z</time>
      </trkpt>
      <trkpt lat="42.97941" lon="0.24022">
        <ele>892</ele>
        <time>2018-12-04T08:31:00Z</time>
      </trkpt>
      <trkpt lat="42.97943" lon="0.24017">
        <ele>892</ele>
        <time>2018-12-04T08:31:05Z</time>
      </trkpt>
      <trkpt lat="42.97946" lon="0.24012">
        <ele>893</ele>
        <time>2018-12-04T08:31:11Z</time>
      </trkpt>
      <trkpt lat="42.97952" lon="0.24007">
        <ele>893</ele>
        <time>2018-12-04T08:31:19Z</time>
      </trkpt>
      <trkpt lat="42.97955" lon="0.24003">
        <ele>894</ele>
        <time>2018-12-04T08:31:23Z</time>
      </trkpt>
      <trkpt lat="42.97957" lon="0.23998">
        <ele>894</ele>
        <time>2018-12-04T08:31:27Z</time>
      </trkpt>
      <trkpt lat="42.97968" lon="0.23992">
        <ele>894</ele>
        <time>2018-12-04T08:31:35Z</time>
      </trkpt>
      <trkpt lat="42.97971" lon="0.23991">
        <ele>895</ele>
        <time>2018-12-04T08:31:38Z</time>
      </trkpt>
      <trkpt lat="42.97974" lon="0.23988">
        <ele>895</ele>
        <time>2018-12-04T08:31:41Z</time>
      </trkpt>
      <trkpt lat="42.97976" lon="0.23986">
        <ele>895</ele>
        <time>2018-12-04T08:31:44Z</time>
      </trkpt>
      <trkpt lat="42.97979" lon="0.23984">
        <ele>895</ele>
        <time>2018-12-04T08:31:47Z</time>
      </trkpt>
      <trkpt lat="42.97982" lon="0.23981">
        <ele>896</ele>
        <time>2018-12-04T08:31:51Z</time>
      </trkpt>
      <trkpt lat="42.97985" lon="0.23979">
        <ele>896</ele>
        <time>2018-12-04T08:31:55Z</time>
      </trkpt>
      <trkpt lat="42.97988" lon="0.23978">
        <ele>896</ele>
        <time>2018-12-04T08:31:59Z</time>
      </trkpt>
      <trkpt lat="42.97994" lon="0.23972">
        <ele>897</ele>
        <time>2018-12-04T08:32:09Z</time>
      </trkpt>
      <trkpt lat="42.98002" lon="0.23969">
        <ele>898</ele>
        <time>2018-12-04T08:32:16Z</time>
      </trkpt>
      <trkpt lat="42.98005" lon="0.23969">
        <ele>898</ele>
        <time>2018-12-04T08:32:18Z</time>
      </trkpt>
      <trkpt lat="42.9801" lon="0.23966">
        <ele>898</ele>
        <time>2018-12-04T08:32:25Z</time>
      </trkpt>
      <trkpt lat="42.98013" lon="0.23966">
        <ele>899</ele>
        <time>2018-12-04T08:32:28Z</time>
      </trkpt>
      <trkpt lat="42.98015" lon="0.23966">
        <ele>899</ele>
        <time>2018-12-04T08:32:30Z</time>
      </trkpt>
      <trkpt lat="42.98021" lon="0.23967">
        <ele>900</ele>
        <time>2018-12-04T08:32:37Z</time>
      </trkpt>
      <trkpt lat="42.9803" lon="0.23967">
        <ele>901</ele>
        <time>2018-12-04T08:32:48Z</time>
      </trkpt>
      <trkpt lat="42.98032" lon="0.23969">
        <ele>901</ele>
        <time>2018-12-04T08:32:50Z</time>
      </trkpt>
      <trkpt lat="42.98035" lon="0.2397">
        <ele>901</ele>
        <time>2018-12-04T08:32:53Z</time>
      </trkpt>
      <trkpt lat="42.98043" lon="0.23972">
        <ele>902</ele>
        <time>2018-12-04T08:33:03Z</time>
      </trkpt>
      <trkpt lat="42.98046" lon="0.23974">
        <ele>903</ele>
        <time>2018-12-04T08:33:07Z</time>
      </trkpt>
      <trkpt lat="42.98049" lon="0.23972">
        <ele>903</ele>
        <time>2018-12-04T08:33:11Z</time>
      </trkpt>
      <trkpt lat="42.98052" lon="0.2397">
        <ele>903</ele>
        <time>2018-12-04T08:33:16Z</time>
      </trkpt>
      <trkpt lat="42.98055" lon="0.23969">
        <ele>904</ele>
        <time>2018-12-04T08:33:20Z</time>
      </trkpt>
      <trkpt lat="42.98059" lon="0.23969">
        <ele>905</ele>
        <time>2018-12-04T08:33:28Z</time>
      </trkpt>
      <trkpt lat="42.98063" lon="0.2397">
        <ele>905</ele>
        <time>2018-12-04T08:33:38Z</time>
      </trkpt>
      <trkpt lat="42.98064" lon="0.23972">
        <ele>906</ele>
        <time>2018-12-04T08:33:41Z</time>
      </trkpt>
      <trkpt lat="42.98066" lon="0.23973">
        <ele>906</ele>
        <time>2018-12-04T08:33:44Z</time>
      </trkpt>
      <trkpt lat="42.98069" lon="0.23974">
        <ele>907</ele>
        <time>2018-12-04T08:33:49Z</time>
      </trkpt>
      <trkpt lat="42.98072" lon="0.23976">
        <ele>907</ele>
        <time>2018-12-04T08:33:52Z</time>
      </trkpt>
      <trkpt lat="42.98074" lon="0.23976">
        <ele>907</ele>
        <time>2018-12-04T08:33:54Z</time>
      </trkpt>
      <trkpt lat="42.98078" lon="0.23975">
        <ele>908</ele>
        <time>2018-12-04T08:34:00Z</time>
      </trkpt>
      <trkpt lat="42.98081" lon="0.23974">
        <ele>908</ele>
        <time>2018-12-04T08:34:03Z</time>
      </trkpt>
      <trkpt lat="42.98083" lon="0.23976">
        <ele>908</ele>
        <time>2018-12-04T08:34:06Z</time>
      </trkpt>
      <trkpt lat="42.98085" lon="0.23976">
        <ele>909</ele>
        <time>2018-12-04T08:34:10Z</time>
      </trkpt>
      <trkpt lat="42.98087" lon="0.23976">
        <ele>909</ele>
        <time>2018-12-04T08:34:13Z</time>
      </trkpt>
      <trkpt lat="42.98089" lon="0.23977">
        <ele>909</ele>
        <time>2018-12-04T08:34:17Z</time>
      </trkpt>
      <trkpt lat="42.98091" lon="0.23978">
        <ele>910</ele>
        <time>2018-12-04T08:34:19Z</time>
      </trkpt>
      <trkpt lat="42.98095" lon="0.23979">
        <ele>910</ele>
        <time>2018-12-04T08:34:27Z</time>
      </trkpt>
      <trkpt lat="42.98098" lon="0.23979">
        <ele>911</ele>
        <time>2018-12-04T08:34:30Z</time>
      </trkpt>
      <trkpt lat="42.98102" lon="0.23977">
        <ele>911</ele>
        <time>2018-12-04T08:34:36Z</time>
      </trkpt>
      <trkpt lat="42.98103" lon="0.23976">
        <ele>912</ele>
        <time>2018-12-04T08:34:39Z</time>
      </trkpt>
      <trkpt lat="42.98107" lon="0.23976">
        <ele>912</ele>
        <time>2018-12-04T08:34:43Z</time>
      </trkpt>
      <trkpt lat="42.98109" lon="0.23977">
        <ele>912</ele>
        <time>2018-12-04T08:34:46Z</time>
      </trkpt>
      <trkpt lat="42.98111" lon="0.2398">
        <ele>913</ele>
        <time>2018-12-04T08:34:50Z</time>
      </trkpt>
      <trkpt lat="42.98114" lon="0.23981">
        <ele>913</ele>
        <time>2018-12-04T08:34:54Z</time>
      </trkpt>
      <trkpt lat="42.98118" lon="0.23983">
        <ele>914</ele>
        <time>2018-12-04T08:35:02Z</time>
      </trkpt>
      <trkpt lat="42.9812" lon="0.23986">
        <ele>914</ele>
        <time>2018-12-04T08:35:05Z</time>
      </trkpt>
      <trkpt lat="42.98123" lon="0.23988">
        <ele>915</ele>
        <time>2018-12-04T08:35:08Z</time>
      </trkpt>
      <trkpt lat="42.98129" lon="0.23989">
        <ele>916</ele>
        <time>2018-12-04T08:35:22Z</time>
      </trkpt>
      <trkpt lat="42.98133" lon="0.23992">
        <ele>917</ele>
        <time>2018-12-04T08:35:28Z</time>
      </trkpt>
      <trkpt lat="42.98146" lon="0.23997">
        <ele>918</ele>
        <time>2018-12-04T08:35:44Z</time>
      </trkpt>
      <trkpt lat="42.98149" lon="0.24">
        <ele>918</ele>
        <time>2018-12-04T08:35:47Z</time>
      </trkpt>
      <trkpt lat="42.98151" lon="0.24003">
        <ele>919</ele>
        <time>2018-12-04T08:35:50Z</time>
      </trkpt>
      <trkpt lat="42.98161" lon="0.24017">
        <ele>920</ele>
        <time>2018-12-04T08:36:04Z</time>
      </trkpt>
      <trkpt lat="42.98167" lon="0.24019">
        <ele>920</ele>
        <time>2018-12-04T08:36:13Z</time>
      </trkpt>
      <trkpt lat="42.9817" lon="0.24015">
        <ele>921</ele>
        <time>2018-12-04T08:36:20Z</time>
      </trkpt>
      <trkpt lat="42.98174" lon="0.24013">
        <ele>921</ele>
        <time>2018-12-04T08:36:26Z</time>
      </trkpt>
      <trkpt lat="42.98179" lon="0.24019">
        <ele>922</ele>
        <time>2018-12-04T08:36:37Z</time>
      </trkpt>
      <trkpt lat="42.98183" lon="0.24021">
        <ele>923</ele>
        <time>2018-12-04T08:36:40Z</time>
      </trkpt>
      <trkpt lat="42.98187" lon="0.24017">
        <ele>923</ele>
        <time>2018-12-04T08:36:45Z</time>
      </trkpt>
      <trkpt lat="42.98194" lon="0.24021">
        <ele>924</ele>
        <time>2018-12-04T08:36:57Z</time>
      </trkpt>
      <trkpt lat="42.98208" lon="0.24019">
        <ele>925</ele>
        <time>2018-12-04T08:37:14Z</time>
      </trkpt>
      <trkpt lat="42.98215" lon="0.24018">
        <ele>926</ele>
        <time>2018-12-04T08:37:22Z</time>
      </trkpt>
      <trkpt lat="42.98229" lon="0.24021">
        <ele>927</ele>
        <time>2018-12-04T08:37:36Z</time>
      </trkpt>
      <trkpt lat="42.98232" lon="0.24023">
        <ele>927</ele>
        <time>2018-12-04T08:37:40Z</time>
      </trkpt>
      <trkpt lat="42.98234" lon="0.24024">
        <ele>928</ele>
        <time>2018-12-04T08:37:42Z</time>
      </trkpt>
      <trkpt lat="42.98239" lon="0.24025">
        <ele>928</ele>
        <time>2018-12-04T08:37:46Z</time>
      </trkpt>
      <trkpt lat="42.98243" lon="0.24024">
        <ele>928</ele>
        <time>2018-12-04T08:37:50Z</time>
      </trkpt>
      <trkpt lat="42.98246" lon="0.24024">
        <ele>928</ele>
        <time>2018-12-04T08:37:53Z</time>
      </trkpt>
      <trkpt lat="42.98248" lon="0.24023">
        <ele>928</ele>
        <time>2018-12-04T08:37:55Z</time>
      </trkpt>
      <trkpt lat="42.9825" lon="0.24022">
        <ele>928</ele>
        <time>2018-12-04T08:37:57Z</time>
      </trkpt>
      <trkpt lat="42.98253" lon="0.24022">
        <ele>929</ele>
        <time>2018-12-04T08:38:00Z</time>
      </trkpt>
      <trkpt lat="42.98259" lon="0.24027">
        <ele>929</ele>
        <time>2018-12-04T08:38:05Z</time>
      </trkpt>
      <trkpt lat="42.98264" lon="0.24031">
        <ele>929</ele>
        <time>2018-12-04T08:38:10Z</time>
      </trkpt>
      <trkpt lat="42.98271" lon="0.24037">
        <ele>930</ele>
        <time>2018-12-04T08:38:19Z</time>
      </trkpt>
      <trkpt lat="42.98278" lon="0.24038">
        <ele>930</ele>
        <time>2018-12-04T08:38:26Z</time>
      </trkpt>
      <trkpt lat="42.9829" lon="0.24034">
        <ele>931</ele>
        <time>2018-12-04T08:38:38Z</time>
      </trkpt>
      <trkpt lat="42.98288" lon="0.24038">
        <ele>932</ele>
        <time>2018-12-04T08:38:45Z</time>
      </trkpt>
      <trkpt lat="42.98285" lon="0.24056">
        <ele>932</ele>
        <time>2018-12-04T08:38:54Z</time>
      </trkpt>
      <trkpt lat="42.98289" lon="0.24055">
        <ele>933</ele>
        <time>2018-12-04T08:39:00Z</time>
      </trkpt>
      <trkpt lat="42.9829" lon="0.2405">
        <ele>933</ele>
        <time>2018-12-04T08:39:09Z</time>
      </trkpt>
      <trkpt lat="42.98291" lon="0.24044">
        <ele>934</ele>
        <time>2018-12-04T08:39:15Z</time>
      </trkpt>
      <trkpt lat="42.98294" lon="0.2404">
        <ele>935</ele>
        <time>2018-12-04T08:39:22Z</time>
      </trkpt>
      <trkpt lat="42.98299" lon="0.24033">
        <ele>936</ele>
        <time>2018-12-04T08:39:28Z</time>
      </trkpt>
      <trkpt lat="42.98304" lon="0.24031">
        <ele>936</ele>
        <time>2018-12-04T08:39:32Z</time>
      </trkpt>
      <trkpt lat="42.98306" lon="0.24028">
        <ele>936</ele>
        <time>2018-12-04T08:39:34Z</time>
      </trkpt>
      <trkpt lat="42.9831" lon="0.24022">
        <ele>937</ele>
        <time>2018-12-04T08:39:42Z</time>
      </trkpt>
      <trkpt lat="42.98312" lon="0.24019">
        <ele>937</ele>
        <time>2018-12-04T08:39:46Z</time>
      </trkpt>
      <trkpt lat="42.98314" lon="0.24015">
        <ele>938</ele>
        <time>2018-12-04T08:39:50Z</time>
      </trkpt>
      <trkpt lat="42.98317" lon="0.24013">
        <ele>938</ele>
        <time>2018-12-04T08:39:54Z</time>
      </trkpt>
      <trkpt lat="42.98321" lon="0.24007">
        <ele>939</ele>
        <time>2018-12-04T08:40:01Z</time>
      </trkpt>
      <trkpt lat="42.98323" lon="0.24003">
        <ele>939</ele>
        <time>2018-12-04T08:40:04Z</time>
      </trkpt>
      <trkpt lat="42.98327" lon="0.23996">
        <ele>940</ele>
        <time>2018-12-04T08:40:11Z</time>
      </trkpt>
      <trkpt lat="42.98329" lon="0.23993">
        <ele>940</ele>
        <time>2018-12-04T08:40:13Z</time>
      </trkpt>
      <trkpt lat="42.98331" lon="0.23989">
        <ele>940</ele>
        <time>2018-12-04T08:40:17Z</time>
      </trkpt>
      <trkpt lat="42.98334" lon="0.23988">
        <ele>941</ele>
        <time>2018-12-04T08:40:20Z</time>
      </trkpt>
      <trkpt lat="42.98337" lon="0.23985">
        <ele>941</ele>
        <time>2018-12-04T08:40:24Z</time>
      </trkpt>
      <trkpt lat="42.98339" lon="0.23982">
        <ele>941</ele>
        <time>2018-12-04T08:40:27Z</time>
      </trkpt>
      <trkpt lat="42.98341" lon="0.23979">
        <ele>942</ele>
        <time>2018-12-04T08:40:31Z</time>
      </trkpt>
      <trkpt lat="42.98345" lon="0.23975">
        <ele>942</ele>
        <time>2018-12-04T08:40:36Z</time>
      </trkpt>
      <trkpt lat="42.98348" lon="0.23973">
        <ele>942</ele>
        <time>2018-12-04T08:40:39Z</time>
      </trkpt>
      <trkpt lat="42.98351" lon="0.23972">
        <ele>942</ele>
        <time>2018-12-04T08:40:41Z</time>
      </trkpt>
      <trkpt lat="42.98355" lon="0.23968">
        <ele>943</ele>
        <time>2018-12-04T08:40:49Z</time>
      </trkpt>
      <trkpt lat="42.98359" lon="0.23962">
        <ele>943</ele>
        <time>2018-12-04T08:40:54Z</time>
      </trkpt>
      <trkpt lat="42.98362" lon="0.2396">
        <ele>943</ele>
        <time>2018-12-04T08:40:58Z</time>
      </trkpt>
      <trkpt lat="42.98366" lon="0.23957">
        <ele>943</ele>
        <time>2018-12-04T08:41:01Z</time>
      </trkpt>
      <trkpt lat="42.98369" lon="0.23955">
        <ele>944</ele>
        <time>2018-12-04T08:41:03Z</time>
      </trkpt>
      <trkpt lat="42.98372" lon="0.23953">
        <ele>944</ele>
        <time>2018-12-04T08:41:05Z</time>
      </trkpt>
      <trkpt lat="42.98374" lon="0.23952">
        <ele>944</ele>
        <time>2018-12-04T08:41:07Z</time>
      </trkpt>
      <trkpt lat="42.98379" lon="0.23949">
        <ele>944</ele>
        <time>2018-12-04T08:41:11Z</time>
      </trkpt>
      <trkpt lat="42.98381" lon="0.23947">
        <ele>944</ele>
        <time>2018-12-04T08:41:13Z</time>
      </trkpt>
      <trkpt lat="42.98383" lon="0.23946">
        <ele>944</ele>
        <time>2018-12-04T08:41:15Z</time>
      </trkpt>
      <trkpt lat="42.98388" lon="0.23939">
        <ele>944</ele>
        <time>2018-12-04T08:41:23Z</time>
      </trkpt>
      <trkpt lat="42.98391" lon="0.23936">
        <ele>944</ele>
        <time>2018-12-04T08:41:26Z</time>
      </trkpt>
      <trkpt lat="42.98394" lon="0.23935">
        <ele>944</ele>
        <time>2018-12-04T08:41:29Z</time>
      </trkpt>
      <trkpt lat="42.98397" lon="0.23934">
        <ele>944</ele>
        <time>2018-12-04T08:41:32Z</time>
      </trkpt>
      <trkpt lat="42.98402" lon="0.23932">
        <ele>945</ele>
        <time>2018-12-04T08:41:36Z</time>
      </trkpt>
      <trkpt lat="42.98404" lon="0.2393">
        <ele>945</ele>
        <time>2018-12-04T08:41:38Z</time>
      </trkpt>
      <trkpt lat="42.98406" lon="0.23929">
        <ele>945</ele>
        <time>2018-12-04T08:41:40Z</time>
      </trkpt>
      <trkpt lat="42.9841" lon="0.23928">
        <ele>945</ele>
        <time>2018-12-04T08:41:44Z</time>
      </trkpt>
      <trkpt lat="42.98413" lon="0.23928">
        <ele>945</ele>
        <time>2018-12-04T08:41:47Z</time>
      </trkpt>
      <trkpt lat="42.98415" lon="0.23929">
        <ele>945</ele>
        <time>2018-12-04T08:41:50Z</time>
      </trkpt>
      <trkpt lat="42.98417" lon="0.23928">
        <ele>945</ele>
        <time>2018-12-04T08:41:55Z</time>
      </trkpt>
      <trkpt lat="42.98419" lon="0.23926">
        <ele>945</ele>
        <time>2018-12-04T08:41:59Z</time>
      </trkpt>
      <trkpt lat="42.98422" lon="0.23925">
        <ele>945</ele>
        <time>2018-12-04T08:42:02Z</time>
      </trkpt>
      <trkpt lat="42.98425" lon="0.23922">
        <ele>945</ele>
        <time>2018-12-04T08:42:04Z</time>
      </trkpt>
      <trkpt lat="42.98427" lon="0.23921">
        <ele>945</ele>
        <time>2018-12-04T08:42:05Z</time>
      </trkpt>
      <trkpt lat="42.9843" lon="0.2392">
        <ele>945</ele>
        <time>2018-12-04T08:42:07Z</time>
      </trkpt>
      <trkpt lat="42.98434" lon="0.23915">
        <ele>945</ele>
        <time>2018-12-04T08:42:11Z</time>
      </trkpt>
      <trkpt lat="42.98435" lon="0.23913">
        <ele>945</ele>
        <time>2018-12-04T08:42:13Z</time>
      </trkpt>
      <trkpt lat="42.98436" lon="0.2391">
        <ele>945</ele>
        <time>2018-12-04T08:42:18Z</time>
      </trkpt>
      <trkpt lat="42.98438" lon="0.2391">
        <ele>945</ele>
        <time>2018-12-04T08:42:21Z</time>
      </trkpt>
      <trkpt lat="42.98442" lon="0.23907">
        <ele>946</ele>
        <time>2018-12-04T08:42:27Z</time>
      </trkpt>
      <trkpt lat="42.98445" lon="0.23905">
        <ele>946</ele>
        <time>2018-12-04T08:42:30Z</time>
      </trkpt>
      <trkpt lat="42.98448" lon="0.23904">
        <ele>946</ele>
        <time>2018-12-04T08:42:32Z</time>
      </trkpt>
      <trkpt lat="42.9845" lon="0.23902">
        <ele>946</ele>
        <time>2018-12-04T08:42:34Z</time>
      </trkpt>
      <trkpt lat="42.98452" lon="0.239">
        <ele>946</ele>
        <time>2018-12-04T08:42:36Z</time>
      </trkpt>
      <trkpt lat="42.98454" lon="0.23899">
        <ele>946</ele>
        <time>2018-12-04T08:42:38Z</time>
      </trkpt>
      <trkpt lat="42.98455" lon="0.23897">
        <ele>946</ele>
        <time>2018-12-04T08:42:40Z</time>
      </trkpt>
      <trkpt lat="42.98458" lon="0.23895">
        <ele>946</ele>
        <time>2018-12-04T08:42:42Z</time>
      </trkpt>
      <trkpt lat="42.98459" lon="0.23894">
        <ele>946</ele>
        <time>2018-12-04T08:42:44Z</time>
      </trkpt>
      <trkpt lat="42.98461" lon="0.23892">
        <ele>946</ele>
        <time>2018-12-04T08:42:46Z</time>
      </trkpt>
      <trkpt lat="42.98462" lon="0.2389">
        <ele>947</ele>
        <time>2018-12-04T08:42:48Z</time>
      </trkpt>
      <trkpt lat="42.98464" lon="0.23889">
        <ele>947</ele>
        <time>2018-12-04T08:42:50Z</time>
      </trkpt>
      <trkpt lat="42.98467" lon="0.23888">
        <ele>947</ele>
        <time>2018-12-04T08:42:53Z</time>
      </trkpt>
      <trkpt lat="42.98471" lon="0.23888">
        <ele>947</ele>
        <time>2018-12-04T08:42:57Z</time>
      </trkpt>
      <trkpt lat="42.98473" lon="0.23887">
        <ele>947</ele>
        <time>2018-12-04T08:42:59Z</time>
      </trkpt>
      <trkpt lat="42.98476" lon="0.23888">
        <ele>947</ele>
        <time>2018-12-04T08:43:02Z</time>
      </trkpt>
      <trkpt lat="42.9848" lon="0.23886">
        <ele>947</ele>
        <time>2018-12-04T08:43:07Z</time>
      </trkpt>
      <trkpt lat="42.98482" lon="0.23884">
        <ele>947</ele>
        <time>2018-12-04T08:43:10Z</time>
      </trkpt>
      <trkpt lat="42.98486" lon="0.23882">
        <ele>948</ele>
        <time>2018-12-04T08:43:15Z</time>
      </trkpt>
      <trkpt lat="42.98487" lon="0.2388">
        <ele>948</ele>
        <time>2018-12-04T08:43:17Z</time>
      </trkpt>
      <trkpt lat="42.9849" lon="0.23878">
        <ele>948</ele>
        <time>2018-12-04T08:43:20Z</time>
      </trkpt>
      <trkpt lat="42.98492" lon="0.23877">
        <ele>948</ele>
        <time>2018-12-04T08:43:22Z</time>
      </trkpt>
      <trkpt lat="42.98493" lon="0.23875">
        <ele>948</ele>
        <time>2018-12-04T08:43:27Z</time>
      </trkpt>
      <trkpt lat="42.98497" lon="0.23872">
        <ele>948</ele>
        <time>2018-12-04T08:43:33Z</time>
      </trkpt>
      <trkpt lat="42.985" lon="0.2387">
        <ele>948</ele>
        <time>2018-12-04T08:43:36Z</time>
      </trkpt>
      <trkpt lat="42.98504" lon="0.23863">
        <ele>949</ele>
        <time>2018-12-04T08:43:42Z</time>
      </trkpt>
      <trkpt lat="42.9851" lon="0.23859">
        <ele>949</ele>
        <time>2018-12-04T08:43:47Z</time>
      </trkpt>
      <trkpt lat="42.9852" lon="0.23855">
        <ele>949</ele>
        <time>2018-12-04T08:43:57Z</time>
      </trkpt>
      <trkpt lat="42.98526" lon="0.23854">
        <ele>949</ele>
        <time>2018-12-04T08:44:02Z</time>
      </trkpt>
      <trkpt lat="42.98528" lon="0.23853">
        <ele>949</ele>
        <time>2018-12-04T08:44:04Z</time>
      </trkpt>
      <trkpt lat="42.98533" lon="0.23851">
        <ele>949</ele>
        <time>2018-12-04T08:44:08Z</time>
      </trkpt>
      <trkpt lat="42.98536" lon="0.23849">
        <ele>949</ele>
        <time>2018-12-04T08:44:11Z</time>
      </trkpt>
      <trkpt lat="42.98544" lon="0.23844">
        <ele>949</ele>
        <time>2018-12-04T08:44:17Z</time>
      </trkpt>
      <trkpt lat="42.98546" lon="0.23841">
        <ele>949</ele>
        <time>2018-12-04T08:44:19Z</time>
      </trkpt>
      <trkpt lat="42.98547" lon="0.23838">
        <ele>949</ele>
        <time>2018-12-04T08:44:22Z</time>
      </trkpt>
      <trkpt lat="42.98553" lon="0.23831">
        <ele>950</ele>
        <time>2018-12-04T08:44:29Z</time>
      </trkpt>
      <trkpt lat="42.98558" lon="0.2383">
        <ele>950</ele>
        <time>2018-12-04T08:44:33Z</time>
      </trkpt>
      <trkpt lat="42.98565" lon="0.23826">
        <ele>950</ele>
        <time>2018-12-04T08:44:43Z</time>
      </trkpt>
      <trkpt lat="42.98566" lon="0.23823">
        <ele>950</ele>
        <time>2018-12-04T08:44:46Z</time>
      </trkpt>
      <trkpt lat="42.98569" lon="0.23818">
        <ele>950</ele>
        <time>2018-12-04T08:44:52Z</time>
      </trkpt>
      <trkpt lat="42.98571" lon="0.23816">
        <ele>950</ele>
        <time>2018-12-04T08:44:54Z</time>
      </trkpt>
      <trkpt lat="42.98575" lon="0.23814">
        <ele>950</ele>
        <time>2018-12-04T08:44:58Z</time>
      </trkpt>
      <trkpt lat="42.98577" lon="0.23811">
        <ele>950</ele>
        <time>2018-12-04T08:45:01Z</time>
      </trkpt>
      <trkpt lat="42.98579" lon="0.2381">
        <ele>950</ele>
        <time>2018-12-04T08:45:03Z</time>
      </trkpt>
      <trkpt lat="42.98582" lon="0.23808">
        <ele>950</ele>
        <time>2018-12-04T08:45:07Z</time>
      </trkpt>
      <trkpt lat="42.98584" lon="0.23806">
        <ele>950</ele>
        <time>2018-12-04T08:45:10Z</time>
      </trkpt>
      <trkpt lat="42.98585" lon="0.23804">
        <ele>950</ele>
        <time>2018-12-04T08:45:12Z</time>
      </trkpt>
      <trkpt lat="42.98587" lon="0.23802">
        <ele>950</ele>
        <time>2018-12-04T08:45:14Z</time>
      </trkpt>
      <trkpt lat="42.98588" lon="0.238">
        <ele>950</ele>
        <time>2018-12-04T08:45:16Z</time>
      </trkpt>
      <trkpt lat="42.9859" lon="0.23798">
        <ele>950</ele>
        <time>2018-12-04T08:45:19Z</time>
      </trkpt>
      <trkpt lat="42.98592" lon="0.23794">
        <ele>950</ele>
        <time>2018-12-04T08:45:24Z</time>
      </trkpt>
      <trkpt lat="42.98596" lon="0.23789">
        <ele>950</ele>
        <time>2018-12-04T08:45:29Z</time>
      </trkpt>
      <trkpt lat="42.98606" lon="0.23778">
        <ele>950</ele>
        <time>2018-12-04T08:45:40Z</time>
      </trkpt>
      <trkpt lat="42.9861" lon="0.23772">
        <ele>950</ele>
        <time>2018-12-04T08:45:44Z</time>
      </trkpt>
      <trkpt lat="42.98612" lon="0.23771">
        <ele>950</ele>
        <time>2018-12-04T08:45:46Z</time>
      </trkpt>
      <trkpt lat="42.98615" lon="0.23769">
        <ele>950</ele>
        <time>2018-12-04T08:45:48Z</time>
      </trkpt>
      <trkpt lat="42.98619" lon="0.23764">
        <ele>950</ele>
        <time>2018-12-04T08:45:52Z</time>
      </trkpt>
      <trkpt lat="42.98621" lon="0.23762">
        <ele>950</ele>
        <time>2018-12-04T08:45:54Z</time>
      </trkpt>
      <trkpt lat="42.98623" lon="0.23759">
        <ele>950</ele>
        <time>2018-12-04T08:45:56Z</time>
      </trkpt>
      <trkpt lat="42.98625" lon="0.23757">
        <ele>950</ele>
        <time>2018-12-04T08:45:58Z</time>
      </trkpt>
      <trkpt lat="42.98627" lon="0.23755">
        <ele>950</ele>
        <time>2018-12-04T08:46:00Z</time>
      </trkpt>
      <trkpt lat="42.98628" lon="0.23752">
        <ele>950</ele>
        <time>2018-12-04T08:46:02Z</time>
      </trkpt>
      <trkpt lat="42.98631" lon="0.23749">
        <ele>950</ele>
        <time>2018-12-04T08:46:06Z</time>
      </trkpt>
      <trkpt lat="42.98632" lon="0.23747">
        <ele>950</ele>
        <time>2018-12-04T08:46:09Z</time>
      </trkpt>
      <trkpt lat="42.98634" lon="0.23746">
        <ele>950</ele>
        <time>2018-12-04T08:46:12Z</time>
      </trkpt>
      <trkpt lat="42.98636" lon="0.23745">
        <ele>950</ele>
        <time>2018-12-04T08:46:14Z</time>
      </trkpt>
      <trkpt lat="42.98642" lon="0.2374">
        <ele>950</ele>
        <time>2018-12-04T08:46:21Z</time>
      </trkpt>
      <trkpt lat="42.98644" lon="0.23739">
        <ele>950</ele>
        <time>2018-12-04T08:46:23Z</time>
      </trkpt>
      <trkpt lat="42.98645" lon="0.23737">
        <ele>950</ele>
        <time>2018-12-04T08:46:25Z</time>
      </trkpt>
      <trkpt lat="42.9865" lon="0.23733">
        <ele>950</ele>
        <time>2018-12-04T08:46:31Z</time>
      </trkpt>
      <trkpt lat="42.98652" lon="0.23733">
        <ele>950</ele>
        <time>2018-12-04T08:46:33Z</time>
      </trkpt>
      <trkpt lat="42.98658" lon="0.23729">
        <ele>950</ele>
        <time>2018-12-04T08:46:39Z</time>
      </trkpt>
      <trkpt lat="42.9866" lon="0.23728">
        <ele>950</ele>
        <time>2018-12-04T08:46:42Z</time>
      </trkpt>
      <trkpt lat="42.98662" lon="0.23727">
        <ele>950</ele>
        <time>2018-12-04T08:46:45Z</time>
      </trkpt>
      <trkpt lat="42.98664" lon="0.23724">
        <ele>950</ele>
        <time>2018-12-04T08:46:48Z</time>
      </trkpt>
      <trkpt lat="42.98671" lon="0.23721">
        <ele>950</ele>
        <time>2018-12-04T08:46:55Z</time>
      </trkpt>
      <trkpt lat="42.98672" lon="0.2372">
        <ele>950</ele>
        <time>2018-12-04T08:46:58Z</time>
      </trkpt>
      <trkpt lat="42.98675" lon="0.23719">
        <ele>951</ele>
        <time>2018-12-04T08:47:01Z</time>
      </trkpt>
      <trkpt lat="42.98676" lon="0.23716">
        <ele>951</ele>
        <time>2018-12-04T08:47:03Z</time>
      </trkpt>
      <trkpt lat="42.98679" lon="0.23712">
        <ele>951</ele>
        <time>2018-12-04T08:47:09Z</time>
      </trkpt>
      <trkpt lat="42.9868" lon="0.23711">
        <ele>951</ele>
        <time>2018-12-04T08:47:11Z</time>
      </trkpt>
      <trkpt lat="42.98685" lon="0.2371">
        <ele>951</ele>
        <time>2018-12-04T08:47:16Z</time>
      </trkpt>
      <trkpt lat="42.98687" lon="0.23709">
        <ele>951</ele>
        <time>2018-12-04T08:47:19Z</time>
      </trkpt>
      <trkpt lat="42.98689" lon="0.23708">
        <ele>951</ele>
        <time>2018-12-04T08:47:21Z</time>
      </trkpt>
      <trkpt lat="42.98691" lon="0.23707">
        <ele>951</ele>
        <time>2018-12-04T08:47:24Z</time>
      </trkpt>
      <trkpt lat="42.98693" lon="0.23706">
        <ele>951</ele>
        <time>2018-12-04T08:47:28Z</time>
      </trkpt>
      <trkpt lat="42.98696" lon="0.23702">
        <ele>951</ele>
        <time>2018-12-04T08:47:34Z</time>
      </trkpt>
      <trkpt lat="42.98699" lon="0.23703">
        <ele>951</ele>
        <time>2018-12-04T08:47:39Z</time>
      </trkpt>
      <trkpt lat="42.98703" lon="0.23708">
        <ele>952</ele>
        <time>2018-12-04T08:47:55Z</time>
      </trkpt>
      <trkpt lat="42.98706" lon="0.23704">
        <ele>952</ele>
        <time>2018-12-04T08:48:15Z</time>
      </trkpt>
      <trkpt lat="42.98709" lon="0.23704">
        <ele>953</ele>
        <time>2018-12-04T08:49:55Z</time>
      </trkpt>
      <trkpt lat="42.98714" lon="0.23702">
        <ele>953</ele>
        <time>2018-12-04T08:50:07Z</time>
      </trkpt>
      <trkpt lat="42.98726" lon="0.23692">
        <ele>955</ele>
        <time>2018-12-04T08:50:20Z</time>
      </trkpt>
      <trkpt lat="42.98734" lon="0.23686">
        <ele>956</ele>
        <time>2018-12-04T08:50:30Z</time>
      </trkpt>
      <trkpt lat="42.98737" lon="0.23685">
        <ele>956</ele>
        <time>2018-12-04T08:50:34Z</time>
      </trkpt>
      <trkpt lat="42.98739" lon="0.23683">
        <ele>956</ele>
        <time>2018-12-04T08:50:37Z</time>
      </trkpt>
      <trkpt lat="42.98741" lon="0.23682">
        <ele>956</ele>
        <time>2018-12-04T08:50:39Z</time>
      </trkpt>
      <trkpt lat="42.98748" lon="0.2368">
        <ele>957</ele>
        <time>2018-12-04T08:50:49Z</time>
      </trkpt>
      <trkpt lat="42.98751" lon="0.23678">
        <ele>957</ele>
        <time>2018-12-04T08:50:54Z</time>
      </trkpt>
      <trkpt lat="42.98757" lon="0.23674">
        <ele>958</ele>
        <time>2018-12-04T08:51:08Z</time>
      </trkpt>
      <trkpt lat="42.98759" lon="0.23673">
        <ele>959</ele>
        <time>2018-12-04T08:51:10Z</time>
      </trkpt>
      <trkpt lat="42.98761" lon="0.23672">
        <ele>959</ele>
        <time>2018-12-04T08:51:13Z</time>
      </trkpt>
      <trkpt lat="42.98764" lon="0.23671">
        <ele>959</ele>
        <time>2018-12-04T08:51:15Z</time>
      </trkpt>
      <trkpt lat="42.98768" lon="0.2367">
        <ele>959</ele>
        <time>2018-12-04T08:51:19Z</time>
      </trkpt>
      <trkpt lat="42.98771" lon="0.23669">
        <ele>960</ele>
        <time>2018-12-04T08:51:23Z</time>
      </trkpt>
      <trkpt lat="42.98774" lon="0.23671">
        <ele>960</ele>
        <time>2018-12-04T08:51:27Z</time>
      </trkpt>
      <trkpt lat="42.98778" lon="0.23669">
        <ele>960</ele>
        <time>2018-12-04T08:51:30Z</time>
      </trkpt>
      <trkpt lat="42.98781" lon="0.23669">
        <ele>961</ele>
        <time>2018-12-04T08:51:33Z</time>
      </trkpt>
      <trkpt lat="42.98783" lon="0.23669">
        <ele>961</ele>
        <time>2018-12-04T08:51:36Z</time>
      </trkpt>
      <trkpt lat="42.98785" lon="0.23669">
        <ele>961</ele>
        <time>2018-12-04T08:51:39Z</time>
      </trkpt>
      <trkpt lat="42.98787" lon="0.2367">
        <ele>962</ele>
        <time>2018-12-04T08:51:41Z</time>
      </trkpt>
      <trkpt lat="42.98791" lon="0.2367">
        <ele>962</ele>
        <time>2018-12-04T08:51:45Z</time>
      </trkpt>
      <trkpt lat="42.98796" lon="0.23671">
        <ele>963</ele>
        <time>2018-12-04T08:51:52Z</time>
      </trkpt>
      <trkpt lat="42.98798" lon="0.23671">
        <ele>963</ele>
        <time>2018-12-04T08:51:55Z</time>
      </trkpt>
      <trkpt lat="42.988" lon="0.23671">
        <ele>964</ele>
        <time>2018-12-04T08:51:58Z</time>
      </trkpt>
      <trkpt lat="42.98802" lon="0.2367">
        <ele>964</ele>
        <time>2018-12-04T08:52:00Z</time>
      </trkpt>
      <trkpt lat="42.98804" lon="0.23671">
        <ele>964</ele>
        <time>2018-12-04T08:52:02Z</time>
      </trkpt>
      <trkpt lat="42.98806" lon="0.23672">
        <ele>965</ele>
        <time>2018-12-04T08:52:05Z</time>
      </trkpt>
      <trkpt lat="42.98814" lon="0.23666">
        <ele>967</ele>
        <time>2018-12-04T08:52:23Z</time>
      </trkpt>
      <trkpt lat="42.98818" lon="0.23665">
        <ele>969</ele>
        <time>2018-12-04T08:52:34Z</time>
      </trkpt>
      <trkpt lat="42.9882" lon="0.23664">
        <ele>970</ele>
        <time>2018-12-04T08:52:37Z</time>
      </trkpt>
      <trkpt lat="42.98826" lon="0.2366">
        <ele>971</ele>
        <time>2018-12-04T08:52:44Z</time>
      </trkpt>
      <trkpt lat="42.98833" lon="0.23657">
        <ele>972</ele>
        <time>2018-12-04T08:52:52Z</time>
      </trkpt>
      <trkpt lat="42.98835" lon="0.23656">
        <ele>973</ele>
        <time>2018-12-04T08:52:54Z</time>
      </trkpt>
      <trkpt lat="42.98841" lon="0.23653">
        <ele>974</ele>
        <time>2018-12-04T08:53:00Z</time>
      </trkpt>
      <trkpt lat="42.98843" lon="0.23652">
        <ele>975</ele>
        <time>2018-12-04T08:53:04Z</time>
      </trkpt>
      <trkpt lat="42.98851" lon="0.2365">
        <ele>977</ele>
        <time>2018-12-04T08:53:15Z</time>
      </trkpt>
      <trkpt lat="42.98853" lon="0.2365">
        <ele>977</ele>
        <time>2018-12-04T08:53:18Z</time>
      </trkpt>
      <trkpt lat="42.98858" lon="0.23647">
        <ele>978</ele>
        <time>2018-12-04T08:53:24Z</time>
      </trkpt>
      <trkpt lat="42.98861" lon="0.23647">
        <ele>979</ele>
        <time>2018-12-04T08:53:26Z</time>
      </trkpt>
      <trkpt lat="42.98863" lon="0.23647">
        <ele>979</ele>
        <time>2018-12-04T08:53:28Z</time>
      </trkpt>
      <trkpt lat="42.98867" lon="0.23646">
        <ele>980</ele>
        <time>2018-12-04T08:53:33Z</time>
      </trkpt>
      <trkpt lat="42.98877" lon="0.23639">
        <ele>982</ele>
        <time>2018-12-04T08:53:46Z</time>
      </trkpt>
      <trkpt lat="42.98882" lon="0.23633">
        <ele>984</ele>
        <time>2018-12-04T08:53:54Z</time>
      </trkpt>
      <trkpt lat="42.98884" lon="0.23631">
        <ele>984</ele>
        <time>2018-12-04T08:53:57Z</time>
      </trkpt>
      <trkpt lat="42.98888" lon="0.23627">
        <ele>985</ele>
        <time>2018-12-04T08:54:03Z</time>
      </trkpt>
      <trkpt lat="42.98889" lon="0.23625">
        <ele>985</ele>
        <time>2018-12-04T08:54:06Z</time>
      </trkpt>
      <trkpt lat="42.98891" lon="0.23623">
        <ele>986</ele>
        <time>2018-12-04T08:54:09Z</time>
      </trkpt>
      <trkpt lat="42.98894" lon="0.23623">
        <ele>987</ele>
        <time>2018-12-04T08:54:12Z</time>
      </trkpt>
      <trkpt lat="42.98896" lon="0.23621">
        <ele>987</ele>
        <time>2018-12-04T08:54:15Z</time>
      </trkpt>
      <trkpt lat="42.98898" lon="0.2362">
        <ele>987</ele>
        <time>2018-12-04T08:54:18Z</time>
      </trkpt>
      <trkpt lat="42.98907" lon="0.23613">
        <ele>989</ele>
        <time>2018-12-04T08:54:30Z</time>
      </trkpt>
      <trkpt lat="42.9891" lon="0.23612">
        <ele>989</ele>
        <time>2018-12-04T08:54:33Z</time>
      </trkpt>
      <trkpt lat="42.98912" lon="0.23611">
        <ele>990</ele>
        <time>2018-12-04T08:54:36Z</time>
      </trkpt>
      <trkpt lat="42.98914" lon="0.2361">
        <ele>990</ele>
        <time>2018-12-04T08:54:38Z</time>
      </trkpt>
      <trkpt lat="42.98916" lon="0.23608">
        <ele>991</ele>
        <time>2018-12-04T08:54:41Z</time>
      </trkpt>
      <trkpt lat="42.9892" lon="0.23605">
        <ele>991</ele>
        <time>2018-12-04T08:54:47Z</time>
      </trkpt>
      <trkpt lat="42.98922" lon="0.23603">
        <ele>992</ele>
        <time>2018-12-04T08:54:49Z</time>
      </trkpt>
      <trkpt lat="42.98924" lon="0.23602">
        <ele>992</ele>
        <time>2018-12-04T08:54:52Z</time>
      </trkpt>
      <trkpt lat="42.98928" lon="0.23599">
        <ele>993</ele>
        <time>2018-12-04T08:54:56Z</time>
      </trkpt>
      <trkpt lat="42.98944" lon="0.23594">
        <ele>995</ele>
        <time>2018-12-04T08:55:15Z</time>
      </trkpt>
      <trkpt lat="42.98948" lon="0.23591">
        <ele>996</ele>
        <time>2018-12-04T08:55:22Z</time>
      </trkpt>
      <trkpt lat="42.98953" lon="0.23589">
        <ele>997</ele>
        <time>2018-12-04T08:55:26Z</time>
      </trkpt>
      <trkpt lat="42.98958" lon="0.23584">
        <ele>998</ele>
        <time>2018-12-04T08:55:33Z</time>
      </trkpt>
      <trkpt lat="42.98965" lon="0.23584">
        <ele>999</ele>
        <time>2018-12-04T08:55:41Z</time>
      </trkpt>
      <trkpt lat="42.98968" lon="0.23582">
        <ele>999</ele>
        <time>2018-12-04T08:55:43Z</time>
      </trkpt>
      <trkpt lat="42.98975" lon="0.23578">
        <ele>1000</ele>
        <time>2018-12-04T08:55:48Z</time>
      </trkpt>
      <trkpt lat="42.98982" lon="0.23579">
        <ele>1000</ele>
        <time>2018-12-04T08:55:56Z</time>
      </trkpt>
      <trkpt lat="42.98991" lon="0.23581">
        <ele>1001</ele>
        <time>2018-12-04T08:56:06Z</time>
      </trkpt>
      <trkpt lat="42.98993" lon="0.23582">
        <ele>1002</ele>
        <time>2018-12-04T08:56:09Z</time>
      </trkpt>
      <trkpt lat="42.98996" lon="0.23583">
        <ele>1002</ele>
        <time>2018-12-04T08:56:12Z</time>
      </trkpt>
      <trkpt lat="42.99" lon="0.23585">
        <ele>1003</ele>
        <time>2018-12-04T08:56:17Z</time>
      </trkpt>
      <trkpt lat="42.99004" lon="0.23585">
        <ele>1003</ele>
        <time>2018-12-04T08:56:23Z</time>
      </trkpt>
      <trkpt lat="42.99018" lon="0.23592">
        <ele>1005</ele>
        <time>2018-12-04T08:56:42Z</time>
      </trkpt>
      <trkpt lat="42.9902" lon="0.23592">
        <ele>1005</ele>
        <time>2018-12-04T08:56:44Z</time>
      </trkpt>
      <trkpt lat="42.99025" lon="0.23598">
        <ele>1006</ele>
        <time>2018-12-04T08:56:52Z</time>
      </trkpt>
      <trkpt lat="42.9903" lon="0.23603">
        <ele>1007</ele>
        <time>2018-12-04T08:56:58Z</time>
      </trkpt>
      <trkpt lat="42.99036" lon="0.23608">
        <ele>1008</ele>
        <time>2018-12-04T08:57:08Z</time>
      </trkpt>
      <trkpt lat="42.99048" lon="0.23621">
        <ele>1010</ele>
        <time>2018-12-04T08:57:25Z</time>
      </trkpt>
      <trkpt lat="42.99057" lon="0.23631">
        <ele>1011</ele>
        <time>2018-12-04T08:57:37Z</time>
      </trkpt>
      <trkpt lat="42.99062" lon="0.23635">
        <ele>1011</ele>
        <time>2018-12-04T08:57:43Z</time>
      </trkpt>
      <trkpt lat="42.99064" lon="0.23636">
        <ele>1012</ele>
        <time>2018-12-04T08:57:46Z</time>
      </trkpt>
      <trkpt lat="42.99072" lon="0.23647">
        <ele>1013</ele>
        <time>2018-12-04T08:57:59Z</time>
      </trkpt>
      <trkpt lat="42.99079" lon="0.23652">
        <ele>1014</ele>
        <time>2018-12-04T08:58:07Z</time>
      </trkpt>
      <trkpt lat="42.99081" lon="0.23652">
        <ele>1014</ele>
        <time>2018-12-04T08:58:09Z</time>
      </trkpt>
      <trkpt lat="42.99087" lon="0.23655">
        <ele>1015</ele>
        <time>2018-12-04T08:58:17Z</time>
      </trkpt>
      <trkpt lat="42.99089" lon="0.23656">
        <ele>1015</ele>
        <time>2018-12-04T08:58:19Z</time>
      </trkpt>
      <trkpt lat="42.99091" lon="0.23656">
        <ele>1015</ele>
        <time>2018-12-04T08:58:21Z</time>
      </trkpt>
      <trkpt lat="42.99093" lon="0.23658">
        <ele>1016</ele>
        <time>2018-12-04T08:58:23Z</time>
      </trkpt>
      <trkpt lat="42.99095" lon="0.23658">
        <ele>1016</ele>
        <time>2018-12-04T08:58:25Z</time>
      </trkpt>
      <trkpt lat="42.99097" lon="0.23659">
        <ele>1016</ele>
        <time>2018-12-04T08:58:27Z</time>
      </trkpt>
      <trkpt lat="42.991" lon="0.2366">
        <ele>1017</ele>
        <time>2018-12-04T08:58:31Z</time>
      </trkpt>
      <trkpt lat="42.99107" lon="0.23664">
        <ele>1018</ele>
        <time>2018-12-04T08:58:38Z</time>
      </trkpt>
      <trkpt lat="42.99109" lon="0.23665">
        <ele>1018</ele>
        <time>2018-12-04T08:58:40Z</time>
      </trkpt>
      <trkpt lat="42.99115" lon="0.23668">
        <ele>1018</ele>
        <time>2018-12-04T08:58:51Z</time>
      </trkpt>
      <trkpt lat="42.99116" lon="0.23666">
        <ele>1019</ele>
        <time>2018-12-04T08:59:05Z</time>
      </trkpt>
      <trkpt lat="42.99119" lon="0.23663">
        <ele>1019</ele>
        <time>2018-12-04T08:59:17Z</time>
      </trkpt>
      <trkpt lat="42.99132" lon="0.23667">
        <ele>1022</ele>
        <time>2018-12-04T08:59:34Z</time>
      </trkpt>
      <trkpt lat="42.99134" lon="0.23669">
        <ele>1023</ele>
        <time>2018-12-04T08:59:38Z</time>
      </trkpt>
      <trkpt lat="42.99138" lon="0.23675">
        <ele>1025</ele>
        <time>2018-12-04T08:59:49Z</time>
      </trkpt>
      <trkpt lat="42.99148" lon="0.23688">
        <ele>1028</ele>
        <time>2018-12-04T09:00:10Z</time>
      </trkpt>
      <trkpt lat="42.99148" lon="0.23691">
        <ele>1028</ele>
        <time>2018-12-04T09:00:13Z</time>
      </trkpt>
      <trkpt lat="42.99148" lon="0.23694">
        <ele>1029</ele>
        <time>2018-12-04T09:00:16Z</time>
      </trkpt>
      <trkpt lat="42.99149" lon="0.23697">
        <ele>1029</ele>
        <time>2018-12-04T09:00:20Z</time>
      </trkpt>
      <trkpt lat="42.9915" lon="0.237">
        <ele>1030</ele>
        <time>2018-12-04T09:00:25Z</time>
      </trkpt>
      <trkpt lat="42.99153" lon="0.23705">
        <ele>1030</ele>
        <time>2018-12-04T09:00:31Z</time>
      </trkpt>
      <trkpt lat="42.99154" lon="0.2371">
        <ele>1031</ele>
        <time>2018-12-04T09:00:39Z</time>
      </trkpt>
      <trkpt lat="42.99155" lon="0.23714">
        <ele>1032</ele>
        <time>2018-12-04T09:00:46Z</time>
      </trkpt>
      <trkpt lat="42.99158" lon="0.23717">
        <ele>1032</ele>
        <time>2018-12-04T09:00:52Z</time>
      </trkpt>
      <trkpt lat="42.9916" lon="0.23722">
        <ele>1033</ele>
        <time>2018-12-04T09:00:56Z</time>
      </trkpt>
      <trkpt lat="42.99161" lon="0.23725">
        <ele>1034</ele>
        <time>2018-12-04T09:01:07Z</time>
      </trkpt>
      <trkpt lat="42.99167" lon="0.23729">
        <ele>1035</ele>
        <time>2018-12-04T09:01:24Z</time>
      </trkpt>
      <trkpt lat="42.9917" lon="0.23734">
        <ele>1036</ele>
        <time>2018-12-04T09:01:29Z</time>
      </trkpt>
      <trkpt lat="42.9917" lon="0.23739">
        <ele>1036</ele>
        <time>2018-12-04T09:01:37Z</time>
      </trkpt>
      <trkpt lat="42.99172" lon="0.23743">
        <ele>1037</ele>
        <time>2018-12-04T09:01:50Z</time>
      </trkpt>
      <trkpt lat="42.99173" lon="0.23744">
        <ele>1038</ele>
        <time>2018-12-04T09:01:54Z</time>
      </trkpt>
      <trkpt lat="42.99175" lon="0.23744">
        <ele>1038</ele>
        <time>2018-12-04T09:01:56Z</time>
      </trkpt>
      <trkpt lat="42.99183" lon="0.23748">
        <ele>1040</ele>
        <time>2018-12-04T09:02:14Z</time>
      </trkpt>
      <trkpt lat="42.99185" lon="0.23753">
        <ele>1041</ele>
        <time>2018-12-04T09:02:28Z</time>
      </trkpt>
      <trkpt lat="42.99187" lon="0.23754">
        <ele>1042</ele>
        <time>2018-12-04T09:02:32Z</time>
      </trkpt>
      <trkpt lat="42.99187" lon="0.23757">
        <ele>1042</ele>
        <time>2018-12-04T09:02:36Z</time>
      </trkpt>
      <trkpt lat="42.99188" lon="0.2376">
        <ele>1043</ele>
        <time>2018-12-04T09:02:41Z</time>
      </trkpt>
      <trkpt lat="42.9919" lon="0.23769">
        <ele>1044</ele>
        <time>2018-12-04T09:02:55Z</time>
      </trkpt>
      <trkpt lat="42.99188" lon="0.23773">
        <ele>1045</ele>
        <time>2018-12-04T09:03:04Z</time>
      </trkpt>
      <trkpt lat="42.99188" lon="0.23779">
        <ele>1047</ele>
        <time>2018-12-04T09:03:15Z</time>
      </trkpt>
      <trkpt lat="42.9919" lon="0.23783">
        <ele>1049</ele>
        <time>2018-12-04T09:03:31Z</time>
      </trkpt>
      <trkpt lat="42.99189" lon="0.23794">
        <ele>1055</ele>
        <time>2018-12-04T09:03:55Z</time>
      </trkpt>
      <trkpt lat="42.99189" lon="0.23799">
        <ele>1060</ele>
        <time>2018-12-04T09:04:02Z</time>
      </trkpt>
      <trkpt lat="42.9919" lon="0.23804">
        <ele>1062</ele>
        <time>2018-12-04T09:04:14Z</time>
      </trkpt>
      <trkpt lat="42.99191" lon="0.23808">
        <ele>1067</ele>
        <time>2018-12-04T09:04:26Z</time>
      </trkpt>
      <trkpt lat="42.99188" lon="0.23812">
        <ele>1069</ele>
        <time>2018-12-04T09:04:34Z</time>
      </trkpt>
      <trkpt lat="42.99188" lon="0.23818">
        <ele>1073</ele>
        <time>2018-12-04T09:04:39Z</time>
      </trkpt>
      <trkpt lat="42.99187" lon="0.23834">
        <ele>1080</ele>
        <time>2018-12-04T09:05:03Z</time>
      </trkpt>
      <trkpt lat="42.99188" lon="0.23855">
        <ele>1092</ele>
        <time>2018-12-04T09:05:37Z</time>
      </trkpt>
      <trkpt lat="42.99186" lon="0.2386">
        <ele>1094</ele>
        <time>2018-12-04T09:05:42Z</time>
      </trkpt>
      <trkpt lat="42.99185" lon="0.23866">
        <ele>1096</ele>
        <time>2018-12-04T09:05:51Z</time>
      </trkpt>
      <trkpt lat="42.99184" lon="0.2387">
        <ele>1097</ele>
        <time>2018-12-04T09:05:59Z</time>
      </trkpt>
      <trkpt lat="42.99182" lon="0.23875">
        <ele>1099</ele>
        <time>2018-12-04T09:06:05Z</time>
      </trkpt>
      <trkpt lat="42.9918" lon="0.2388">
        <ele>1100</ele>
        <time>2018-12-04T09:06:12Z</time>
      </trkpt>
      <trkpt lat="42.9918" lon="0.23885">
        <ele>1102</ele>
        <time>2018-12-04T09:06:22Z</time>
      </trkpt>
      <trkpt lat="42.99182" lon="0.2389">
        <ele>1104</ele>
        <time>2018-12-04T09:06:35Z</time>
      </trkpt>
      <trkpt lat="42.99182" lon="0.23895">
        <ele>1107</ele>
        <time>2018-12-04T09:06:44Z</time>
      </trkpt>
      <trkpt lat="42.99183" lon="0.239">
        <ele>1108</ele>
        <time>2018-12-04T09:06:53Z</time>
      </trkpt>
      <trkpt lat="42.99189" lon="0.23905">
        <ele>1112</ele>
        <time>2018-12-04T09:07:07Z</time>
      </trkpt>
      <trkpt lat="42.99193" lon="0.23908">
        <ele>1114</ele>
        <time>2018-12-04T09:07:14Z</time>
      </trkpt>
      <trkpt lat="42.99196" lon="0.23912">
        <ele>1115</ele>
        <time>2018-12-04T09:07:22Z</time>
      </trkpt>
      <trkpt lat="42.99199" lon="0.23913">
        <ele>1119</ele>
        <time>2018-12-04T09:07:32Z</time>
      </trkpt>
      <trkpt lat="42.99202" lon="0.23915">
        <ele>1121</ele>
        <time>2018-12-04T09:07:39Z</time>
      </trkpt>
      <trkpt lat="42.99204" lon="0.23915">
        <ele>1122</ele>
        <time>2018-12-04T09:07:43Z</time>
      </trkpt>
      <trkpt lat="42.99207" lon="0.23916">
        <ele>1123</ele>
        <time>2018-12-04T09:07:47Z</time>
      </trkpt>
      <trkpt lat="42.99207" lon="0.23919">
        <ele>1124</ele>
        <time>2018-12-04T09:07:54Z</time>
      </trkpt>
      <trkpt lat="42.99207" lon="0.23921">
        <ele>1125</ele>
        <time>2018-12-04T09:08:00Z</time>
      </trkpt>
      <trkpt lat="42.99206" lon="0.23924">
        <ele>1126</ele>
        <time>2018-12-04T09:08:05Z</time>
      </trkpt>
      <trkpt lat="42.99206" lon="0.23929">
        <ele>1127</ele>
        <time>2018-12-04T09:08:17Z</time>
      </trkpt>
      <trkpt lat="42.99206" lon="0.23932">
        <ele>1128</ele>
        <time>2018-12-04T09:08:23Z</time>
      </trkpt>
      <trkpt lat="42.99204" lon="0.23934">
        <ele>1129</ele>
        <time>2018-12-04T09:08:28Z</time>
      </trkpt>
      <trkpt lat="42.99202" lon="0.23935">
        <ele>1130</ele>
        <time>2018-12-04T09:08:34Z</time>
      </trkpt>
      <trkpt lat="42.99198" lon="0.23937">
        <ele>1131</ele>
        <time>2018-12-04T09:08:43Z</time>
      </trkpt>
      <trkpt lat="42.99197" lon="0.23938">
        <ele>1131</ele>
        <time>2018-12-04T09:08:45Z</time>
      </trkpt>
      <trkpt lat="42.99193" lon="0.23941">
        <ele>1133</ele>
        <time>2018-12-04T09:08:52Z</time>
      </trkpt>
      <trkpt lat="42.99191" lon="0.23942">
        <ele>1133</ele>
        <time>2018-12-04T09:08:56Z</time>
      </trkpt>
      <trkpt lat="42.9919" lon="0.23944">
        <ele>1133</ele>
        <time>2018-12-04T09:08:59Z</time>
      </trkpt>
      <trkpt lat="42.99187" lon="0.23945">
        <ele>1134</ele>
        <time>2018-12-04T09:09:01Z</time>
      </trkpt>
      <trkpt lat="42.99185" lon="0.23945">
        <ele>1134</ele>
        <time>2018-12-04T09:09:04Z</time>
      </trkpt>
      <trkpt lat="42.99183" lon="0.23948">
        <ele>1135</ele>
        <time>2018-12-04T09:09:09Z</time>
      </trkpt>
      <trkpt lat="42.99186" lon="0.23953">
        <ele>1136</ele>
        <time>2018-12-04T09:09:18Z</time>
      </trkpt>
      <trkpt lat="42.99189" lon="0.23957">
        <ele>1137</ele>
        <time>2018-12-04T09:09:30Z</time>
      </trkpt>
      <trkpt lat="42.99192" lon="0.2396">
        <ele>1138</ele>
        <time>2018-12-04T09:09:37Z</time>
      </trkpt>
      <trkpt lat="42.99195" lon="0.2396">
        <ele>1139</ele>
        <time>2018-12-04T09:09:43Z</time>
      </trkpt>
      <trkpt lat="42.99197" lon="0.2396">
        <ele>1139</ele>
        <time>2018-12-04T09:09:46Z</time>
      </trkpt>
      <trkpt lat="42.992" lon="0.2396">
        <ele>1140</ele>
        <time>2018-12-04T09:09:50Z</time>
      </trkpt>
      <trkpt lat="42.99202" lon="0.2396">
        <ele>1140</ele>
        <time>2018-12-04T09:09:54Z</time>
      </trkpt>
      <trkpt lat="42.99203" lon="0.23959">
        <ele>1141</ele>
        <time>2018-12-04T09:10:00Z</time>
      </trkpt>
      <trkpt lat="42.99203" lon="0.23962">
        <ele>1141</ele>
        <time>2018-12-04T09:10:10Z</time>
      </trkpt>
      <trkpt lat="42.99205" lon="0.23964">
        <ele>1143</ele>
        <time>2018-12-04T09:10:15Z</time>
      </trkpt>
      <trkpt lat="42.99205" lon="0.23967">
        <ele>1143</ele>
        <time>2018-12-04T09:10:19Z</time>
      </trkpt>
      <trkpt lat="42.99204" lon="0.2397">
        <ele>1144</ele>
        <time>2018-12-04T09:10:23Z</time>
      </trkpt>
      <trkpt lat="42.99202" lon="0.23972">
        <ele>1144</ele>
        <time>2018-12-04T09:10:28Z</time>
      </trkpt>
      <trkpt lat="42.99201" lon="0.23973">
        <ele>1145</ele>
        <time>2018-12-04T09:10:34Z</time>
      </trkpt>
      <trkpt lat="42.99199" lon="0.23974">
        <ele>1145</ele>
        <time>2018-12-04T09:10:40Z</time>
      </trkpt>
      <trkpt lat="42.99197" lon="0.23976">
        <ele>1146</ele>
        <time>2018-12-04T09:10:46Z</time>
      </trkpt>
      <trkpt lat="42.99196" lon="0.23977">
        <ele>1147</ele>
        <time>2018-12-04T09:10:53Z</time>
      </trkpt>
      <trkpt lat="42.99197" lon="0.2398">
        <ele>1147</ele>
        <time>2018-12-04T09:10:56Z</time>
      </trkpt>
      <trkpt lat="42.99193" lon="0.23987">
        <ele>1148</ele>
        <time>2018-12-04T09:11:10Z</time>
      </trkpt>
      <trkpt lat="42.9919" lon="0.23991">
        <ele>1149</ele>
        <time>2018-12-04T09:11:20Z</time>
      </trkpt>
      <trkpt lat="42.9919" lon="0.23995">
        <ele>1150</ele>
        <time>2018-12-04T09:11:31Z</time>
      </trkpt>
      <trkpt lat="42.99194" lon="0.23996">
        <ele>1151</ele>
        <time>2018-12-04T09:11:41Z</time>
      </trkpt>
      <trkpt lat="42.99197" lon="0.23996">
        <ele>1151</ele>
        <time>2018-12-04T09:11:44Z</time>
      </trkpt>
      <trkpt lat="42.992" lon="0.23995">
        <ele>1152</ele>
        <time>2018-12-04T09:11:48Z</time>
      </trkpt>
      <trkpt lat="42.99203" lon="0.23997">
        <ele>1153</ele>
        <time>2018-12-04T09:11:56Z</time>
      </trkpt>
      <trkpt lat="42.99205" lon="0.23996">
        <ele>1153</ele>
        <time>2018-12-04T09:11:58Z</time>
      </trkpt>
      <trkpt lat="42.99207" lon="0.23996">
        <ele>1153</ele>
        <time>2018-12-04T09:12:02Z</time>
      </trkpt>
      <trkpt lat="42.99209" lon="0.23995">
        <ele>1154</ele>
        <time>2018-12-04T09:12:05Z</time>
      </trkpt>
      <trkpt lat="42.99212" lon="0.23994">
        <ele>1154</ele>
        <time>2018-12-04T09:12:12Z</time>
      </trkpt>
      <trkpt lat="42.99213" lon="0.23992">
        <ele>1155</ele>
        <time>2018-12-04T09:12:15Z</time>
      </trkpt>
      <trkpt lat="42.99215" lon="0.2399">
        <ele>1155</ele>
        <time>2018-12-04T09:12:20Z</time>
      </trkpt>
      <trkpt lat="42.99217" lon="0.23989">
        <ele>1156</ele>
        <time>2018-12-04T09:12:23Z</time>
      </trkpt>
      <trkpt lat="42.99219" lon="0.23984">
        <ele>1156</ele>
        <time>2018-12-04T09:12:26Z</time>
      </trkpt>
      <trkpt lat="42.99222" lon="0.23983">
        <ele>1157</ele>
        <time>2018-12-04T09:12:30Z</time>
      </trkpt>
      <trkpt lat="42.99226" lon="0.23982">
        <ele>1157</ele>
        <time>2018-12-04T09:12:36Z</time>
      </trkpt>
      <trkpt lat="42.99229" lon="0.23983">
        <ele>1158</ele>
        <time>2018-12-04T09:12:41Z</time>
      </trkpt>
      <trkpt lat="42.99231" lon="0.23983">
        <ele>1158</ele>
        <time>2018-12-04T09:12:44Z</time>
      </trkpt>
      <trkpt lat="42.99233" lon="0.23983">
        <ele>1159</ele>
        <time>2018-12-04T09:12:48Z</time>
      </trkpt>
      <trkpt lat="42.99238" lon="0.23985">
        <ele>1160</ele>
        <time>2018-12-04T09:12:56Z</time>
      </trkpt>
      <trkpt lat="42.99243" lon="0.23985">
        <ele>1161</ele>
        <time>2018-12-04T09:13:00Z</time>
      </trkpt>
      <trkpt lat="42.99245" lon="0.23985">
        <ele>1161</ele>
        <time>2018-12-04T09:13:03Z</time>
      </trkpt>
      <trkpt lat="42.99255" lon="0.23986">
        <ele>1162</ele>
        <time>2018-12-04T09:13:13Z</time>
      </trkpt>
      <trkpt lat="42.99266" lon="0.23985">
        <ele>1164</ele>
        <time>2018-12-04T09:13:25Z</time>
      </trkpt>
      <trkpt lat="42.99268" lon="0.23985">
        <ele>1164</ele>
        <time>2018-12-04T09:13:27Z</time>
      </trkpt>
      <trkpt lat="42.99272" lon="0.23986">
        <ele>1165</ele>
        <time>2018-12-04T09:13:31Z</time>
      </trkpt>
      <trkpt lat="42.99279" lon="0.23989">
        <ele>1166</ele>
        <time>2018-12-04T09:13:39Z</time>
      </trkpt>
      <trkpt lat="42.99287" lon="0.23991">
        <ele>1167</ele>
        <time>2018-12-04T09:13:48Z</time>
      </trkpt>
      <trkpt lat="42.99292" lon="0.23994">
        <ele>1168</ele>
        <time>2018-12-04T09:13:53Z</time>
      </trkpt>
      <trkpt lat="42.99297" lon="0.23999">
        <ele>1169</ele>
        <time>2018-12-04T09:14:02Z</time>
      </trkpt>
      <trkpt lat="42.99299" lon="0.24001">
        <ele>1169</ele>
        <time>2018-12-04T09:14:05Z</time>
      </trkpt>
      <trkpt lat="42.99301" lon="0.24002">
        <ele>1169</ele>
        <time>2018-12-04T09:14:08Z</time>
      </trkpt>
      <trkpt lat="42.99303" lon="0.24003">
        <ele>1170</ele>
        <time>2018-12-04T09:14:13Z</time>
      </trkpt>
      <trkpt lat="42.99309" lon="0.24006">
        <ele>1171</ele>
        <time>2018-12-04T09:14:23Z</time>
      </trkpt>
      <trkpt lat="42.99312" lon="0.24007">
        <ele>1171</ele>
        <time>2018-12-04T09:14:27Z</time>
      </trkpt>
      <trkpt lat="42.99316" lon="0.24009">
        <ele>1172</ele>
        <time>2018-12-04T09:14:34Z</time>
      </trkpt>
      <trkpt lat="42.99318" lon="0.24011">
        <ele>1172</ele>
        <time>2018-12-04T09:14:39Z</time>
      </trkpt>
      <trkpt lat="42.99321" lon="0.24015">
        <ele>1173</ele>
        <time>2018-12-04T09:14:46Z</time>
      </trkpt>
      <trkpt lat="42.99322" lon="0.24018">
        <ele>1174</ele>
        <time>2018-12-04T09:14:49Z</time>
      </trkpt>
      <trkpt lat="42.99323" lon="0.2402">
        <ele>1174</ele>
        <time>2018-12-04T09:14:52Z</time>
      </trkpt>
      <trkpt lat="42.99325" lon="0.24022">
        <ele>1174</ele>
        <time>2018-12-04T09:14:56Z</time>
      </trkpt>
      <trkpt lat="42.99327" lon="0.24024">
        <ele>1175</ele>
        <time>2018-12-04T09:15:00Z</time>
      </trkpt>
      <trkpt lat="42.99329" lon="0.24025">
        <ele>1175</ele>
        <time>2018-12-04T09:15:16Z</time>
      </trkpt>
      <trkpt lat="42.99331" lon="0.24025">
        <ele>1176</ele>
        <time>2018-12-04T09:15:29Z</time>
      </trkpt>
      <trkpt lat="42.99332" lon="0.24028">
        <ele>1176</ele>
        <time>2018-12-04T09:15:33Z</time>
      </trkpt>
      <trkpt lat="42.99334" lon="0.24029">
        <ele>1177</ele>
        <time>2018-12-04T09:15:36Z</time>
      </trkpt>
      <trkpt lat="42.99336" lon="0.2403">
        <ele>1177</ele>
        <time>2018-12-04T09:15:40Z</time>
      </trkpt>
      <trkpt lat="42.9934" lon="0.2403">
        <ele>1178</ele>
        <time>2018-12-04T09:15:46Z</time>
      </trkpt>
      <trkpt lat="42.99342" lon="0.24031">
        <ele>1179</ele>
        <time>2018-12-04T09:15:50Z</time>
      </trkpt>
      <trkpt lat="42.99344" lon="0.24033">
        <ele>1179</ele>
        <time>2018-12-04T09:15:54Z</time>
      </trkpt>
      <trkpt lat="42.99346" lon="0.24034">
        <ele>1179</ele>
        <time>2018-12-04T09:15:58Z</time>
      </trkpt>
      <trkpt lat="42.99348" lon="0.24034">
        <ele>1180</ele>
        <time>2018-12-04T09:16:02Z</time>
      </trkpt>
      <trkpt lat="42.99352" lon="0.24035">
        <ele>1181</ele>
        <time>2018-12-04T09:16:09Z</time>
      </trkpt>
      <trkpt lat="42.99354" lon="0.24036">
        <ele>1181</ele>
        <time>2018-12-04T09:16:13Z</time>
      </trkpt>
      <trkpt lat="42.99357" lon="0.24042">
        <ele>1182</ele>
        <time>2018-12-04T09:16:36Z</time>
      </trkpt>
      <trkpt lat="42.99359" lon="0.24042">
        <ele>1183</ele>
        <time>2018-12-04T09:16:39Z</time>
      </trkpt>
      <trkpt lat="42.99361" lon="0.24043">
        <ele>1183</ele>
        <time>2018-12-04T09:16:43Z</time>
      </trkpt>
      <trkpt lat="42.99365" lon="0.24044">
        <ele>1184</ele>
        <time>2018-12-04T09:16:50Z</time>
      </trkpt>
      <trkpt lat="42.99368" lon="0.24049">
        <ele>1185</ele>
        <time>2018-12-04T09:16:59Z</time>
      </trkpt>
      <trkpt lat="42.99372" lon="0.2405">
        <ele>1185</ele>
        <time>2018-12-04T09:17:06Z</time>
      </trkpt>
      <trkpt lat="42.99374" lon="0.2405">
        <ele>1186</ele>
        <time>2018-12-04T09:17:16Z</time>
      </trkpt>
      <trkpt lat="42.99379" lon="0.24054">
        <ele>1187</ele>
        <time>2018-12-04T09:17:31Z</time>
      </trkpt>
      <trkpt lat="42.99383" lon="0.24057">
        <ele>1188</ele>
        <time>2018-12-04T09:17:41Z</time>
      </trkpt>
      <trkpt lat="42.99385" lon="0.24058">
        <ele>1188</ele>
        <time>2018-12-04T09:17:45Z</time>
      </trkpt>
      <trkpt lat="42.99389" lon="0.24061">
        <ele>1189</ele>
        <time>2018-12-04T09:17:54Z</time>
      </trkpt>
      <trkpt lat="42.99391" lon="0.24062">
        <ele>1189</ele>
        <time>2018-12-04T09:18:01Z</time>
      </trkpt>
      <trkpt lat="42.99392" lon="0.24064">
        <ele>1189</ele>
        <time>2018-12-04T09:18:05Z</time>
      </trkpt>
      <trkpt lat="42.99394" lon="0.24066">
        <ele>1190</ele>
        <time>2018-12-04T09:18:08Z</time>
      </trkpt>
      <trkpt lat="42.99397" lon="0.24073">
        <ele>1191</ele>
        <time>2018-12-04T09:18:22Z</time>
      </trkpt>
      <trkpt lat="42.99398" lon="0.24076">
        <ele>1192</ele>
        <time>2018-12-04T09:18:27Z</time>
      </trkpt>
      <trkpt lat="42.99398" lon="0.24079">
        <ele>1192</ele>
        <time>2018-12-04T09:18:32Z</time>
      </trkpt>
      <trkpt lat="42.99401" lon="0.24083">
        <ele>1193</ele>
        <time>2018-12-04T09:18:41Z</time>
      </trkpt>
      <trkpt lat="42.99403" lon="0.24088">
        <ele>1194</ele>
        <time>2018-12-04T09:18:52Z</time>
      </trkpt>
      <trkpt lat="42.99404" lon="0.2409">
        <ele>1194</ele>
        <time>2018-12-04T09:18:56Z</time>
      </trkpt>
      <trkpt lat="42.99405" lon="0.24092">
        <ele>1195</ele>
        <time>2018-12-04T09:19:03Z</time>
      </trkpt>
      <trkpt lat="42.99403" lon="0.24094">
        <ele>1195</ele>
        <time>2018-12-04T09:19:07Z</time>
      </trkpt>
      <trkpt lat="42.99402" lon="0.24096">
        <ele>1196</ele>
        <time>2018-12-04T09:19:10Z</time>
      </trkpt>
      <trkpt lat="42.99402" lon="0.24099">
        <ele>1196</ele>
        <time>2018-12-04T09:19:16Z</time>
      </trkpt>
      <trkpt lat="42.99402" lon="0.24101">
        <ele>1196</ele>
        <time>2018-12-04T09:19:19Z</time>
      </trkpt>
      <trkpt lat="42.99402" lon="0.24104">
        <ele>1197</ele>
        <time>2018-12-04T09:19:24Z</time>
      </trkpt>
      <trkpt lat="42.99401" lon="0.24112">
        <ele>1198</ele>
        <time>2018-12-04T09:19:49Z</time>
      </trkpt>
      <trkpt lat="42.99401" lon="0.24115">
        <ele>1199</ele>
        <time>2018-12-04T09:19:53Z</time>
      </trkpt>
      <trkpt lat="42.99401" lon="0.24117">
        <ele>1200</ele>
        <time>2018-12-04T09:19:58Z</time>
      </trkpt>
      <trkpt lat="42.99403" lon="0.24119">
        <ele>1200</ele>
        <time>2018-12-04T09:20:02Z</time>
      </trkpt>
      <trkpt lat="42.99404" lon="0.24122">
        <ele>1201</ele>
        <time>2018-12-04T09:20:15Z</time>
      </trkpt>
      <trkpt lat="42.99405" lon="0.24125">
        <ele>1201</ele>
        <time>2018-12-04T09:20:21Z</time>
      </trkpt>
      <trkpt lat="42.99404" lon="0.24133">
        <ele>1203</ele>
        <time>2018-12-04T09:21:03Z</time>
      </trkpt>
      <trkpt lat="42.99404" lon="0.24133">
        <ele>1204</ele>
        <time>2018-12-04T09:22:39Z</time>
      </trkpt>
      <trkpt lat="42.99405" lon="0.24131">
        <ele>1205</ele>
        <time>2018-12-04T09:23:16Z</time>
      </trkpt>
      <trkpt lat="42.99405" lon="0.24128">
        <ele>1205</ele>
        <time>2018-12-04T09:23:24Z</time>
      </trkpt>
      <trkpt lat="42.99401" lon="0.24127">
        <ele>1205</ele>
        <time>2018-12-04T09:23:38Z</time>
      </trkpt>
      <trkpt lat="42.99399" lon="0.2413">
        <ele>1205</ele>
        <time>2018-12-04T09:23:49Z</time>
      </trkpt>
      <trkpt lat="42.994" lon="0.2413">
        <ele>1209</ele>
        <time>2018-12-04T09:24:54Z</time>
      </trkpt>
      <trkpt lat="42.99401" lon="0.24134">
        <ele>1209</ele>
        <time>2018-12-04T09:25:22Z</time>
      </trkpt>
      <trkpt lat="42.99402" lon="0.24137">
        <ele>1209</ele>
        <time>2018-12-04T09:25:27Z</time>
      </trkpt>
      <trkpt lat="42.994" lon="0.24141">
        <ele>1212</ele>
        <time>2018-12-04T09:25:34Z</time>
      </trkpt>
      <trkpt lat="42.994" lon="0.24146">
        <ele>1213</ele>
        <time>2018-12-04T09:25:38Z</time>
      </trkpt>
      <trkpt lat="42.99399" lon="0.2415">
        <ele>1214</ele>
        <time>2018-12-04T09:25:42Z</time>
      </trkpt>
      <trkpt lat="42.99397" lon="0.24154">
        <ele>1215</ele>
        <time>2018-12-04T09:25:46Z</time>
      </trkpt>
      <trkpt lat="42.99398" lon="0.24163">
        <ele>1216</ele>
        <time>2018-12-04T09:26:01Z</time>
      </trkpt>
      <trkpt lat="42.99399" lon="0.24166">
        <ele>1217</ele>
        <time>2018-12-04T09:26:06Z</time>
      </trkpt>
      <trkpt lat="42.994" lon="0.24168">
        <ele>1217</ele>
        <time>2018-12-04T09:26:10Z</time>
      </trkpt>
      <trkpt lat="42.994" lon="0.24174">
        <ele>1218</ele>
        <time>2018-12-04T09:26:18Z</time>
      </trkpt>
      <trkpt lat="42.994" lon="0.24176">
        <ele>1219</ele>
        <time>2018-12-04T09:26:22Z</time>
      </trkpt>
      <trkpt lat="42.994" lon="0.24179">
        <ele>1219</ele>
        <time>2018-12-04T09:26:25Z</time>
      </trkpt>
      <trkpt lat="42.994" lon="0.24182">
        <ele>1220</ele>
        <time>2018-12-04T09:26:31Z</time>
      </trkpt>
      <trkpt lat="42.99399" lon="0.24185">
        <ele>1220</ele>
        <time>2018-12-04T09:26:36Z</time>
      </trkpt>
      <trkpt lat="42.99399" lon="0.24188">
        <ele>1221</ele>
        <time>2018-12-04T09:26:40Z</time>
      </trkpt>
      <trkpt lat="42.99403" lon="0.24191">
        <ele>1222</ele>
        <time>2018-12-04T09:26:49Z</time>
      </trkpt>
      <trkpt lat="42.99403" lon="0.24194">
        <ele>1223</ele>
        <time>2018-12-04T09:26:55Z</time>
      </trkpt>
      <trkpt lat="42.99404" lon="0.24196">
        <ele>1223</ele>
        <time>2018-12-04T09:26:59Z</time>
      </trkpt>
      <trkpt lat="42.99404" lon="0.24199">
        <ele>1224</ele>
        <time>2018-12-04T09:27:04Z</time>
      </trkpt>
      <trkpt lat="42.99404" lon="0.24201">
        <ele>1224</ele>
        <time>2018-12-04T09:27:11Z</time>
      </trkpt>
      <trkpt lat="42.99404" lon="0.24204">
        <ele>1225</ele>
        <time>2018-12-04T09:27:16Z</time>
      </trkpt>
      <trkpt lat="42.99406" lon="0.24206">
        <ele>1226</ele>
        <time>2018-12-04T09:27:23Z</time>
      </trkpt>
      <trkpt lat="42.99408" lon="0.24207">
        <ele>1226</ele>
        <time>2018-12-04T09:27:29Z</time>
      </trkpt>
      <trkpt lat="42.9941" lon="0.24208">
        <ele>1227</ele>
        <time>2018-12-04T09:27:33Z</time>
      </trkpt>
      <trkpt lat="42.99412" lon="0.2421">
        <ele>1228</ele>
        <time>2018-12-04T09:27:41Z</time>
      </trkpt>
      <trkpt lat="42.99413" lon="0.24212">
        <ele>1228</ele>
        <time>2018-12-04T09:27:45Z</time>
      </trkpt>
      <trkpt lat="42.99415" lon="0.24216">
        <ele>1230</ele>
        <time>2018-12-04T09:28:04Z</time>
      </trkpt>
      <trkpt lat="42.99416" lon="0.24219">
        <ele>1231</ele>
        <time>2018-12-04T09:28:12Z</time>
      </trkpt>
      <trkpt lat="42.99418" lon="0.2422">
        <ele>1232</ele>
        <time>2018-12-04T09:28:19Z</time>
      </trkpt>
      <trkpt lat="42.99422" lon="0.24224">
        <ele>1233</ele>
        <time>2018-12-04T09:28:33Z</time>
      </trkpt>
      <trkpt lat="42.99424" lon="0.24226">
        <ele>1234</ele>
        <time>2018-12-04T09:28:43Z</time>
      </trkpt>
      <trkpt lat="42.99425" lon="0.24227">
        <ele>1235</ele>
        <time>2018-12-04T09:28:46Z</time>
      </trkpt>
      <trkpt lat="42.99427" lon="0.24229">
        <ele>1235</ele>
        <time>2018-12-04T09:28:49Z</time>
      </trkpt>
      <trkpt lat="42.99428" lon="0.24231">
        <ele>1237</ele>
        <time>2018-12-04T09:28:58Z</time>
      </trkpt>
      <trkpt lat="42.9943" lon="0.24232">
        <ele>1237</ele>
        <time>2018-12-04T09:29:03Z</time>
      </trkpt>
      <trkpt lat="42.99432" lon="0.24232">
        <ele>1237</ele>
        <time>2018-12-04T09:29:06Z</time>
      </trkpt>
      <trkpt lat="42.99437" lon="0.2423">
        <ele>1238</ele>
        <time>2018-12-04T09:29:19Z</time>
      </trkpt>
      <trkpt lat="42.99438" lon="0.24228">
        <ele>1240</ele>
        <time>2018-12-04T09:29:37Z</time>
      </trkpt>
      <trkpt lat="42.99442" lon="0.24227">
        <ele>1242</ele>
        <time>2018-12-04T09:30:01Z</time>
      </trkpt>
      <trkpt lat="42.99443" lon="0.24223">
        <ele>1243</ele>
        <time>2018-12-04T09:30:03Z</time>
      </trkpt>
      <trkpt lat="42.99445" lon="0.24221">
        <ele>1244</ele>
        <time>2018-12-04T09:30:05Z</time>
      </trkpt>
      <trkpt lat="42.99445" lon="0.24219">
        <ele>1245</ele>
        <time>2018-12-04T09:30:12Z</time>
      </trkpt>
      <trkpt lat="42.99451" lon="0.24207">
        <ele>1248</ele>
        <time>2018-12-04T09:30:42Z</time>
      </trkpt>
      <trkpt lat="42.99453" lon="0.24205">
        <ele>1249</ele>
        <time>2018-12-04T09:30:47Z</time>
      </trkpt>
      <trkpt lat="42.99456" lon="0.24199">
        <ele>1251</ele>
        <time>2018-12-04T09:30:54Z</time>
      </trkpt>
      <trkpt lat="42.99457" lon="0.24197">
        <ele>1252</ele>
        <time>2018-12-04T09:31:11Z</time>
      </trkpt>
      <trkpt lat="42.99458" lon="0.24197">
        <ele>1253</ele>
        <time>2018-12-04T09:31:30Z</time>
      </trkpt>
      <trkpt lat="42.99457" lon="0.242">
        <ele>1255</ele>
        <time>2018-12-04T09:31:34Z</time>
      </trkpt>
      <trkpt lat="42.99458" lon="0.24203">
        <ele>1255</ele>
        <time>2018-12-04T09:31:38Z</time>
      </trkpt>
      <trkpt lat="42.99456" lon="0.24205">
        <ele>1256</ele>
        <time>2018-12-04T09:31:42Z</time>
      </trkpt>
      <trkpt lat="42.99457" lon="0.24211">
        <ele>1257</ele>
        <time>2018-12-04T09:31:49Z</time>
      </trkpt>
      <trkpt lat="42.99456" lon="0.24213">
        <ele>1257</ele>
        <time>2018-12-04T09:31:52Z</time>
      </trkpt>
      <trkpt lat="42.99456" lon="0.24219">
        <ele>1258</ele>
        <time>2018-12-04T09:32:01Z</time>
      </trkpt>
      <trkpt lat="42.99461" lon="0.24224">
        <ele>1260</ele>
        <time>2018-12-04T09:32:34Z</time>
      </trkpt>
      <trkpt lat="42.99462" lon="0.24227">
        <ele>1261</ele>
        <time>2018-12-04T09:33:03Z</time>
      </trkpt>
      <trkpt lat="42.99461" lon="0.24232">
        <ele>1261</ele>
        <time>2018-12-04T09:33:08Z</time>
      </trkpt>
      <trkpt lat="42.9946" lon="0.24239">
        <ele>1262</ele>
        <time>2018-12-04T09:33:16Z</time>
      </trkpt>
      <trkpt lat="42.99458" lon="0.24248">
        <ele>1263</ele>
        <time>2018-12-04T09:33:29Z</time>
      </trkpt>
      <trkpt lat="42.99457" lon="0.24249">
        <ele>1263</ele>
        <time>2018-12-04T09:33:35Z</time>
      </trkpt>
      <trkpt lat="42.99456" lon="0.24251">
        <ele>1264</ele>
        <time>2018-12-04T09:33:43Z</time>
      </trkpt>
      <trkpt lat="42.99456" lon="0.24254">
        <ele>1264</ele>
        <time>2018-12-04T09:33:47Z</time>
      </trkpt>
      <trkpt lat="42.99458" lon="0.24257">
        <ele>1264</ele>
        <time>2018-12-04T09:33:49Z</time>
      </trkpt>
      <trkpt lat="42.99458" lon="0.2426">
        <ele>1264</ele>
        <time>2018-12-04T09:33:54Z</time>
      </trkpt>
      <trkpt lat="42.99456" lon="0.24262">
        <ele>1265</ele>
        <time>2018-12-04T09:33:58Z</time>
      </trkpt>
      <trkpt lat="42.99455" lon="0.24264">
        <ele>1265</ele>
        <time>2018-12-04T09:34:03Z</time>
      </trkpt>
      <trkpt lat="42.99454" lon="0.2427">
        <ele>1266</ele>
        <time>2018-12-04T09:34:30Z</time>
      </trkpt>
      <trkpt lat="42.99455" lon="0.24276">
        <ele>1266</ele>
        <time>2018-12-04T09:34:39Z</time>
      </trkpt>
      <trkpt lat="42.99454" lon="0.24278">
        <ele>1267</ele>
        <time>2018-12-04T09:34:44Z</time>
      </trkpt>
      <trkpt lat="42.99453" lon="0.2428">
        <ele>1267</ele>
        <time>2018-12-04T09:34:47Z</time>
      </trkpt>
      <trkpt lat="42.99452" lon="0.24283">
        <ele>1267</ele>
        <time>2018-12-04T09:34:51Z</time>
      </trkpt>
      <trkpt lat="42.99452" lon="0.24286">
        <ele>1267</ele>
        <time>2018-12-04T09:34:54Z</time>
      </trkpt>
      <trkpt lat="42.99452" lon="0.24288">
        <ele>1268</ele>
        <time>2018-12-04T09:35:05Z</time>
      </trkpt>
      <trkpt lat="42.99451" lon="0.24291">
        <ele>1268</ele>
        <time>2018-12-04T09:35:12Z</time>
      </trkpt>
      <trkpt lat="42.99451" lon="0.24293">
        <ele>1268</ele>
        <time>2018-12-04T09:35:25Z</time>
      </trkpt>
      <trkpt lat="42.99449" lon="0.24294">
        <ele>1269</ele>
        <time>2018-12-04T09:35:29Z</time>
      </trkpt>
      <trkpt lat="42.99447" lon="0.24295">
        <ele>1269</ele>
        <time>2018-12-04T09:35:32Z</time>
      </trkpt>
      <trkpt lat="42.99445" lon="0.24297">
        <ele>1269</ele>
        <time>2018-12-04T09:35:35Z</time>
      </trkpt>
      <trkpt lat="42.99444" lon="0.24298">
        <ele>1270</ele>
        <time>2018-12-04T09:35:38Z</time>
      </trkpt>
      <trkpt lat="42.99444" lon="0.24301">
        <ele>1270</ele>
        <time>2018-12-04T09:35:42Z</time>
      </trkpt>
      <trkpt lat="42.99442" lon="0.24306">
        <ele>1271</ele>
        <time>2018-12-04T09:35:54Z</time>
      </trkpt>
      <trkpt lat="42.99442" lon="0.24312">
        <ele>1271</ele>
        <time>2018-12-04T09:36:00Z</time>
      </trkpt>
      <trkpt lat="42.9944" lon="0.24314">
        <ele>1271</ele>
        <time>2018-12-04T09:36:05Z</time>
      </trkpt>
      <trkpt lat="42.99438" lon="0.24316">
        <ele>1272</ele>
        <time>2018-12-04T09:36:08Z</time>
      </trkpt>
      <trkpt lat="42.99439" lon="0.24319">
        <ele>1272</ele>
        <time>2018-12-04T09:36:13Z</time>
      </trkpt>
      <trkpt lat="42.9944" lon="0.24322">
        <ele>1272</ele>
        <time>2018-12-04T09:36:22Z</time>
      </trkpt>
      <trkpt lat="42.99438" lon="0.24325">
        <ele>1273</ele>
        <time>2018-12-04T09:36:25Z</time>
      </trkpt>
      <trkpt lat="42.99437" lon="0.24327">
        <ele>1273</ele>
        <time>2018-12-04T09:36:28Z</time>
      </trkpt>
      <trkpt lat="42.99435" lon="0.24329">
        <ele>1273</ele>
        <time>2018-12-04T09:36:30Z</time>
      </trkpt>
      <trkpt lat="42.99434" lon="0.24331">
        <ele>1273</ele>
        <time>2018-12-04T09:36:34Z</time>
      </trkpt>
      <trkpt lat="42.99432" lon="0.24332">
        <ele>1273</ele>
        <time>2018-12-04T09:36:37Z</time>
      </trkpt>
      <trkpt lat="42.99431" lon="0.24334">
        <ele>1273</ele>
        <time>2018-12-04T09:36:39Z</time>
      </trkpt>
      <trkpt lat="42.99431" lon="0.24337">
        <ele>1274</ele>
        <time>2018-12-04T09:36:45Z</time>
      </trkpt>
      <trkpt lat="42.99431" lon="0.2434">
        <ele>1274</ele>
        <time>2018-12-04T09:36:50Z</time>
      </trkpt>
      <trkpt lat="42.99432" lon="0.24342">
        <ele>1274</ele>
        <time>2018-12-04T09:36:55Z</time>
      </trkpt>
      <trkpt lat="42.9943" lon="0.24344">
        <ele>1275</ele>
        <time>2018-12-04T09:36:58Z</time>
      </trkpt>
      <trkpt lat="42.9943" lon="0.24346">
        <ele>1275</ele>
        <time>2018-12-04T09:37:02Z</time>
      </trkpt>
      <trkpt lat="42.99428" lon="0.24349">
        <ele>1275</ele>
        <time>2018-12-04T09:37:05Z</time>
      </trkpt>
      <trkpt lat="42.99427" lon="0.2435">
        <ele>1275</ele>
        <time>2018-12-04T09:37:09Z</time>
      </trkpt>
      <trkpt lat="42.99425" lon="0.24352">
        <ele>1276</ele>
        <time>2018-12-04T09:37:13Z</time>
      </trkpt>
      <trkpt lat="42.99422" lon="0.24355">
        <ele>1276</ele>
        <time>2018-12-04T09:37:19Z</time>
      </trkpt>
      <trkpt lat="42.9942" lon="0.24356">
        <ele>1276</ele>
        <time>2018-12-04T09:37:23Z</time>
      </trkpt>
      <trkpt lat="42.99414" lon="0.24359">
        <ele>1277</ele>
        <time>2018-12-04T09:37:31Z</time>
      </trkpt>
      <trkpt lat="42.99412" lon="0.24361">
        <ele>1277</ele>
        <time>2018-12-04T09:37:41Z</time>
      </trkpt>
      <trkpt lat="42.99412" lon="0.24363">
        <ele>1277</ele>
        <time>2018-12-04T09:37:47Z</time>
      </trkpt>
      <trkpt lat="42.9941" lon="0.24364">
        <ele>1278</ele>
        <time>2018-12-04T09:37:54Z</time>
      </trkpt>
      <trkpt lat="42.99406" lon="0.24367">
        <ele>1278</ele>
        <time>2018-12-04T09:37:59Z</time>
      </trkpt>
      <trkpt lat="42.99404" lon="0.24367">
        <ele>1279</ele>
        <time>2018-12-04T09:38:02Z</time>
      </trkpt>
      <trkpt lat="42.99402" lon="0.24367">
        <ele>1279</ele>
        <time>2018-12-04T09:38:06Z</time>
      </trkpt>
      <trkpt lat="42.994" lon="0.24368">
        <ele>1279</ele>
        <time>2018-12-04T09:38:10Z</time>
      </trkpt>
      <trkpt lat="42.99398" lon="0.24369">
        <ele>1279</ele>
        <time>2018-12-04T09:38:13Z</time>
      </trkpt>
      <trkpt lat="42.99395" lon="0.24372">
        <ele>1280</ele>
        <time>2018-12-04T09:38:19Z</time>
      </trkpt>
      <trkpt lat="42.99392" lon="0.24373">
        <ele>1280</ele>
        <time>2018-12-04T09:38:26Z</time>
      </trkpt>
      <trkpt lat="42.9939" lon="0.24374">
        <ele>1280</ele>
        <time>2018-12-04T09:38:31Z</time>
      </trkpt>
      <trkpt lat="42.99385" lon="0.24376">
        <ele>1281</ele>
        <time>2018-12-04T09:38:41Z</time>
      </trkpt>
      <trkpt lat="42.99382" lon="0.24375">
        <ele>1282</ele>
        <time>2018-12-04T09:38:45Z</time>
      </trkpt>
      <trkpt lat="42.99378" lon="0.24379">
        <ele>1282</ele>
        <time>2018-12-04T09:38:54Z</time>
      </trkpt>
      <trkpt lat="42.99376" lon="0.2438">
        <ele>1282</ele>
        <time>2018-12-04T09:38:57Z</time>
      </trkpt>
      <trkpt lat="42.99374" lon="0.2438">
        <ele>1283</ele>
        <time>2018-12-04T09:38:59Z</time>
      </trkpt>
      <trkpt lat="42.99371" lon="0.2438">
        <ele>1283</ele>
        <time>2018-12-04T09:39:01Z</time>
      </trkpt>
      <trkpt lat="42.99368" lon="0.24382">
        <ele>1283</ele>
        <time>2018-12-04T09:39:09Z</time>
      </trkpt>
      <trkpt lat="42.99372" lon="0.24375">
        <ele>1285</ele>
        <time>2018-12-04T09:39:41Z</time>
      </trkpt>
      <trkpt lat="42.99368" lon="0.24374">
        <ele>1286</ele>
        <time>2018-12-04T09:40:44Z</time>
      </trkpt>
      <trkpt lat="42.99367" lon="0.24374">
        <ele>1292</ele>
        <time>2018-12-04T09:43:32Z</time>
      </trkpt>
      <trkpt lat="42.99365" lon="0.24377">
        <ele>1294</ele>
        <time>2018-12-04T09:43:51Z</time>
      </trkpt>
      <trkpt lat="42.99363" lon="0.24379">
        <ele>1295</ele>
        <time>2018-12-04T09:43:57Z</time>
      </trkpt>
      <trkpt lat="42.99361" lon="0.24379">
        <ele>1296</ele>
        <time>2018-12-04T09:44:02Z</time>
      </trkpt>
      <trkpt lat="42.99357" lon="0.24382">
        <ele>1297</ele>
        <time>2018-12-04T09:44:12Z</time>
      </trkpt>
      <trkpt lat="42.99355" lon="0.24383">
        <ele>1297</ele>
        <time>2018-12-04T09:44:15Z</time>
      </trkpt>
      <trkpt lat="42.99353" lon="0.24383">
        <ele>1297</ele>
        <time>2018-12-04T09:44:17Z</time>
      </trkpt>
      <trkpt lat="42.99347" lon="0.24384">
        <ele>1298</ele>
        <time>2018-12-04T09:44:25Z</time>
      </trkpt>
      <trkpt lat="42.99345" lon="0.24384">
        <ele>1299</ele>
        <time>2018-12-04T09:44:27Z</time>
      </trkpt>
      <trkpt lat="42.99343" lon="0.24385">
        <ele>1299</ele>
        <time>2018-12-04T09:44:30Z</time>
      </trkpt>
      <trkpt lat="42.99335" lon="0.24387">
        <ele>1300</ele>
        <time>2018-12-04T09:44:43Z</time>
      </trkpt>
      <trkpt lat="42.99333" lon="0.24387">
        <ele>1300</ele>
        <time>2018-12-04T09:44:46Z</time>
      </trkpt>
      <trkpt lat="42.99331" lon="0.24387">
        <ele>1301</ele>
        <time>2018-12-04T09:44:50Z</time>
      </trkpt>
      <trkpt lat="42.99329" lon="0.24388">
        <ele>1301</ele>
        <time>2018-12-04T09:44:53Z</time>
      </trkpt>
      <trkpt lat="42.99327" lon="0.24387">
        <ele>1301</ele>
        <time>2018-12-04T09:44:56Z</time>
      </trkpt>
      <trkpt lat="42.99322" lon="0.24389">
        <ele>1302</ele>
        <time>2018-12-04T09:45:02Z</time>
      </trkpt>
      <trkpt lat="42.9932" lon="0.24385">
        <ele>1303</ele>
        <time>2018-12-04T09:45:13Z</time>
      </trkpt>
      <trkpt lat="42.99318" lon="0.24383">
        <ele>1303</ele>
        <time>2018-12-04T09:45:17Z</time>
      </trkpt>
      <trkpt lat="42.99315" lon="0.24382">
        <ele>1303</ele>
        <time>2018-12-04T09:45:20Z</time>
      </trkpt>
      <trkpt lat="42.99305" lon="0.2438">
        <ele>1305</ele>
        <time>2018-12-04T09:45:39Z</time>
      </trkpt>
      <trkpt lat="42.99302" lon="0.2438">
        <ele>1305</ele>
        <time>2018-12-04T09:45:42Z</time>
      </trkpt>
      <trkpt lat="42.99299" lon="0.24383">
        <ele>1306</ele>
        <time>2018-12-04T09:45:50Z</time>
      </trkpt>
      <trkpt lat="42.99297" lon="0.24383">
        <ele>1306</ele>
        <time>2018-12-04T09:45:53Z</time>
      </trkpt>
      <trkpt lat="42.99296" lon="0.24382">
        <ele>1306</ele>
        <time>2018-12-04T09:45:56Z</time>
      </trkpt>
      <trkpt lat="42.99294" lon="0.24381">
        <ele>1307</ele>
        <time>2018-12-04T09:46:01Z</time>
      </trkpt>
      <trkpt lat="42.9929" lon="0.2438">
        <ele>1307</ele>
        <time>2018-12-04T09:46:12Z</time>
      </trkpt>
      <trkpt lat="42.99288" lon="0.24381">
        <ele>1308</ele>
        <time>2018-12-04T09:46:18Z</time>
      </trkpt>
      <trkpt lat="42.99288" lon="0.24379">
        <ele>1309</ele>
        <time>2018-12-04T09:47:54Z</time>
      </trkpt>
      <trkpt lat="42.99288" lon="0.24377">
        <ele>1310</ele>
        <time>2018-12-04T09:48:18Z</time>
      </trkpt>
      <trkpt lat="42.99288" lon="0.24379">
        <ele>1312</ele>
        <time>2018-12-04T09:48:51Z</time>
      </trkpt>
      <trkpt lat="42.99303" lon="0.24392">
        <ele>1316</ele>
        <time>2018-12-04T09:49:08Z</time>
      </trkpt>
      <trkpt lat="42.99305" lon="0.24393">
        <ele>1316</ele>
        <time>2018-12-04T09:49:10Z</time>
      </trkpt>
      <trkpt lat="42.99307" lon="0.24396">
        <ele>1317</ele>
        <time>2018-12-04T09:49:16Z</time>
      </trkpt>
      <trkpt lat="42.99309" lon="0.24398">
        <ele>1317</ele>
        <time>2018-12-04T09:49:18Z</time>
      </trkpt>
      <trkpt lat="42.99312" lon="0.24401">
        <ele>1318</ele>
        <time>2018-12-04T09:49:22Z</time>
      </trkpt>
      <trkpt lat="42.99314" lon="0.24404">
        <ele>1318</ele>
        <time>2018-12-04T09:49:25Z</time>
      </trkpt>
      <trkpt lat="42.99319" lon="0.24405">
        <ele>1319</ele>
        <time>2018-12-04T09:49:29Z</time>
      </trkpt>
      <trkpt lat="42.99322" lon="0.24408">
        <ele>1319</ele>
        <time>2018-12-04T09:49:37Z</time>
      </trkpt>
      <trkpt lat="42.99324" lon="0.24409">
        <ele>1320</ele>
        <time>2018-12-04T09:49:39Z</time>
      </trkpt>
      <trkpt lat="42.99337" lon="0.24417">
        <ele>1321</ele>
        <time>2018-12-04T09:49:56Z</time>
      </trkpt>
      <trkpt lat="42.99339" lon="0.24418">
        <ele>1322</ele>
        <time>2018-12-04T09:49:59Z</time>
      </trkpt>
      <trkpt lat="42.99341" lon="0.2442">
        <ele>1322</ele>
        <time>2018-12-04T09:50:01Z</time>
      </trkpt>
      <trkpt lat="42.99343" lon="0.24419">
        <ele>1322</ele>
        <time>2018-12-04T09:50:05Z</time>
      </trkpt>
      <trkpt lat="42.99363" lon="0.2443">
        <ele>1325</ele>
        <time>2018-12-04T09:50:35Z</time>
      </trkpt>
      <trkpt lat="42.99378" lon="0.24436">
        <ele>1326</ele>
        <time>2018-12-04T09:50:51Z</time>
      </trkpt>
      <trkpt lat="42.9938" lon="0.24438">
        <ele>1326</ele>
        <time>2018-12-04T09:50:55Z</time>
      </trkpt>
      <trkpt lat="42.99381" lon="0.2444">
        <ele>1327</ele>
        <time>2018-12-04T09:51:00Z</time>
      </trkpt>
      <trkpt lat="42.9938" lon="0.24443">
        <ele>1327</ele>
        <time>2018-12-04T09:51:05Z</time>
      </trkpt>
      <trkpt lat="42.9938" lon="0.24446">
        <ele>1327</ele>
        <time>2018-12-04T09:51:12Z</time>
      </trkpt>
      <trkpt lat="42.9938" lon="0.24448">
        <ele>1328</ele>
        <time>2018-12-04T09:51:15Z</time>
      </trkpt>
      <trkpt lat="42.99379" lon="0.24451">
        <ele>1328</ele>
        <time>2018-12-04T09:51:24Z</time>
      </trkpt>
      <trkpt lat="42.9938" lon="0.24454">
        <ele>1328</ele>
        <time>2018-12-04T09:51:30Z</time>
      </trkpt>
      <trkpt lat="42.99382" lon="0.24456">
        <ele>1329</ele>
        <time>2018-12-04T09:51:33Z</time>
      </trkpt>
      <trkpt lat="42.99383" lon="0.24458">
        <ele>1329</ele>
        <time>2018-12-04T09:51:38Z</time>
      </trkpt>
      <trkpt lat="42.99383" lon="0.24461">
        <ele>1329</ele>
        <time>2018-12-04T09:51:47Z</time>
      </trkpt>
      <trkpt lat="42.99381" lon="0.24462">
        <ele>1330</ele>
        <time>2018-12-04T09:51:53Z</time>
      </trkpt>
      <trkpt lat="42.99379" lon="0.24463">
        <ele>1330</ele>
        <time>2018-12-04T09:51:59Z</time>
      </trkpt>
      <trkpt lat="42.99379" lon="0.24466">
        <ele>1330</ele>
        <time>2018-12-04T09:52:02Z</time>
      </trkpt>
      <trkpt lat="42.9938" lon="0.24467">
        <ele>1331</ele>
        <time>2018-12-04T09:52:49Z</time>
      </trkpt>
      <trkpt lat="42.99382" lon="0.24468">
        <ele>1332</ele>
        <time>2018-12-04T09:52:55Z</time>
      </trkpt>
      <trkpt lat="42.99384" lon="0.2447">
        <ele>1332</ele>
        <time>2018-12-04T09:52:57Z</time>
      </trkpt>
      <trkpt lat="42.99383" lon="0.24473">
        <ele>1332</ele>
        <time>2018-12-04T09:53:01Z</time>
      </trkpt>
      <trkpt lat="42.99389" lon="0.24475">
        <ele>1333</ele>
        <time>2018-12-04T09:53:07Z</time>
      </trkpt>
      <trkpt lat="42.99392" lon="0.24479">
        <ele>1334</ele>
        <time>2018-12-04T09:53:25Z</time>
      </trkpt>
      <trkpt lat="42.99392" lon="0.24482">
        <ele>1335</ele>
        <time>2018-12-04T09:53:40Z</time>
      </trkpt>
      <trkpt lat="42.99391" lon="0.24483">
        <ele>1335</ele>
        <time>2018-12-04T09:53:42Z</time>
      </trkpt>
      <trkpt lat="42.99389" lon="0.24483">
        <ele>1335</ele>
        <time>2018-12-04T09:53:46Z</time>
      </trkpt>
      <trkpt lat="42.99387" lon="0.24485">
        <ele>1336</ele>
        <time>2018-12-04T09:53:50Z</time>
      </trkpt>
      <trkpt lat="42.99386" lon="0.24487">
        <ele>1336</ele>
        <time>2018-12-04T09:53:55Z</time>
      </trkpt>
      <trkpt lat="42.99383" lon="0.24488">
        <ele>1337</ele>
        <time>2018-12-04T09:54:04Z</time>
      </trkpt>
      <trkpt lat="42.99381" lon="0.24489">
        <ele>1337</ele>
        <time>2018-12-04T09:54:07Z</time>
      </trkpt>
      <trkpt lat="42.99379" lon="0.24489">
        <ele>1338</ele>
        <time>2018-12-04T09:54:10Z</time>
      </trkpt>
      <trkpt lat="42.99379" lon="0.24492">
        <ele>1338</ele>
        <time>2018-12-04T09:54:17Z</time>
      </trkpt>
      <trkpt lat="42.99376" lon="0.24492">
        <ele>1338</ele>
        <time>2018-12-04T09:54:25Z</time>
      </trkpt>
      <trkpt lat="42.99374" lon="0.24493">
        <ele>1339</ele>
        <time>2018-12-04T09:54:28Z</time>
      </trkpt>
      <trkpt lat="42.9937" lon="0.24486">
        <ele>1340</ele>
        <time>2018-12-04T09:54:59Z</time>
      </trkpt>
      <trkpt lat="42.99367" lon="0.24485">
        <ele>1340</ele>
        <time>2018-12-04T09:55:02Z</time>
      </trkpt>
      <trkpt lat="42.99365" lon="0.24487">
        <ele>1340</ele>
        <time>2018-12-04T09:55:11Z</time>
      </trkpt>
      <trkpt lat="42.99362" lon="0.24487">
        <ele>1341</ele>
        <time>2018-12-04T09:55:16Z</time>
      </trkpt>
      <trkpt lat="42.99354" lon="0.2449">
        <ele>1342</ele>
        <time>2018-12-04T09:55:51Z</time>
      </trkpt>
      <trkpt lat="42.99351" lon="0.24492">
        <ele>1342</ele>
        <time>2018-12-04T09:55:55Z</time>
      </trkpt>
      <trkpt lat="42.99339" lon="0.24496">
        <ele>1343</ele>
        <time>2018-12-04T09:56:15Z</time>
      </trkpt>
      <trkpt lat="42.99336" lon="0.24498">
        <ele>1343</ele>
        <time>2018-12-04T09:56:27Z</time>
      </trkpt>
      <trkpt lat="42.99337" lon="0.24503">
        <ele>1344</ele>
        <time>2018-12-04T09:56:46Z</time>
      </trkpt>
      <trkpt lat="42.99338" lon="0.24509">
        <ele>1344</ele>
        <time>2018-12-04T09:56:56Z</time>
      </trkpt>
      <trkpt lat="42.99339" lon="0.24514">
        <ele>1345</ele>
        <time>2018-12-04T09:57:25Z</time>
      </trkpt>
      <trkpt lat="42.99351" lon="0.24519">
        <ele>1347</ele>
        <time>2018-12-04T09:57:39Z</time>
      </trkpt>
      <trkpt lat="42.99355" lon="0.24522">
        <ele>1348</ele>
        <time>2018-12-04T09:57:51Z</time>
      </trkpt>
      <trkpt lat="42.99358" lon="0.24525">
        <ele>1349</ele>
        <time>2018-12-04T09:57:56Z</time>
      </trkpt>
      <trkpt lat="42.99374" lon="0.24531">
        <ele>1351</ele>
        <time>2018-12-04T09:58:15Z</time>
      </trkpt>
      <trkpt lat="42.99392" lon="0.24542">
        <ele>1354</ele>
        <time>2018-12-04T09:58:48Z</time>
      </trkpt>
      <trkpt lat="42.99396" lon="0.24544">
        <ele>1354</ele>
        <time>2018-12-04T09:58:53Z</time>
      </trkpt>
      <trkpt lat="42.99399" lon="0.24546">
        <ele>1355</ele>
        <time>2018-12-04T09:58:59Z</time>
      </trkpt>
      <trkpt lat="42.99401" lon="0.2455">
        <ele>1356</ele>
        <time>2018-12-04T09:59:07Z</time>
      </trkpt>
      <trkpt lat="42.99404" lon="0.24553">
        <ele>1356</ele>
        <time>2018-12-04T09:59:14Z</time>
      </trkpt>
      <trkpt lat="42.99407" lon="0.24557">
        <ele>1358</ele>
        <time>2018-12-04T09:59:25Z</time>
      </trkpt>
      <trkpt lat="42.99411" lon="0.24558">
        <ele>1358</ele>
        <time>2018-12-04T09:59:33Z</time>
      </trkpt>
      <trkpt lat="42.99414" lon="0.24561">
        <ele>1359</ele>
        <time>2018-12-04T09:59:42Z</time>
      </trkpt>
      <trkpt lat="42.99417" lon="0.24565">
        <ele>1360</ele>
        <time>2018-12-04T09:59:52Z</time>
      </trkpt>
      <trkpt lat="42.99421" lon="0.24566">
        <ele>1362</ele>
        <time>2018-12-04T10:00:08Z</time>
      </trkpt>
      <trkpt lat="42.99424" lon="0.24569">
        <ele>1363</ele>
        <time>2018-12-04T10:00:22Z</time>
      </trkpt>
      <trkpt lat="42.99426" lon="0.24573">
        <ele>1364</ele>
        <time>2018-12-04T10:00:27Z</time>
      </trkpt>
      <trkpt lat="42.99422" lon="0.24577">
        <ele>1365</ele>
        <time>2018-12-04T10:00:41Z</time>
      </trkpt>
      <trkpt lat="42.99419" lon="0.24578">
        <ele>1366</ele>
        <time>2018-12-04T10:00:50Z</time>
      </trkpt>
      <trkpt lat="42.99415" lon="0.24581">
        <ele>1367</ele>
        <time>2018-12-04T10:01:01Z</time>
      </trkpt>
      <trkpt lat="42.99413" lon="0.24586">
        <ele>1368</ele>
        <time>2018-12-04T10:01:08Z</time>
      </trkpt>
      <trkpt lat="42.99411" lon="0.24591">
        <ele>1368</ele>
        <time>2018-12-04T10:01:13Z</time>
      </trkpt>
      <trkpt lat="42.99404" lon="0.24595">
        <ele>1369</ele>
        <time>2018-12-04T10:01:29Z</time>
      </trkpt>
      <trkpt lat="42.994" lon="0.24596">
        <ele>1370</ele>
        <time>2018-12-04T10:01:34Z</time>
      </trkpt>
      <trkpt lat="42.99392" lon="0.24598">
        <ele>1372</ele>
        <time>2018-12-04T10:01:54Z</time>
      </trkpt>
      <trkpt lat="42.99385" lon="0.24602">
        <ele>1373</ele>
        <time>2018-12-04T10:02:05Z</time>
      </trkpt>
      <trkpt lat="42.99369" lon="0.24602">
        <ele>1375</ele>
        <time>2018-12-04T10:02:30Z</time>
      </trkpt>
      <trkpt lat="42.99366" lon="0.24605">
        <ele>1376</ele>
        <time>2018-12-04T10:02:40Z</time>
      </trkpt>
      <trkpt lat="42.99358" lon="0.24607">
        <ele>1378</ele>
        <time>2018-12-04T10:02:53Z</time>
      </trkpt>
      <trkpt lat="42.99355" lon="0.24611">
        <ele>1379</ele>
        <time>2018-12-04T10:02:59Z</time>
      </trkpt>
      <trkpt lat="42.99352" lon="0.24613">
        <ele>1380</ele>
        <time>2018-12-04T10:03:08Z</time>
      </trkpt>
      <trkpt lat="42.99342" lon="0.24614">
        <ele>1381</ele>
        <time>2018-12-04T10:03:20Z</time>
      </trkpt>
      <trkpt lat="42.99335" lon="0.24617">
        <ele>1383</ele>
        <time>2018-12-04T10:03:43Z</time>
      </trkpt>
      <trkpt lat="42.9933" lon="0.24619">
        <ele>1384</ele>
        <time>2018-12-04T10:03:51Z</time>
      </trkpt>
      <trkpt lat="42.99323" lon="0.24621">
        <ele>1385</ele>
        <time>2018-12-04T10:04:01Z</time>
      </trkpt>
      <trkpt lat="42.9932" lon="0.24624">
        <ele>1386</ele>
        <time>2018-12-04T10:04:07Z</time>
      </trkpt>
      <trkpt lat="42.99316" lon="0.24624">
        <ele>1386</ele>
        <time>2018-12-04T10:04:11Z</time>
      </trkpt>
      <trkpt lat="42.99313" lon="0.24626">
        <ele>1387</ele>
        <time>2018-12-04T10:04:16Z</time>
      </trkpt>
      <trkpt lat="42.99309" lon="0.24625">
        <ele>1387</ele>
        <time>2018-12-04T10:04:20Z</time>
      </trkpt>
      <trkpt lat="42.99301" lon="0.24626">
        <ele>1389</ele>
        <time>2018-12-04T10:04:32Z</time>
      </trkpt>
      <trkpt lat="42.99297" lon="0.24627">
        <ele>1390</ele>
        <time>2018-12-04T10:04:54Z</time>
      </trkpt>
      <trkpt lat="42.99294" lon="0.2463">
        <ele>1391</ele>
        <time>2018-12-04T10:04:57Z</time>
      </trkpt>
      <trkpt lat="42.99293" lon="0.24635">
        <ele>1392</ele>
        <time>2018-12-04T10:05:01Z</time>
      </trkpt>
      <trkpt lat="42.9929" lon="0.24639">
        <ele>1392</ele>
        <time>2018-12-04T10:05:06Z</time>
      </trkpt>
      <trkpt lat="42.99286" lon="0.24639">
        <ele>1394</ele>
        <time>2018-12-04T10:05:37Z</time>
      </trkpt>
      <trkpt lat="42.99283" lon="0.24637">
        <ele>1394</ele>
        <time>2018-12-04T10:05:41Z</time>
      </trkpt>
      <trkpt lat="42.99281" lon="0.24634">
        <ele>1397</ele>
        <time>2018-12-04T10:07:25Z</time>
      </trkpt>
      <trkpt lat="42.99277" lon="0.24635">
        <ele>1397</ele>
        <time>2018-12-04T10:07:52Z</time>
      </trkpt>
      <trkpt lat="42.99274" lon="0.24636">
        <ele>1400</ele>
        <time>2018-12-04T10:08:00Z</time>
      </trkpt>
      <trkpt lat="42.99266" lon="0.24639">
        <ele>1404</ele>
        <time>2018-12-04T10:08:10Z</time>
      </trkpt>
      <trkpt lat="42.99262" lon="0.24639">
        <ele>1405</ele>
        <time>2018-12-04T10:08:15Z</time>
      </trkpt>
      <trkpt lat="42.99245" lon="0.24638">
        <ele>1408</ele>
        <time>2018-12-04T10:08:31Z</time>
      </trkpt>
      <trkpt lat="42.99242" lon="0.24637">
        <ele>1408</ele>
        <time>2018-12-04T10:08:36Z</time>
      </trkpt>
      <trkpt lat="42.99237" lon="0.24637">
        <ele>1409</ele>
        <time>2018-12-04T10:08:42Z</time>
      </trkpt>
      <trkpt lat="42.99234" lon="0.24638">
        <ele>1410</ele>
        <time>2018-12-04T10:08:46Z</time>
      </trkpt>
      <trkpt lat="42.99231" lon="0.24639">
        <ele>1411</ele>
        <time>2018-12-04T10:08:52Z</time>
      </trkpt>
      <trkpt lat="42.99228" lon="0.24638">
        <ele>1411</ele>
        <time>2018-12-04T10:08:56Z</time>
      </trkpt>
      <trkpt lat="42.99225" lon="0.24638">
        <ele>1412</ele>
        <time>2018-12-04T10:09:00Z</time>
      </trkpt>
      <trkpt lat="42.99211" lon="0.24641">
        <ele>1415</ele>
        <time>2018-12-04T10:09:19Z</time>
      </trkpt>
      <trkpt lat="42.99208" lon="0.2464">
        <ele>1415</ele>
        <time>2018-12-04T10:09:23Z</time>
      </trkpt>
      <trkpt lat="42.99204" lon="0.24641">
        <ele>1416</ele>
        <time>2018-12-04T10:09:28Z</time>
      </trkpt>
      <trkpt lat="42.99201" lon="0.24642">
        <ele>1416</ele>
        <time>2018-12-04T10:09:29Z</time>
      </trkpt>
      <trkpt lat="42.99195" lon="0.24646">
        <ele>1417</ele>
        <time>2018-12-04T10:09:36Z</time>
      </trkpt>
      <trkpt lat="42.99193" lon="0.24644">
        <ele>1418</ele>
        <time>2018-12-04T10:10:23Z</time>
      </trkpt>
      <trkpt lat="42.9919" lon="0.24644">
        <ele>1419</ele>
        <time>2018-12-04T10:10:30Z</time>
      </trkpt>
      <trkpt lat="42.99188" lon="0.24643">
        <ele>1421</ele>
        <time>2018-12-04T10:11:20Z</time>
      </trkpt>
      <trkpt lat="42.99182" lon="0.24644">
        <ele>1423</ele>
        <time>2018-12-04T10:11:30Z</time>
      </trkpt>
      <trkpt lat="42.99176" lon="0.24647">
        <ele>1424</ele>
        <time>2018-12-04T10:11:34Z</time>
      </trkpt>
      <trkpt lat="42.99172" lon="0.24648">
        <ele>1424</ele>
        <time>2018-12-04T10:11:37Z</time>
      </trkpt>
      <trkpt lat="42.99157" lon="0.24658">
        <ele>1427</ele>
        <time>2018-12-04T10:11:53Z</time>
      </trkpt>
      <trkpt lat="42.99151" lon="0.24665">
        <ele>1428</ele>
        <time>2018-12-04T10:12:00Z</time>
      </trkpt>
      <trkpt lat="42.99142" lon="0.24672">
        <ele>1429</ele>
        <time>2018-12-04T10:12:09Z</time>
      </trkpt>
      <trkpt lat="42.99132" lon="0.24684">
        <ele>1430</ele>
        <time>2018-12-04T10:12:21Z</time>
      </trkpt>
      <trkpt lat="42.9913" lon="0.24685">
        <ele>1431</ele>
        <time>2018-12-04T10:12:25Z</time>
      </trkpt>
      <trkpt lat="42.99127" lon="0.24687">
        <ele>1431</ele>
        <time>2018-12-04T10:12:28Z</time>
      </trkpt>
      <trkpt lat="42.99125" lon="0.24691">
        <ele>1431</ele>
        <time>2018-12-04T10:12:32Z</time>
      </trkpt>
      <trkpt lat="42.99123" lon="0.24694">
        <ele>1432</ele>
        <time>2018-12-04T10:12:35Z</time>
      </trkpt>
      <trkpt lat="42.99118" lon="0.24698">
        <ele>1432</ele>
        <time>2018-12-04T10:12:39Z</time>
      </trkpt>
      <trkpt lat="42.99115" lon="0.24699">
        <ele>1432</ele>
        <time>2018-12-04T10:12:41Z</time>
      </trkpt>
      <trkpt lat="42.99113" lon="0.24702">
        <ele>1432</ele>
        <time>2018-12-04T10:12:44Z</time>
      </trkpt>
      <trkpt lat="42.99109" lon="0.24704">
        <ele>1433</ele>
        <time>2018-12-04T10:12:47Z</time>
      </trkpt>
      <trkpt lat="42.99107" lon="0.24706">
        <ele>1433</ele>
        <time>2018-12-04T10:12:51Z</time>
      </trkpt>
      <trkpt lat="42.99101" lon="0.24712">
        <ele>1433</ele>
        <time>2018-12-04T10:12:57Z</time>
      </trkpt>
      <trkpt lat="42.99094" lon="0.24721">
        <ele>1434</ele>
        <time>2018-12-04T10:13:05Z</time>
      </trkpt>
      <trkpt lat="42.9909" lon="0.24726">
        <ele>1434</ele>
        <time>2018-12-04T10:13:10Z</time>
      </trkpt>
      <trkpt lat="42.99088" lon="0.24728">
        <ele>1434</ele>
        <time>2018-12-04T10:13:29Z</time>
      </trkpt>
      <trkpt lat="42.99085" lon="0.24732">
        <ele>1434</ele>
        <time>2018-12-04T10:14:09Z</time>
      </trkpt>
      <trkpt lat="42.99066" lon="0.2475">
        <ele>1436</ele>
        <time>2018-12-04T10:14:28Z</time>
      </trkpt>
      <trkpt lat="42.99063" lon="0.24754">
        <ele>1436</ele>
        <time>2018-12-04T10:14:32Z</time>
      </trkpt>
      <trkpt lat="42.99054" lon="0.24764">
        <ele>1436</ele>
        <time>2018-12-04T10:14:41Z</time>
      </trkpt>
      <trkpt lat="42.99051" lon="0.24768">
        <ele>1436</ele>
        <time>2018-12-04T10:14:45Z</time>
      </trkpt>
      <trkpt lat="42.99048" lon="0.24769">
        <ele>1436</ele>
        <time>2018-12-04T10:14:52Z</time>
      </trkpt>
      <trkpt lat="42.99049" lon="0.2477">
        <ele>1437</ele>
        <time>2018-12-04T10:18:15Z</time>
      </trkpt>
      <trkpt lat="42.99035" lon="0.24779">
        <ele>1439</ele>
        <time>2018-12-04T10:18:38Z</time>
      </trkpt>
      <trkpt lat="42.99033" lon="0.2478">
        <ele>1439</ele>
        <time>2018-12-04T10:18:40Z</time>
      </trkpt>
      <trkpt lat="42.99032" lon="0.24782">
        <ele>1439</ele>
        <time>2018-12-04T10:18:44Z</time>
      </trkpt>
      <trkpt lat="42.9903" lon="0.24784">
        <ele>1439</ele>
        <time>2018-12-04T10:18:48Z</time>
      </trkpt>
      <trkpt lat="42.99028" lon="0.24785">
        <ele>1439</ele>
        <time>2018-12-04T10:18:50Z</time>
      </trkpt>
      <trkpt lat="42.99015" lon="0.24792">
        <ele>1440</ele>
        <time>2018-12-04T10:19:19Z</time>
      </trkpt>
      <trkpt lat="42.99014" lon="0.24795">
        <ele>1440</ele>
        <time>2018-12-04T10:19:25Z</time>
      </trkpt>
      <trkpt lat="42.99011" lon="0.24796">
        <ele>1441</ele>
        <time>2018-12-04T10:19:30Z</time>
      </trkpt>
      <trkpt lat="42.99009" lon="0.24797">
        <ele>1441</ele>
        <time>2018-12-04T10:19:32Z</time>
      </trkpt>
      <trkpt lat="42.99008" lon="0.24798">
        <ele>1441</ele>
        <time>2018-12-04T10:19:35Z</time>
      </trkpt>
      <trkpt lat="42.99006" lon="0.24798">
        <ele>1441</ele>
        <time>2018-12-04T10:19:37Z</time>
      </trkpt>
      <trkpt lat="42.99004" lon="0.248">
        <ele>1441</ele>
        <time>2018-12-04T10:19:41Z</time>
      </trkpt>
      <trkpt lat="42.99002" lon="0.24802">
        <ele>1441</ele>
        <time>2018-12-04T10:19:45Z</time>
      </trkpt>
      <trkpt lat="42.99001" lon="0.24804">
        <ele>1441</ele>
        <time>2018-12-04T10:19:50Z</time>
      </trkpt>
      <trkpt lat="42.98995" lon="0.2481">
        <ele>1442</ele>
        <time>2018-12-04T10:20:00Z</time>
      </trkpt>
      <trkpt lat="42.98992" lon="0.24813">
        <ele>1442</ele>
        <time>2018-12-04T10:20:05Z</time>
      </trkpt>
      <trkpt lat="42.9899" lon="0.24814">
        <ele>1442</ele>
        <time>2018-12-04T10:20:08Z</time>
      </trkpt>
      <trkpt lat="42.98983" lon="0.24822">
        <ele>1443</ele>
        <time>2018-12-04T10:20:24Z</time>
      </trkpt>
      <trkpt lat="42.98981" lon="0.24824">
        <ele>1443</ele>
        <time>2018-12-04T10:20:26Z</time>
      </trkpt>
      <trkpt lat="42.9898" lon="0.24826">
        <ele>1443</ele>
        <time>2018-12-04T10:20:31Z</time>
      </trkpt>
      <trkpt lat="42.98977" lon="0.2483">
        <ele>1444</ele>
        <time>2018-12-04T10:20:37Z</time>
      </trkpt>
      <trkpt lat="42.98974" lon="0.24836">
        <ele>1444</ele>
        <time>2018-12-04T10:20:44Z</time>
      </trkpt>
      <trkpt lat="42.9897" lon="0.24839">
        <ele>1444</ele>
        <time>2018-12-04T10:20:51Z</time>
      </trkpt>
      <trkpt lat="42.98968" lon="0.24841">
        <ele>1445</ele>
        <time>2018-12-04T10:20:54Z</time>
      </trkpt>
      <trkpt lat="42.98966" lon="0.24845">
        <ele>1445</ele>
        <time>2018-12-04T10:21:00Z</time>
      </trkpt>
      <trkpt lat="42.98964" lon="0.24846">
        <ele>1445</ele>
        <time>2018-12-04T10:21:03Z</time>
      </trkpt>
      <trkpt lat="42.98961" lon="0.24847">
        <ele>1445</ele>
        <time>2018-12-04T10:21:06Z</time>
      </trkpt>
      <trkpt lat="42.9896" lon="0.24849">
        <ele>1445</ele>
        <time>2018-12-04T10:21:08Z</time>
      </trkpt>
      <trkpt lat="42.98947" lon="0.24862">
        <ele>1447</ele>
        <time>2018-12-04T10:21:32Z</time>
      </trkpt>
      <trkpt lat="42.98945" lon="0.24864">
        <ele>1447</ele>
        <time>2018-12-04T10:21:34Z</time>
      </trkpt>
      <trkpt lat="42.98943" lon="0.24869">
        <ele>1448</ele>
        <time>2018-12-04T10:21:39Z</time>
      </trkpt>
      <trkpt lat="42.98942" lon="0.24871">
        <ele>1448</ele>
        <time>2018-12-04T10:21:46Z</time>
      </trkpt>
      <trkpt lat="42.98941" lon="0.24874">
        <ele>1448</ele>
        <time>2018-12-04T10:21:55Z</time>
      </trkpt>
      <trkpt lat="42.98937" lon="0.24879">
        <ele>1449</ele>
        <time>2018-12-04T10:22:02Z</time>
      </trkpt>
      <trkpt lat="42.98933" lon="0.2488">
        <ele>1449</ele>
        <time>2018-12-04T10:22:06Z</time>
      </trkpt>
      <trkpt lat="42.98933" lon="0.24882">
        <ele>1449</ele>
        <time>2018-12-04T10:22:11Z</time>
      </trkpt>
      <trkpt lat="42.98929" lon="0.24885">
        <ele>1450</ele>
        <time>2018-12-04T10:22:22Z</time>
      </trkpt>
      <trkpt lat="42.98927" lon="0.24887">
        <ele>1450</ele>
        <time>2018-12-04T10:22:25Z</time>
      </trkpt>
      <trkpt lat="42.98921" lon="0.24899">
        <ele>1452</ele>
        <time>2018-12-04T10:22:42Z</time>
      </trkpt>
      <trkpt lat="42.98919" lon="0.24901">
        <ele>1452</ele>
        <time>2018-12-04T10:22:46Z</time>
      </trkpt>
      <trkpt lat="42.98917" lon="0.24902">
        <ele>1452</ele>
        <time>2018-12-04T10:22:48Z</time>
      </trkpt>
      <trkpt lat="42.98914" lon="0.24907">
        <ele>1453</ele>
        <time>2018-12-04T10:22:54Z</time>
      </trkpt>
      <trkpt lat="42.98911" lon="0.24911">
        <ele>1453</ele>
        <time>2018-12-04T10:23:01Z</time>
      </trkpt>
      <trkpt lat="42.98909" lon="0.24912">
        <ele>1454</ele>
        <time>2018-12-04T10:23:07Z</time>
      </trkpt>
      <trkpt lat="42.98904" lon="0.24912">
        <ele>1454</ele>
        <time>2018-12-04T10:23:12Z</time>
      </trkpt>
      <trkpt lat="42.989" lon="0.24913">
        <ele>1455</ele>
        <time>2018-12-04T10:23:21Z</time>
      </trkpt>
      <trkpt lat="42.98898" lon="0.24914">
        <ele>1455</ele>
        <time>2018-12-04T10:23:26Z</time>
      </trkpt>
      <trkpt lat="42.98887" lon="0.24914">
        <ele>1456</ele>
        <time>2018-12-04T10:23:37Z</time>
      </trkpt>
      <trkpt lat="42.98885" lon="0.24916">
        <ele>1456</ele>
        <time>2018-12-04T10:23:40Z</time>
      </trkpt>
      <trkpt lat="42.98881" lon="0.24917">
        <ele>1456</ele>
        <time>2018-12-04T10:23:44Z</time>
      </trkpt>
      <trkpt lat="42.98879" lon="0.24917">
        <ele>1457</ele>
        <time>2018-12-04T10:23:47Z</time>
      </trkpt>
      <trkpt lat="42.98876" lon="0.24918">
        <ele>1457</ele>
        <time>2018-12-04T10:23:58Z</time>
      </trkpt>
      <trkpt lat="42.9887" lon="0.24918">
        <ele>1458</ele>
        <time>2018-12-04T10:24:02Z</time>
      </trkpt>
      <trkpt lat="42.98867" lon="0.24918">
        <ele>1458</ele>
        <time>2018-12-04T10:24:04Z</time>
      </trkpt>
      <trkpt lat="42.98864" lon="0.24919">
        <ele>1458</ele>
        <time>2018-12-04T10:24:06Z</time>
      </trkpt>
      <trkpt lat="42.98863" lon="0.24917">
        <ele>1459</ele>
        <time>2018-12-04T10:24:11Z</time>
      </trkpt>
      <trkpt lat="42.98861" lon="0.24916">
        <ele>1459</ele>
        <time>2018-12-04T10:24:13Z</time>
      </trkpt>
      <trkpt lat="42.98859" lon="0.24915">
        <ele>1459</ele>
        <time>2018-12-04T10:24:15Z</time>
      </trkpt>
      <trkpt lat="42.98858" lon="0.24913">
        <ele>1459</ele>
        <time>2018-12-04T10:24:17Z</time>
      </trkpt>
      <trkpt lat="42.98856" lon="0.24911">
        <ele>1459</ele>
        <time>2018-12-04T10:24:21Z</time>
      </trkpt>
      <trkpt lat="42.98854" lon="0.24911">
        <ele>1460</ele>
        <time>2018-12-04T10:24:26Z</time>
      </trkpt>
      <trkpt lat="42.98852" lon="0.24913">
        <ele>1460</ele>
        <time>2018-12-04T10:24:28Z</time>
      </trkpt>
      <trkpt lat="42.98851" lon="0.24915">
        <ele>1460</ele>
        <time>2018-12-04T10:24:33Z</time>
      </trkpt>
      <trkpt lat="42.98847" lon="0.24916">
        <ele>1460</ele>
        <time>2018-12-04T10:24:40Z</time>
      </trkpt>
      <trkpt lat="42.98845" lon="0.24917">
        <ele>1461</ele>
        <time>2018-12-04T10:24:44Z</time>
      </trkpt>
      <trkpt lat="42.98843" lon="0.24918">
        <ele>1461</ele>
        <time>2018-12-04T10:24:51Z</time>
      </trkpt>
      <trkpt lat="42.98841" lon="0.24917">
        <ele>1461</ele>
        <time>2018-12-04T10:24:53Z</time>
      </trkpt>
      <trkpt lat="42.98838" lon="0.24918">
        <ele>1461</ele>
        <time>2018-12-04T10:24:59Z</time>
      </trkpt>
      <trkpt lat="42.98835" lon="0.24918">
        <ele>1462</ele>
        <time>2018-12-04T10:25:01Z</time>
      </trkpt>
      <trkpt lat="42.9883" lon="0.24919">
        <ele>1462</ele>
        <time>2018-12-04T10:25:08Z</time>
      </trkpt>
      <trkpt lat="42.98826" lon="0.24921">
        <ele>1462</ele>
        <time>2018-12-04T10:25:15Z</time>
      </trkpt>
      <trkpt lat="42.98824" lon="0.24922">
        <ele>1463</ele>
        <time>2018-12-04T10:25:18Z</time>
      </trkpt>
      <trkpt lat="42.98821" lon="0.24922">
        <ele>1463</ele>
        <time>2018-12-04T10:25:21Z</time>
      </trkpt>
      <trkpt lat="42.98817" lon="0.24923">
        <ele>1463</ele>
        <time>2018-12-04T10:25:25Z</time>
      </trkpt>
      <trkpt lat="42.98815" lon="0.24923">
        <ele>1463</ele>
        <time>2018-12-04T10:25:29Z</time>
      </trkpt>
      <trkpt lat="42.98813" lon="0.24924">
        <ele>1463</ele>
        <time>2018-12-04T10:25:31Z</time>
      </trkpt>
      <trkpt lat="42.98809" lon="0.24926">
        <ele>1464</ele>
        <time>2018-12-04T10:25:37Z</time>
      </trkpt>
      <trkpt lat="42.98807" lon="0.24929">
        <ele>1464</ele>
        <time>2018-12-04T10:25:40Z</time>
      </trkpt>
      <trkpt lat="42.98806" lon="0.24931">
        <ele>1464</ele>
        <time>2018-12-04T10:25:45Z</time>
      </trkpt>
      <trkpt lat="42.98805" lon="0.24933">
        <ele>1464</ele>
        <time>2018-12-04T10:25:47Z</time>
      </trkpt>
      <trkpt lat="42.98803" lon="0.24932">
        <ele>1464</ele>
        <time>2018-12-04T10:25:53Z</time>
      </trkpt>
      <trkpt lat="42.98801" lon="0.24932">
        <ele>1464</ele>
        <time>2018-12-04T10:25:57Z</time>
      </trkpt>
      <trkpt lat="42.988" lon="0.24934">
        <ele>1465</ele>
        <time>2018-12-04T10:26:02Z</time>
      </trkpt>
      <trkpt lat="42.98798" lon="0.24936">
        <ele>1465</ele>
        <time>2018-12-04T10:26:09Z</time>
      </trkpt>
      <trkpt lat="42.98794" lon="0.2494">
        <ele>1465</ele>
        <time>2018-12-04T10:26:16Z</time>
      </trkpt>
      <trkpt lat="42.98791" lon="0.2494">
        <ele>1465</ele>
        <time>2018-12-04T10:26:18Z</time>
      </trkpt>
      <trkpt lat="42.98789" lon="0.24941">
        <ele>1465</ele>
        <time>2018-12-04T10:26:20Z</time>
      </trkpt>
      <trkpt lat="42.98787" lon="0.24941">
        <ele>1465</ele>
        <time>2018-12-04T10:26:22Z</time>
      </trkpt>
      <trkpt lat="42.98785" lon="0.24944">
        <ele>1465</ele>
        <time>2018-12-04T10:26:24Z</time>
      </trkpt>
      <trkpt lat="42.98783" lon="0.24946">
        <ele>1466</ele>
        <time>2018-12-04T10:26:27Z</time>
      </trkpt>
      <trkpt lat="42.98781" lon="0.24946">
        <ele>1466</ele>
        <time>2018-12-04T10:26:29Z</time>
      </trkpt>
      <trkpt lat="42.9878" lon="0.24949">
        <ele>1466</ele>
        <time>2018-12-04T10:26:32Z</time>
      </trkpt>
      <trkpt lat="42.98777" lon="0.24951">
        <ele>1466</ele>
        <time>2018-12-04T10:26:36Z</time>
      </trkpt>
      <trkpt lat="42.98775" lon="0.24952">
        <ele>1466</ele>
        <time>2018-12-04T10:26:42Z</time>
      </trkpt>
      <trkpt lat="42.98773" lon="0.24954">
        <ele>1466</ele>
        <time>2018-12-04T10:26:47Z</time>
      </trkpt>
      <trkpt lat="42.98771" lon="0.2496">
        <ele>1467</ele>
        <time>2018-12-04T10:26:56Z</time>
      </trkpt>
      <trkpt lat="42.98767" lon="0.2497">
        <ele>1467</ele>
        <time>2018-12-04T10:27:10Z</time>
      </trkpt>
      <trkpt lat="42.98763" lon="0.24974">
        <ele>1468</ele>
        <time>2018-12-04T10:27:19Z</time>
      </trkpt>
      <trkpt lat="42.98763" lon="0.24977">
        <ele>1468</ele>
        <time>2018-12-04T10:27:22Z</time>
      </trkpt>
      <trkpt lat="42.98762" lon="0.2498">
        <ele>1468</ele>
        <time>2018-12-04T10:27:25Z</time>
      </trkpt>
      <trkpt lat="42.98761" lon="0.24982">
        <ele>1468</ele>
        <time>2018-12-04T10:27:28Z</time>
      </trkpt>
      <trkpt lat="42.98761" lon="0.24989">
        <ele>1468</ele>
        <time>2018-12-04T10:27:32Z</time>
      </trkpt>
      <trkpt lat="42.9876" lon="0.24991">
        <ele>1468</ele>
        <time>2018-12-04T10:27:36Z</time>
      </trkpt>
      <trkpt lat="42.9876" lon="0.24994">
        <ele>1468</ele>
        <time>2018-12-04T10:27:38Z</time>
      </trkpt>
      <trkpt lat="42.9876" lon="0.24997">
        <ele>1468</ele>
        <time>2018-12-04T10:27:40Z</time>
      </trkpt>
      <trkpt lat="42.98758" lon="0.25">
        <ele>1469</ele>
        <time>2018-12-04T10:27:43Z</time>
      </trkpt>
      <trkpt lat="42.98756" lon="0.25001">
        <ele>1469</ele>
        <time>2018-12-04T10:27:45Z</time>
      </trkpt>
      <trkpt lat="42.98753" lon="0.25">
        <ele>1469</ele>
        <time>2018-12-04T10:27:50Z</time>
      </trkpt>
      <trkpt lat="42.98751" lon="0.25001">
        <ele>1469</ele>
        <time>2018-12-04T10:27:52Z</time>
      </trkpt>
      <trkpt lat="42.98744" lon="0.2501">
        <ele>1469</ele>
        <time>2018-12-04T10:28:09Z</time>
      </trkpt>
      <trkpt lat="42.98742" lon="0.2501">
        <ele>1470</ele>
        <time>2018-12-04T10:28:13Z</time>
      </trkpt>
      <trkpt lat="42.98738" lon="0.25014">
        <ele>1470</ele>
        <time>2018-12-04T10:28:23Z</time>
      </trkpt>
      <trkpt lat="42.98736" lon="0.25016">
        <ele>1470</ele>
        <time>2018-12-04T10:28:26Z</time>
      </trkpt>
      <trkpt lat="42.98731" lon="0.25019">
        <ele>1470</ele>
        <time>2018-12-04T10:28:31Z</time>
      </trkpt>
      <trkpt lat="42.98727" lon="0.25019">
        <ele>1470</ele>
        <time>2018-12-04T10:28:37Z</time>
      </trkpt>
      <trkpt lat="42.98719" lon="0.25014">
        <ele>1471</ele>
        <time>2018-12-04T10:28:44Z</time>
      </trkpt>
      <trkpt lat="42.98717" lon="0.25016">
        <ele>1471</ele>
        <time>2018-12-04T10:28:49Z</time>
      </trkpt>
      <trkpt lat="42.98714" lon="0.25016">
        <ele>1471</ele>
        <time>2018-12-04T10:29:16Z</time>
      </trkpt>
      <trkpt lat="42.98712" lon="0.25015">
        <ele>1471</ele>
        <time>2018-12-04T10:29:18Z</time>
      </trkpt>
      <trkpt lat="42.9871" lon="0.25016">
        <ele>1471</ele>
        <time>2018-12-04T10:29:21Z</time>
      </trkpt>
      <trkpt lat="42.98709" lon="0.25019">
        <ele>1472</ele>
        <time>2018-12-04T10:29:24Z</time>
      </trkpt>
      <trkpt lat="42.98702" lon="0.25027">
        <ele>1472</ele>
        <time>2018-12-04T10:29:37Z</time>
      </trkpt>
      <trkpt lat="42.98701" lon="0.2503">
        <ele>1472</ele>
        <time>2018-12-04T10:29:42Z</time>
      </trkpt>
      <trkpt lat="42.98699" lon="0.25032">
        <ele>1472</ele>
        <time>2018-12-04T10:29:45Z</time>
      </trkpt>
      <trkpt lat="42.98697" lon="0.25034">
        <ele>1473</ele>
        <time>2018-12-04T10:29:49Z</time>
      </trkpt>
      <trkpt lat="42.98695" lon="0.25037">
        <ele>1473</ele>
        <time>2018-12-04T10:29:52Z</time>
      </trkpt>
      <trkpt lat="42.98694" lon="0.25038">
        <ele>1473</ele>
        <time>2018-12-04T10:29:56Z</time>
      </trkpt>
      <trkpt lat="42.98693" lon="0.25044">
        <ele>1473</ele>
        <time>2018-12-04T10:30:41Z</time>
      </trkpt>
      <trkpt lat="42.98691" lon="0.25048">
        <ele>1473</ele>
        <time>2018-12-04T10:31:20Z</time>
      </trkpt>
      <trkpt lat="42.98688" lon="0.25051">
        <ele>1474</ele>
        <time>2018-12-04T10:31:29Z</time>
      </trkpt>
      <trkpt lat="42.98686" lon="0.25056">
        <ele>1474</ele>
        <time>2018-12-04T10:31:32Z</time>
      </trkpt>
      <trkpt lat="42.98683" lon="0.25061">
        <ele>1474</ele>
        <time>2018-12-04T10:31:36Z</time>
      </trkpt>
      <trkpt lat="42.98676" lon="0.25066">
        <ele>1474</ele>
        <time>2018-12-04T10:32:00Z</time>
      </trkpt>
      <trkpt lat="42.98673" lon="0.2507">
        <ele>1474</ele>
        <time>2018-12-04T10:32:03Z</time>
      </trkpt>
      <trkpt lat="42.9867" lon="0.25072">
        <ele>1474</ele>
        <time>2018-12-04T10:32:07Z</time>
      </trkpt>
      <trkpt lat="42.98667" lon="0.25075">
        <ele>1474</ele>
        <time>2018-12-04T10:32:11Z</time>
      </trkpt>
      <trkpt lat="42.98658" lon="0.25088">
        <ele>1474</ele>
        <time>2018-12-04T10:32:22Z</time>
      </trkpt>
      <trkpt lat="42.98652" lon="0.25094">
        <ele>1474</ele>
        <time>2018-12-04T10:32:33Z</time>
      </trkpt>
      <trkpt lat="42.98645" lon="0.251">
        <ele>1475</ele>
        <time>2018-12-04T10:32:55Z</time>
      </trkpt>
      <trkpt lat="42.9864" lon="0.25104">
        <ele>1475</ele>
        <time>2018-12-04T10:33:01Z</time>
      </trkpt>
      <trkpt lat="42.98636" lon="0.25103">
        <ele>1475</ele>
        <time>2018-12-04T10:33:50Z</time>
      </trkpt>
      <trkpt lat="42.98624" lon="0.25107">
        <ele>1475</ele>
        <time>2018-12-04T10:34:03Z</time>
      </trkpt>
      <trkpt lat="42.98611" lon="0.25112">
        <ele>1475</ele>
        <time>2018-12-04T10:35:45Z</time>
      </trkpt>
      <trkpt lat="42.98607" lon="0.25123">
        <ele>1475</ele>
        <time>2018-12-04T10:35:56Z</time>
      </trkpt>
      <trkpt lat="42.98606" lon="0.25128">
        <ele>1476</ele>
        <time>2018-12-04T10:36:04Z</time>
      </trkpt>
      <trkpt lat="42.98606" lon="0.25139">
        <ele>1476</ele>
        <time>2018-12-04T10:36:18Z</time>
      </trkpt>
      <trkpt lat="42.98603" lon="0.25149">
        <ele>1476</ele>
        <time>2018-12-04T10:36:49Z</time>
      </trkpt>
      <trkpt lat="42.98601" lon="0.25154">
        <ele>1476</ele>
        <time>2018-12-04T10:36:59Z</time>
      </trkpt>
      <trkpt lat="42.986" lon="0.25166">
        <ele>1477</ele>
        <time>2018-12-04T10:37:14Z</time>
      </trkpt>
      <trkpt lat="42.98598" lon="0.25171">
        <ele>1477</ele>
        <time>2018-12-04T10:37:21Z</time>
      </trkpt>
      <trkpt lat="42.98597" lon="0.25176">
        <ele>1477</ele>
        <time>2018-12-04T10:37:24Z</time>
      </trkpt>
      <trkpt lat="42.98593" lon="0.25179">
        <ele>1477</ele>
        <time>2018-12-04T10:37:33Z</time>
      </trkpt>
      <trkpt lat="42.9859" lon="0.25181">
        <ele>1477</ele>
        <time>2018-12-04T10:37:38Z</time>
      </trkpt>
      <trkpt lat="42.98587" lon="0.25185">
        <ele>1477</ele>
        <time>2018-12-04T10:37:48Z</time>
      </trkpt>
      <trkpt lat="42.98588" lon="0.2519">
        <ele>1477</ele>
        <time>2018-12-04T10:38:00Z</time>
      </trkpt>
      <trkpt lat="42.98587" lon="0.25194">
        <ele>1478</ele>
        <time>2018-12-04T10:38:05Z</time>
      </trkpt>
      <trkpt lat="42.9858" lon="0.25207">
        <ele>1478</ele>
        <time>2018-12-04T10:38:47Z</time>
      </trkpt>
      <trkpt lat="42.98579" lon="0.25212">
        <ele>1478</ele>
        <time>2018-12-04T10:38:52Z</time>
      </trkpt>
      <trkpt lat="42.98578" lon="0.25217">
        <ele>1478</ele>
        <time>2018-12-04T10:39:06Z</time>
      </trkpt>
      <trkpt lat="42.98576" lon="0.25222">
        <ele>1479</ele>
        <time>2018-12-04T10:39:17Z</time>
      </trkpt>
      <trkpt lat="42.98573" lon="0.25226">
        <ele>1479</ele>
        <time>2018-12-04T10:39:24Z</time>
      </trkpt>
      <trkpt lat="42.9857" lon="0.2523">
        <ele>1479</ele>
        <time>2018-12-04T10:39:30Z</time>
      </trkpt>
      <trkpt lat="42.98569" lon="0.25234">
        <ele>1479</ele>
        <time>2018-12-04T10:39:34Z</time>
      </trkpt>
      <trkpt lat="42.98569" lon="0.25245">
        <ele>1480</ele>
        <time>2018-12-04T10:39:51Z</time>
      </trkpt>
      <trkpt lat="42.98567" lon="0.2525">
        <ele>1480</ele>
        <time>2018-12-04T10:39:57Z</time>
      </trkpt>
      <trkpt lat="42.98564" lon="0.25253">
        <ele>1480</ele>
        <time>2018-12-04T10:40:23Z</time>
      </trkpt>
      <trkpt lat="42.9856" lon="0.25253">
        <ele>1480</ele>
        <time>2018-12-04T10:40:30Z</time>
      </trkpt>
      <trkpt lat="42.98557" lon="0.25256">
        <ele>1481</ele>
        <time>2018-12-04T10:40:39Z</time>
      </trkpt>
      <trkpt lat="42.98556" lon="0.25261">
        <ele>1482</ele>
        <time>2018-12-04T10:40:48Z</time>
      </trkpt>
      <trkpt lat="42.98554" lon="0.25266">
        <ele>1483</ele>
        <time>2018-12-04T10:41:08Z</time>
      </trkpt>
      <trkpt lat="42.98556" lon="0.25271">
        <ele>1484</ele>
        <time>2018-12-04T10:41:33Z</time>
      </trkpt>
      <trkpt lat="42.98557" lon="0.25276">
        <ele>1485</ele>
        <time>2018-12-04T10:41:36Z</time>
      </trkpt>
      <trkpt lat="42.9856" lon="0.2528">
        <ele>1486</ele>
        <time>2018-12-04T10:42:02Z</time>
      </trkpt>
      <trkpt lat="42.98562" lon="0.25291">
        <ele>1488</ele>
        <time>2018-12-04T10:42:16Z</time>
      </trkpt>
      <trkpt lat="42.98561" lon="0.25298">
        <ele>1488</ele>
        <time>2018-12-04T10:42:22Z</time>
      </trkpt>
      <trkpt lat="42.98555" lon="0.25308">
        <ele>1489</ele>
        <time>2018-12-04T10:42:30Z</time>
      </trkpt>
      <trkpt lat="42.9855" lon="0.25317">
        <ele>1490</ele>
        <time>2018-12-04T10:42:41Z</time>
      </trkpt>
      <trkpt lat="42.98546" lon="0.25324">
        <ele>1493</ele>
        <time>2018-12-04T10:43:00Z</time>
      </trkpt>
      <trkpt lat="42.98545" lon="0.25332">
        <ele>1494</ele>
        <time>2018-12-04T10:43:08Z</time>
      </trkpt>
      <trkpt lat="42.98543" lon="0.25336">
        <ele>1497</ele>
        <time>2018-12-04T10:44:08Z</time>
      </trkpt>
      <trkpt lat="42.9854" lon="0.25342">
        <ele>1497</ele>
        <time>2018-12-04T10:44:40Z</time>
      </trkpt>
      <trkpt lat="42.98539" lon="0.2535">
        <ele>1503</ele>
        <time>2018-12-04T10:44:50Z</time>
      </trkpt>
      <trkpt lat="42.98535" lon="0.25359">
        <ele>1505</ele>
        <time>2018-12-04T10:45:05Z</time>
      </trkpt>
      <trkpt lat="42.98533" lon="0.25362">
        <ele>1508</ele>
        <time>2018-12-04T10:45:48Z</time>
      </trkpt>
      <trkpt lat="42.98532" lon="0.25362">
        <ele>1511</ele>
        <time>2018-12-04T10:48:08Z</time>
      </trkpt>
      <trkpt lat="42.98531" lon="0.25367">
        <ele>1517</ele>
        <time>2018-12-04T10:48:50Z</time>
      </trkpt>
      <trkpt lat="42.98531" lon="0.25375">
        <ele>1519</ele>
        <time>2018-12-04T10:48:55Z</time>
      </trkpt>
      <trkpt lat="42.9853" lon="0.25384">
        <ele>1521</ele>
        <time>2018-12-04T10:48:59Z</time>
      </trkpt>
      <trkpt lat="42.98533" lon="0.25391">
        <ele>1522</ele>
        <time>2018-12-04T10:49:04Z</time>
      </trkpt>
      <trkpt lat="42.98533" lon="0.25396">
        <ele>1523</ele>
        <time>2018-12-04T10:49:21Z</time>
      </trkpt>
      <trkpt lat="42.9853" lon="0.254">
        <ele>1523</ele>
        <time>2018-12-04T10:49:29Z</time>
      </trkpt>
      <trkpt lat="42.98527" lon="0.25398">
        <ele>1525</ele>
        <time>2018-12-04T10:49:56Z</time>
      </trkpt>
      <trkpt lat="42.98525" lon="0.25392">
        <ele>1526</ele>
        <time>2018-12-04T10:50:03Z</time>
      </trkpt>
      <trkpt lat="42.98534" lon="0.25384">
        <ele>1527</ele>
        <time>2018-12-04T10:50:17Z</time>
      </trkpt>
      <trkpt lat="42.98532" lon="0.25378">
        <ele>1527</ele>
        <time>2018-12-04T10:50:31Z</time>
      </trkpt>
      <trkpt lat="42.98529" lon="0.25375">
        <ele>1528</ele>
        <time>2018-12-04T10:50:35Z</time>
      </trkpt>
      <trkpt lat="42.98527" lon="0.25369">
        <ele>1528</ele>
        <time>2018-12-04T10:50:39Z</time>
      </trkpt>
      <trkpt lat="42.98531" lon="0.25369">
        <ele>1529</ele>
        <time>2018-12-04T10:51:08Z</time>
      </trkpt>
      <trkpt lat="42.9853" lon="0.25368">
        <ele>1529</ele>
        <time>2018-12-04T10:51:28Z</time>
      </trkpt>
      <trkpt lat="42.98528" lon="0.25364">
        <ele>1529</ele>
        <time>2018-12-04T10:51:33Z</time>
      </trkpt>
      <trkpt lat="42.98524" lon="0.25364">
        <ele>1529</ele>
        <time>2018-12-04T10:51:59Z</time>
      </trkpt>
      <trkpt lat="42.98523" lon="0.25359">
        <ele>1529</ele>
        <time>2018-12-04T10:52:03Z</time>
      </trkpt>
      <trkpt lat="42.98523" lon="0.25353">
        <ele>1530</ele>
        <time>2018-12-04T10:52:07Z</time>
      </trkpt>
      <trkpt lat="42.98525" lon="0.25349">
        <ele>1530</ele>
        <time>2018-12-04T10:52:14Z</time>
      </trkpt>
      <trkpt lat="42.98531" lon="0.25345">
        <ele>1530</ele>
        <time>2018-12-04T10:53:00Z</time>
      </trkpt>
      <trkpt lat="42.9853" lon="0.25353">
        <ele>1530</ele>
        <time>2018-12-04T10:53:10Z</time>
      </trkpt>
      <trkpt lat="42.9853" lon="0.25358">
        <ele>1530</ele>
        <time>2018-12-04T10:53:14Z</time>
      </trkpt>
      <trkpt lat="42.98529" lon="0.25363">
        <ele>1530</ele>
        <time>2018-12-04T10:53:24Z</time>
      </trkpt>
      <trkpt lat="42.98527" lon="0.2536">
        <ele>1530</ele>
        <time>2018-12-04T10:55:12Z</time>
      </trkpt>
      <trkpt lat="42.98524" lon="0.2536">
        <ele>1531</ele>
        <time>2018-12-04T10:59:30Z</time>
      </trkpt>
      <trkpt lat="42.98522" lon="0.25356">
        <ele>1532</ele>
        <time>2018-12-04T10:59:51Z</time>
      </trkpt>
      <trkpt lat="42.98524" lon="0.25354">
        <ele>1532</ele>
        <time>2018-12-04T11:00:37Z</time>
      </trkpt>
      <trkpt lat="42.98526" lon="0.25358">
        <ele>1532</ele>
        <time>2018-12-04T11:00:59Z</time>
      </trkpt>
      <trkpt lat="42.9853" lon="0.25358">
        <ele>1533</ele>
        <time>2018-12-04T11:01:52Z</time>
      </trkpt>
      <trkpt lat="42.98531" lon="0.25363">
        <ele>1533</ele>
        <time>2018-12-04T11:02:55Z</time>
      </trkpt>
      <trkpt lat="42.98533" lon="0.25363">
        <ele>1534</ele>
        <time>2018-12-04T11:09:34Z</time>
      </trkpt>
      <trkpt lat="42.98526" lon="0.25367">
        <ele>1534</ele>
        <time>2018-12-04T11:10:05Z</time>
      </trkpt>
      <trkpt lat="42.98527" lon="0.25372">
        <ele>1534</ele>
        <time>2018-12-04T11:10:09Z</time>
      </trkpt>
      <trkpt lat="42.98528" lon="0.25377">
        <ele>1534</ele>
        <time>2018-12-04T11:10:13Z</time>
      </trkpt>
      <trkpt lat="42.9853" lon="0.25383">
        <ele>1534</ele>
        <time>2018-12-04T11:10:26Z</time>
      </trkpt>
      <trkpt lat="42.98532" lon="0.25377">
        <ele>1534</ele>
        <time>2018-12-04T11:10:46Z</time>
      </trkpt>
      <trkpt lat="42.98535" lon="0.25375">
        <ele>1534</ele>
        <time>2018-12-04T11:11:11Z</time>
      </trkpt>
      <trkpt lat="42.98533" lon="0.2537">
        <ele>1534</ele>
        <time>2018-12-04T11:12:21Z</time>
      </trkpt>
      <trkpt lat="42.98531" lon="0.25361">
        <ele>1534</ele>
        <time>2018-12-04T11:12:41Z</time>
      </trkpt>
      <trkpt lat="42.98528" lon="0.25362">
        <ele>1534</ele>
        <time>2018-12-04T11:19:05Z</time>
      </trkpt>
      <trkpt lat="42.98528" lon="0.25362">
        <ele>1535</ele>
        <time>2018-12-04T11:22:45Z</time>
      </trkpt>
      <trkpt lat="42.98528" lon="0.25366">
        <ele>1535</ele>
        <time>2018-12-04T11:22:51Z</time>
      </trkpt>
      <trkpt lat="42.98527" lon="0.25369">
        <ele>1535</ele>
        <time>2018-12-04T11:23:02Z</time>
      </trkpt>
      <trkpt lat="42.98525" lon="0.25366">
        <ele>1535</ele>
        <time>2018-12-04T11:23:28Z</time>
      </trkpt>
      <trkpt lat="42.98524" lon="0.25363">
        <ele>1536</ele>
        <time>2018-12-04T11:23:41Z</time>
      </trkpt>
      <trkpt lat="42.98524" lon="0.25361">
        <ele>1536</ele>
        <time>2018-12-04T11:23:52Z</time>
      </trkpt>
      <trkpt lat="42.98526" lon="0.25359">
        <ele>1536</ele>
        <time>2018-12-04T11:24:09Z</time>
      </trkpt>
      <trkpt lat="42.98532" lon="0.25357">
        <ele>1536</ele>
        <time>2018-12-04T11:24:32Z</time>
      </trkpt>
      <trkpt lat="42.98531" lon="0.25362">
        <ele>1536</ele>
        <time>2018-12-04T11:24:48Z</time>
      </trkpt>
      <trkpt lat="42.9853" lon="0.25359">
        <ele>1536</ele>
        <time>2018-12-04T11:25:18Z</time>
      </trkpt>
      <trkpt lat="42.98527" lon="0.25361">
        <ele>1536</ele>
        <time>2018-12-04T11:25:47Z</time>
      </trkpt>
      <trkpt lat="42.98527" lon="0.25361">
        <ele>1536</ele>
        <time>2018-12-04T11:38:21Z</time>
      </trkpt>
      <trkpt lat="42.9853" lon="0.25363">
        <ele>1536</ele>
        <time>2018-12-04T11:42:14Z</time>
      </trkpt>
      <trkpt lat="42.9853" lon="0.25366">
        <ele>1536</ele>
        <time>2018-12-04T11:43:55Z</time>
      </trkpt>
      <trkpt lat="42.9853" lon="0.25362">
        <ele>1545</ele>
        <time>2018-12-04T12:57:24Z</time>
      </trkpt>
      <trkpt lat="42.9853" lon="0.25358">
        <ele>1544</ele>
        <time>2018-12-04T12:57:45Z</time>
      </trkpt>
      <trkpt lat="42.98531" lon="0.25361">
        <ele>1543</ele>
        <time>2018-12-04T13:01:10Z</time>
      </trkpt>
      <trkpt lat="42.98528" lon="0.25365">
        <ele>1542</ele>
        <time>2018-12-04T13:03:31Z</time>
      </trkpt>
      <trkpt lat="42.98526" lon="0.25368">
        <ele>1542</ele>
        <time>2018-12-04T13:03:41Z</time>
      </trkpt>
      <trkpt lat="42.98522" lon="0.25368">
        <ele>1542</ele>
        <time>2018-12-04T13:10:58Z</time>
      </trkpt>
      <trkpt lat="42.98517" lon="0.25364">
        <ele>1542</ele>
        <time>2018-12-04T13:11:17Z</time>
      </trkpt>
      <trkpt lat="42.98514" lon="0.25361">
        <ele>1538</ele>
        <time>2018-12-04T13:11:22Z</time>
      </trkpt>
      <trkpt lat="42.9851" lon="0.2536">
        <ele>1537</ele>
        <time>2018-12-04T13:11:25Z</time>
      </trkpt>
      <trkpt lat="42.9848" lon="0.25349">
        <ele>1531</ele>
        <time>2018-12-04T13:11:57Z</time>
      </trkpt>
      <trkpt lat="42.98477" lon="0.2535">
        <ele>1531</ele>
        <time>2018-12-04T13:12:01Z</time>
      </trkpt>
      <trkpt lat="42.98464" lon="0.25349">
        <ele>1530</ele>
        <time>2018-12-04T13:12:11Z</time>
      </trkpt>
      <trkpt lat="42.98462" lon="0.25348">
        <ele>1530</ele>
        <time>2018-12-04T13:12:19Z</time>
      </trkpt>
      <trkpt lat="42.98452" lon="0.2535">
        <ele>1530</ele>
        <time>2018-12-04T13:12:29Z</time>
      </trkpt>
      <trkpt lat="42.98448" lon="0.25351">
        <ele>1530</ele>
        <time>2018-12-04T13:12:33Z</time>
      </trkpt>
      <trkpt lat="42.98444" lon="0.25352">
        <ele>1530</ele>
        <time>2018-12-04T13:12:37Z</time>
      </trkpt>
      <trkpt lat="42.98442" lon="0.2535">
        <ele>1530</ele>
        <time>2018-12-04T13:13:44Z</time>
      </trkpt>
      <trkpt lat="42.98438" lon="0.25348">
        <ele>1530</ele>
        <time>2018-12-04T13:13:56Z</time>
      </trkpt>
      <trkpt lat="42.98426" lon="0.25348">
        <ele>1531</ele>
        <time>2018-12-04T13:14:07Z</time>
      </trkpt>
      <trkpt lat="42.98422" lon="0.25346">
        <ele>1531</ele>
        <time>2018-12-04T13:14:12Z</time>
      </trkpt>
      <trkpt lat="42.98418" lon="0.25347">
        <ele>1531</ele>
        <time>2018-12-04T13:14:46Z</time>
      </trkpt>
      <trkpt lat="42.98415" lon="0.25349">
        <ele>1532</ele>
        <time>2018-12-04T13:14:49Z</time>
      </trkpt>
      <trkpt lat="42.98411" lon="0.25351">
        <ele>1532</ele>
        <time>2018-12-04T13:14:54Z</time>
      </trkpt>
      <trkpt lat="42.984" lon="0.25356">
        <ele>1533</ele>
        <time>2018-12-04T13:15:11Z</time>
      </trkpt>
      <trkpt lat="42.98396" lon="0.25358">
        <ele>1533</ele>
        <time>2018-12-04T13:15:15Z</time>
      </trkpt>
      <trkpt lat="42.98393" lon="0.2536">
        <ele>1533</ele>
        <time>2018-12-04T13:15:20Z</time>
      </trkpt>
      <trkpt lat="42.98389" lon="0.25365">
        <ele>1533</ele>
        <time>2018-12-04T13:15:25Z</time>
      </trkpt>
      <trkpt lat="42.98377" lon="0.25367">
        <ele>1534</ele>
        <time>2018-12-04T13:15:55Z</time>
      </trkpt>
      <trkpt lat="42.98374" lon="0.2537">
        <ele>1534</ele>
        <time>2018-12-04T13:15:59Z</time>
      </trkpt>
      <trkpt lat="42.9837" lon="0.25377">
        <ele>1534</ele>
        <time>2018-12-04T13:16:08Z</time>
      </trkpt>
      <trkpt lat="42.98367" lon="0.25382">
        <ele>1534</ele>
        <time>2018-12-04T13:16:15Z</time>
      </trkpt>
      <trkpt lat="42.98361" lon="0.25389">
        <ele>1535</ele>
        <time>2018-12-04T13:16:25Z</time>
      </trkpt>
      <trkpt lat="42.98358" lon="0.25391">
        <ele>1535</ele>
        <time>2018-12-04T13:16:28Z</time>
      </trkpt>
      <trkpt lat="42.98354" lon="0.25393">
        <ele>1535</ele>
        <time>2018-12-04T13:16:32Z</time>
      </trkpt>
      <trkpt lat="42.98351" lon="0.2539">
        <ele>1535</ele>
        <time>2018-12-04T13:16:44Z</time>
      </trkpt>
      <trkpt lat="42.98347" lon="0.25392">
        <ele>1535</ele>
        <time>2018-12-04T13:16:51Z</time>
      </trkpt>
      <trkpt lat="42.98342" lon="0.25396">
        <ele>1535</ele>
        <time>2018-12-04T13:16:58Z</time>
      </trkpt>
      <trkpt lat="42.98336" lon="0.254">
        <ele>1536</ele>
        <time>2018-12-04T13:17:06Z</time>
      </trkpt>
      <trkpt lat="42.98331" lon="0.25413">
        <ele>1536</ele>
        <time>2018-12-04T13:17:21Z</time>
      </trkpt>
      <trkpt lat="42.98327" lon="0.25417">
        <ele>1536</ele>
        <time>2018-12-04T13:17:56Z</time>
      </trkpt>
      <trkpt lat="42.98321" lon="0.25419">
        <ele>1536</ele>
        <time>2018-12-04T13:18:00Z</time>
      </trkpt>
      <trkpt lat="42.98315" lon="0.2542">
        <ele>1536</ele>
        <time>2018-12-04T13:18:05Z</time>
      </trkpt>
      <trkpt lat="42.9831" lon="0.25427">
        <ele>1536</ele>
        <time>2018-12-04T13:18:09Z</time>
      </trkpt>
      <trkpt lat="42.98306" lon="0.25466">
        <ele>1537</ele>
        <time>2018-12-04T13:18:42Z</time>
      </trkpt>
      <trkpt lat="42.98305" lon="0.25471">
        <ele>1538</ele>
        <time>2018-12-04T13:18:47Z</time>
      </trkpt>
      <trkpt lat="42.98303" lon="0.25477">
        <ele>1538</ele>
        <time>2018-12-04T13:18:54Z</time>
      </trkpt>
      <trkpt lat="42.98301" lon="0.25483">
        <ele>1538</ele>
        <time>2018-12-04T13:19:00Z</time>
      </trkpt>
      <trkpt lat="42.98294" lon="0.255">
        <ele>1538</ele>
        <time>2018-12-04T13:19:12Z</time>
      </trkpt>
      <trkpt lat="42.98292" lon="0.25503">
        <ele>1538</ele>
        <time>2018-12-04T13:19:17Z</time>
      </trkpt>
      <trkpt lat="42.9829" lon="0.25511">
        <ele>1539</ele>
        <time>2018-12-04T13:19:24Z</time>
      </trkpt>
      <trkpt lat="42.98289" lon="0.25516">
        <ele>1539</ele>
        <time>2018-12-04T13:19:28Z</time>
      </trkpt>
      <trkpt lat="42.98288" lon="0.25519">
        <ele>1539</ele>
        <time>2018-12-04T13:19:34Z</time>
      </trkpt>
      <trkpt lat="42.98284" lon="0.25525">
        <ele>1540</ele>
        <time>2018-12-04T13:19:47Z</time>
      </trkpt>
      <trkpt lat="42.98282" lon="0.25528">
        <ele>1540</ele>
        <time>2018-12-04T13:19:50Z</time>
      </trkpt>
      <trkpt lat="42.98279" lon="0.25532">
        <ele>1540</ele>
        <time>2018-12-04T13:19:53Z</time>
      </trkpt>
      <trkpt lat="42.98275" lon="0.25542">
        <ele>1540</ele>
        <time>2018-12-04T13:20:04Z</time>
      </trkpt>
      <trkpt lat="42.98273" lon="0.25545">
        <ele>1541</ele>
        <time>2018-12-04T13:20:10Z</time>
      </trkpt>
      <trkpt lat="42.98269" lon="0.25553">
        <ele>1541</ele>
        <time>2018-12-04T13:20:15Z</time>
      </trkpt>
      <trkpt lat="42.98268" lon="0.25556">
        <ele>1541</ele>
        <time>2018-12-04T13:20:25Z</time>
      </trkpt>
      <trkpt lat="42.98267" lon="0.25561">
        <ele>1541</ele>
        <time>2018-12-04T13:20:44Z</time>
      </trkpt>
      <trkpt lat="42.98264" lon="0.25565">
        <ele>1542</ele>
        <time>2018-12-04T13:20:51Z</time>
      </trkpt>
      <trkpt lat="42.98261" lon="0.25568">
        <ele>1542</ele>
        <time>2018-12-04T13:20:54Z</time>
      </trkpt>
      <trkpt lat="42.98257" lon="0.25572">
        <ele>1542</ele>
        <time>2018-12-04T13:20:59Z</time>
      </trkpt>
      <trkpt lat="42.98254" lon="0.25577">
        <ele>1543</ele>
        <time>2018-12-04T13:21:06Z</time>
      </trkpt>
      <trkpt lat="42.98253" lon="0.25583">
        <ele>1543</ele>
        <time>2018-12-04T13:21:09Z</time>
      </trkpt>
      <trkpt lat="42.98248" lon="0.25591">
        <ele>1543</ele>
        <time>2018-12-04T13:21:18Z</time>
      </trkpt>
      <trkpt lat="42.98243" lon="0.256">
        <ele>1543</ele>
        <time>2018-12-04T13:21:29Z</time>
      </trkpt>
      <trkpt lat="42.9824" lon="0.25605">
        <ele>1543</ele>
        <time>2018-12-04T13:21:33Z</time>
      </trkpt>
      <trkpt lat="42.98238" lon="0.25609">
        <ele>1543</ele>
        <time>2018-12-04T13:21:37Z</time>
      </trkpt>
      <trkpt lat="42.98235" lon="0.25612">
        <ele>1544</ele>
        <time>2018-12-04T13:21:42Z</time>
      </trkpt>
      <trkpt lat="42.98231" lon="0.25621">
        <ele>1544</ele>
        <time>2018-12-04T13:21:52Z</time>
      </trkpt>
      <trkpt lat="42.98229" lon="0.25627">
        <ele>1544</ele>
        <time>2018-12-04T13:21:58Z</time>
      </trkpt>
      <trkpt lat="42.98226" lon="0.25631">
        <ele>1544</ele>
        <time>2018-12-04T13:22:03Z</time>
      </trkpt>
      <trkpt lat="42.98224" lon="0.25636">
        <ele>1544</ele>
        <time>2018-12-04T13:22:07Z</time>
      </trkpt>
      <trkpt lat="42.98221" lon="0.25639">
        <ele>1544</ele>
        <time>2018-12-04T13:22:11Z</time>
      </trkpt>
      <trkpt lat="42.98217" lon="0.25643">
        <ele>1544</ele>
        <time>2018-12-04T13:22:17Z</time>
      </trkpt>
      <trkpt lat="42.98212" lon="0.25653">
        <ele>1545</ele>
        <time>2018-12-04T13:22:27Z</time>
      </trkpt>
      <trkpt lat="42.98211" lon="0.25658">
        <ele>1545</ele>
        <time>2018-12-04T13:22:35Z</time>
      </trkpt>
      <trkpt lat="42.9821" lon="0.25669">
        <ele>1545</ele>
        <time>2018-12-04T13:23:57Z</time>
      </trkpt>
      <trkpt lat="42.98212" lon="0.25673">
        <ele>1545</ele>
        <time>2018-12-04T13:24:09Z</time>
      </trkpt>
      <trkpt lat="42.98211" lon="0.25681">
        <ele>1545</ele>
        <time>2018-12-04T13:24:19Z</time>
      </trkpt>
      <trkpt lat="42.9821" lon="0.25687">
        <ele>1545</ele>
        <time>2018-12-04T13:24:21Z</time>
      </trkpt>
      <trkpt lat="42.9821" lon="0.25692">
        <ele>1545</ele>
        <time>2018-12-04T13:24:23Z</time>
      </trkpt>
      <trkpt lat="42.98209" lon="0.25697">
        <ele>1545</ele>
        <time>2018-12-04T13:24:30Z</time>
      </trkpt>
      <trkpt lat="42.98205" lon="0.25708">
        <ele>1546</ele>
        <time>2018-12-04T13:24:43Z</time>
      </trkpt>
      <trkpt lat="42.98202" lon="0.25712">
        <ele>1546</ele>
        <time>2018-12-04T13:24:49Z</time>
      </trkpt>
      <trkpt lat="42.98199" lon="0.25716">
        <ele>1546</ele>
        <time>2018-12-04T13:24:53Z</time>
      </trkpt>
      <trkpt lat="42.98197" lon="0.2572">
        <ele>1546</ele>
        <time>2018-12-04T13:25:04Z</time>
      </trkpt>
      <trkpt lat="42.98195" lon="0.25725">
        <ele>1546</ele>
        <time>2018-12-04T13:25:18Z</time>
      </trkpt>
      <trkpt lat="42.98194" lon="0.25731">
        <ele>1546</ele>
        <time>2018-12-04T13:25:41Z</time>
      </trkpt>
      <trkpt lat="42.98192" lon="0.25735">
        <ele>1546</ele>
        <time>2018-12-04T13:25:58Z</time>
      </trkpt>
      <trkpt lat="42.98184" lon="0.25742">
        <ele>1546</ele>
        <time>2018-12-04T13:26:09Z</time>
      </trkpt>
      <trkpt lat="42.98181" lon="0.25746">
        <ele>1546</ele>
        <time>2018-12-04T13:26:20Z</time>
      </trkpt>
      <trkpt lat="42.98178" lon="0.25748">
        <ele>1546</ele>
        <time>2018-12-04T13:26:24Z</time>
      </trkpt>
      <trkpt lat="42.98175" lon="0.25751">
        <ele>1546</ele>
        <time>2018-12-04T13:26:31Z</time>
      </trkpt>
      <trkpt lat="42.98172" lon="0.25756">
        <ele>1546</ele>
        <time>2018-12-04T13:26:43Z</time>
      </trkpt>
      <trkpt lat="42.98172" lon="0.25764">
        <ele>1546</ele>
        <time>2018-12-04T13:26:51Z</time>
      </trkpt>
      <trkpt lat="42.98173" lon="0.25782">
        <ele>1546</ele>
        <time>2018-12-04T13:27:02Z</time>
      </trkpt>
      <trkpt lat="42.98174" lon="0.25789">
        <ele>1546</ele>
        <time>2018-12-04T13:27:21Z</time>
      </trkpt>
      <trkpt lat="42.98174" lon="0.25795">
        <ele>1546</ele>
        <time>2018-12-04T13:27:25Z</time>
      </trkpt>
      <trkpt lat="42.98174" lon="0.2581">
        <ele>1546</ele>
        <time>2018-12-04T13:27:41Z</time>
      </trkpt>
      <trkpt lat="42.98166" lon="0.25824">
        <ele>1546</ele>
        <time>2018-12-04T13:27:44Z</time>
      </trkpt>
      <trkpt lat="42.98158" lon="0.2583">
        <ele>1546</ele>
        <time>2018-12-04T13:27:47Z</time>
      </trkpt>
      <trkpt lat="42.98153" lon="0.25837">
        <ele>1546</ele>
        <time>2018-12-04T13:27:50Z</time>
      </trkpt>
      <trkpt lat="42.9815" lon="0.25843">
        <ele>1546</ele>
        <time>2018-12-04T13:27:55Z</time>
      </trkpt>
      <trkpt lat="42.98147" lon="0.25849">
        <ele>1545</ele>
        <time>2018-12-04T13:28:06Z</time>
      </trkpt>
      <trkpt lat="42.9814" lon="0.25861">
        <ele>1545</ele>
        <time>2018-12-04T13:28:15Z</time>
      </trkpt>
      <trkpt lat="42.98136" lon="0.25867">
        <ele>1545</ele>
        <time>2018-12-04T13:28:20Z</time>
      </trkpt>
      <trkpt lat="42.98133" lon="0.25872">
        <ele>1545</ele>
        <time>2018-12-04T13:28:23Z</time>
      </trkpt>
      <trkpt lat="42.98128" lon="0.25874">
        <ele>1545</ele>
        <time>2018-12-04T13:28:32Z</time>
      </trkpt>
      <trkpt lat="42.98121" lon="0.25881">
        <ele>1545</ele>
        <time>2018-12-04T13:28:41Z</time>
      </trkpt>
      <trkpt lat="42.98117" lon="0.25881">
        <ele>1545</ele>
        <time>2018-12-04T13:28:47Z</time>
      </trkpt>
      <trkpt lat="42.98114" lon="0.25883">
        <ele>1545</ele>
        <time>2018-12-04T13:28:53Z</time>
      </trkpt>
      <trkpt lat="42.98111" lon="0.25887">
        <ele>1545</ele>
        <time>2018-12-04T13:28:59Z</time>
      </trkpt>
      <trkpt lat="42.98106" lon="0.25889">
        <ele>1545</ele>
        <time>2018-12-04T13:29:03Z</time>
      </trkpt>
      <trkpt lat="42.98104" lon="0.25896">
        <ele>1545</ele>
        <time>2018-12-04T13:29:11Z</time>
      </trkpt>
      <trkpt lat="42.98099" lon="0.25902">
        <ele>1545</ele>
        <time>2018-12-04T13:29:15Z</time>
      </trkpt>
      <trkpt lat="42.98096" lon="0.25905">
        <ele>1545</ele>
        <time>2018-12-04T13:29:19Z</time>
      </trkpt>
      <trkpt lat="42.98091" lon="0.25908">
        <ele>1544</ele>
        <time>2018-12-04T13:29:35Z</time>
      </trkpt>
      <trkpt lat="42.98086" lon="0.25911">
        <ele>1544</ele>
        <time>2018-12-04T13:29:42Z</time>
      </trkpt>
      <trkpt lat="42.98082" lon="0.25915">
        <ele>1544</ele>
        <time>2018-12-04T13:29:47Z</time>
      </trkpt>
      <trkpt lat="42.98079" lon="0.25917">
        <ele>1544</ele>
        <time>2018-12-04T13:29:52Z</time>
      </trkpt>
      <trkpt lat="42.98076" lon="0.25921">
        <ele>1544</ele>
        <time>2018-12-04T13:29:56Z</time>
      </trkpt>
      <trkpt lat="42.98072" lon="0.25921">
        <ele>1544</ele>
        <time>2018-12-04T13:29:59Z</time>
      </trkpt>
      <trkpt lat="42.98061" lon="0.25925">
        <ele>1544</ele>
        <time>2018-12-04T13:30:14Z</time>
      </trkpt>
      <trkpt lat="42.98059" lon="0.25933">
        <ele>1544</ele>
        <time>2018-12-04T13:30:21Z</time>
      </trkpt>
      <trkpt lat="42.98056" lon="0.25938">
        <ele>1544</ele>
        <time>2018-12-04T13:30:26Z</time>
      </trkpt>
      <trkpt lat="42.98053" lon="0.2594">
        <ele>1544</ele>
        <time>2018-12-04T13:30:32Z</time>
      </trkpt>
      <trkpt lat="42.98049" lon="0.25946">
        <ele>1544</ele>
        <time>2018-12-04T13:30:35Z</time>
      </trkpt>
      <trkpt lat="42.98048" lon="0.2595">
        <ele>1544</ele>
        <time>2018-12-04T13:30:39Z</time>
      </trkpt>
      <trkpt lat="42.98045" lon="0.25956">
        <ele>1543</ele>
        <time>2018-12-04T13:30:50Z</time>
      </trkpt>
      <trkpt lat="42.98041" lon="0.25958">
        <ele>1543</ele>
        <time>2018-12-04T13:31:40Z</time>
      </trkpt>
      <trkpt lat="42.98038" lon="0.25962">
        <ele>1543</ele>
        <time>2018-12-04T13:31:59Z</time>
      </trkpt>
      <trkpt lat="42.98032" lon="0.2596">
        <ele>1543</ele>
        <time>2018-12-04T13:32:03Z</time>
      </trkpt>
      <trkpt lat="42.98029" lon="0.25963">
        <ele>1543</ele>
        <time>2018-12-04T13:32:07Z</time>
      </trkpt>
      <trkpt lat="42.98025" lon="0.25965">
        <ele>1542</ele>
        <time>2018-12-04T13:32:12Z</time>
      </trkpt>
      <trkpt lat="42.98021" lon="0.25966">
        <ele>1542</ele>
        <time>2018-12-04T13:32:21Z</time>
      </trkpt>
      <trkpt lat="42.98019" lon="0.2597">
        <ele>1542</ele>
        <time>2018-12-04T13:32:30Z</time>
      </trkpt>
      <trkpt lat="42.98015" lon="0.25972">
        <ele>1542</ele>
        <time>2018-12-04T13:33:32Z</time>
      </trkpt>
      <trkpt lat="42.98012" lon="0.25976">
        <ele>1542</ele>
        <time>2018-12-04T13:33:37Z</time>
      </trkpt>
      <trkpt lat="42.98008" lon="0.25976">
        <ele>1541</ele>
        <time>2018-12-04T13:33:43Z</time>
      </trkpt>
      <trkpt lat="42.98004" lon="0.25978">
        <ele>1541</ele>
        <time>2018-12-04T13:33:48Z</time>
      </trkpt>
      <trkpt lat="42.98001" lon="0.25981">
        <ele>1541</ele>
        <time>2018-12-04T13:33:55Z</time>
      </trkpt>
      <trkpt lat="42.97999" lon="0.25984">
        <ele>1541</ele>
        <time>2018-12-04T13:34:47Z</time>
      </trkpt>
      <trkpt lat="42.97995" lon="0.25988">
        <ele>1541</ele>
        <time>2018-12-04T13:35:08Z</time>
      </trkpt>
      <trkpt lat="42.97993" lon="0.25992">
        <ele>1540</ele>
        <time>2018-12-04T13:35:16Z</time>
      </trkpt>
      <trkpt lat="42.9799" lon="0.25995">
        <ele>1540</ele>
        <time>2018-12-04T13:35:22Z</time>
      </trkpt>
      <trkpt lat="42.97987" lon="0.26">
        <ele>1540</ele>
        <time>2018-12-04T13:35:29Z</time>
      </trkpt>
      <trkpt lat="42.97984" lon="0.26004">
        <ele>1540</ele>
        <time>2018-12-04T13:35:34Z</time>
      </trkpt>
      <trkpt lat="42.97982" lon="0.26009">
        <ele>1539</ele>
        <time>2018-12-04T13:35:41Z</time>
      </trkpt>
      <trkpt lat="42.97981" lon="0.26015">
        <ele>1539</ele>
        <time>2018-12-04T13:35:47Z</time>
      </trkpt>
      <trkpt lat="42.97981" lon="0.26023">
        <ele>1539</ele>
        <time>2018-12-04T13:36:01Z</time>
      </trkpt>
      <trkpt lat="42.97975" lon="0.26024">
        <ele>1539</ele>
        <time>2018-12-04T13:36:09Z</time>
      </trkpt>
      <trkpt lat="42.97971" lon="0.26026">
        <ele>1539</ele>
        <time>2018-12-04T13:36:18Z</time>
      </trkpt>
      <trkpt lat="42.97967" lon="0.26028">
        <ele>1539</ele>
        <time>2018-12-04T13:36:31Z</time>
      </trkpt>
      <trkpt lat="42.97963" lon="0.2603">
        <ele>1539</ele>
        <time>2018-12-04T13:36:36Z</time>
      </trkpt>
      <trkpt lat="42.9796" lon="0.26032">
        <ele>1538</ele>
        <time>2018-12-04T13:36:41Z</time>
      </trkpt>
      <trkpt lat="42.97955" lon="0.26035">
        <ele>1538</ele>
        <time>2018-12-04T13:36:45Z</time>
      </trkpt>
      <trkpt lat="42.97952" lon="0.26038">
        <ele>1538</ele>
        <time>2018-12-04T13:36:52Z</time>
      </trkpt>
      <trkpt lat="42.9795" lon="0.26043">
        <ele>1538</ele>
        <time>2018-12-04T13:37:00Z</time>
      </trkpt>
      <trkpt lat="42.97949" lon="0.26051">
        <ele>1538</ele>
        <time>2018-12-04T13:37:09Z</time>
      </trkpt>
      <trkpt lat="42.97945" lon="0.26055">
        <ele>1538</ele>
        <time>2018-12-04T13:37:13Z</time>
      </trkpt>
      <trkpt lat="42.97943" lon="0.2606">
        <ele>1538</ele>
        <time>2018-12-04T13:37:32Z</time>
      </trkpt>
      <trkpt lat="42.97938" lon="0.26068">
        <ele>1538</ele>
        <time>2018-12-04T13:37:44Z</time>
      </trkpt>
      <trkpt lat="42.97936" lon="0.26073">
        <ele>1538</ele>
        <time>2018-12-04T13:37:48Z</time>
      </trkpt>
      <trkpt lat="42.97935" lon="0.26078">
        <ele>1537</ele>
        <time>2018-12-04T13:37:55Z</time>
      </trkpt>
      <trkpt lat="42.97932" lon="0.26081">
        <ele>1537</ele>
        <time>2018-12-04T13:38:04Z</time>
      </trkpt>
      <trkpt lat="42.97929" lon="0.26086">
        <ele>1537</ele>
        <time>2018-12-04T13:38:07Z</time>
      </trkpt>
      <trkpt lat="42.97925" lon="0.26095">
        <ele>1537</ele>
        <time>2018-12-04T13:38:44Z</time>
      </trkpt>
      <trkpt lat="42.97924" lon="0.26101">
        <ele>1536</ele>
        <time>2018-12-04T13:38:51Z</time>
      </trkpt>
      <trkpt lat="42.97921" lon="0.26104">
        <ele>1536</ele>
        <time>2018-12-04T13:39:01Z</time>
      </trkpt>
      <trkpt lat="42.97919" lon="0.26108">
        <ele>1536</ele>
        <time>2018-12-04T13:39:07Z</time>
      </trkpt>
      <trkpt lat="42.97913" lon="0.26116">
        <ele>1536</ele>
        <time>2018-12-04T13:39:15Z</time>
      </trkpt>
      <trkpt lat="42.97908" lon="0.26131">
        <ele>1535</ele>
        <time>2018-12-04T13:39:27Z</time>
      </trkpt>
      <trkpt lat="42.97908" lon="0.26137">
        <ele>1535</ele>
        <time>2018-12-04T13:39:41Z</time>
      </trkpt>
      <trkpt lat="42.97905" lon="0.26141">
        <ele>1535</ele>
        <time>2018-12-04T13:39:43Z</time>
      </trkpt>
      <trkpt lat="42.97902" lon="0.26143">
        <ele>1534</ele>
        <time>2018-12-04T13:41:33Z</time>
      </trkpt>
      <trkpt lat="42.97901" lon="0.26148">
        <ele>1533</ele>
        <time>2018-12-04T13:43:38Z</time>
      </trkpt>
      <trkpt lat="42.97897" lon="0.26149">
        <ele>1531</ele>
        <time>2018-12-04T13:43:46Z</time>
      </trkpt>
      <trkpt lat="42.97897" lon="0.26155">
        <ele>1531</ele>
        <time>2018-12-04T13:43:53Z</time>
      </trkpt>
      <trkpt lat="42.97896" lon="0.2616">
        <ele>1530</ele>
        <time>2018-12-04T13:43:56Z</time>
      </trkpt>
      <trkpt lat="42.97894" lon="0.26166">
        <ele>1530</ele>
        <time>2018-12-04T13:44:05Z</time>
      </trkpt>
      <trkpt lat="42.97895" lon="0.26171">
        <ele>1529</ele>
        <time>2018-12-04T13:44:13Z</time>
      </trkpt>
      <trkpt lat="42.97894" lon="0.26176">
        <ele>1529</ele>
        <time>2018-12-04T13:44:21Z</time>
      </trkpt>
      <trkpt lat="42.97892" lon="0.26181">
        <ele>1528</ele>
        <time>2018-12-04T13:45:10Z</time>
      </trkpt>
      <trkpt lat="42.97889" lon="0.26178">
        <ele>1527</ele>
        <time>2018-12-04T13:48:56Z</time>
      </trkpt>
      <trkpt lat="42.97886" lon="0.26182">
        <ele>1527</ele>
        <time>2018-12-04T13:49:04Z</time>
      </trkpt>
      <trkpt lat="42.97888" lon="0.26188">
        <ele>1525</ele>
        <time>2018-12-04T13:49:08Z</time>
      </trkpt>
      <trkpt lat="42.97889" lon="0.26192">
        <ele>1524</ele>
        <time>2018-12-04T13:49:21Z</time>
      </trkpt>
      <trkpt lat="42.97887" lon="0.26197">
        <ele>1524</ele>
        <time>2018-12-04T13:49:58Z</time>
      </trkpt>
      <trkpt lat="42.97887" lon="0.26202">
        <ele>1524</ele>
        <time>2018-12-04T13:50:01Z</time>
      </trkpt>
      <trkpt lat="42.97887" lon="0.26208">
        <ele>1523</ele>
        <time>2018-12-04T13:50:17Z</time>
      </trkpt>
      <trkpt lat="42.97882" lon="0.26218">
        <ele>1522</ele>
        <time>2018-12-04T13:50:31Z</time>
      </trkpt>
      <trkpt lat="42.97879" lon="0.26221">
        <ele>1522</ele>
        <time>2018-12-04T13:50:36Z</time>
      </trkpt>
      <trkpt lat="42.97876" lon="0.26226">
        <ele>1522</ele>
        <time>2018-12-04T13:50:42Z</time>
      </trkpt>
      <trkpt lat="42.97873" lon="0.2623">
        <ele>1522</ele>
        <time>2018-12-04T13:50:50Z</time>
      </trkpt>
      <trkpt lat="42.97862" lon="0.26255">
        <ele>1521</ele>
        <time>2018-12-04T13:51:18Z</time>
      </trkpt>
      <trkpt lat="42.97861" lon="0.26259">
        <ele>1520</ele>
        <time>2018-12-04T13:51:21Z</time>
      </trkpt>
      <trkpt lat="42.9786" lon="0.26263">
        <ele>1520</ele>
        <time>2018-12-04T13:51:25Z</time>
      </trkpt>
      <trkpt lat="42.97857" lon="0.26262">
        <ele>1520</ele>
        <time>2018-12-04T13:51:35Z</time>
      </trkpt>
      <trkpt lat="42.97853" lon="0.26262">
        <ele>1520</ele>
        <time>2018-12-04T13:51:55Z</time>
      </trkpt>
      <trkpt lat="42.9785" lon="0.26266">
        <ele>1519</ele>
        <time>2018-12-04T13:52:01Z</time>
      </trkpt>
      <trkpt lat="42.97847" lon="0.26273">
        <ele>1519</ele>
        <time>2018-12-04T13:52:08Z</time>
      </trkpt>
      <trkpt lat="42.97838" lon="0.26288">
        <ele>1518</ele>
        <time>2018-12-04T13:52:23Z</time>
      </trkpt>
      <trkpt lat="42.97836" lon="0.26292">
        <ele>1518</ele>
        <time>2018-12-04T13:52:30Z</time>
      </trkpt>
      <trkpt lat="42.97831" lon="0.26296">
        <ele>1518</ele>
        <time>2018-12-04T13:52:40Z</time>
      </trkpt>
      <trkpt lat="42.97828" lon="0.263">
        <ele>1517</ele>
        <time>2018-12-04T13:52:49Z</time>
      </trkpt>
      <trkpt lat="42.97821" lon="0.26308">
        <ele>1517</ele>
        <time>2018-12-04T13:52:59Z</time>
      </trkpt>
      <trkpt lat="42.97818" lon="0.26313">
        <ele>1517</ele>
        <time>2018-12-04T13:53:04Z</time>
      </trkpt>
      <trkpt lat="42.97815" lon="0.26316">
        <ele>1516</ele>
        <time>2018-12-04T13:53:25Z</time>
      </trkpt>
      <trkpt lat="42.97811" lon="0.26322">
        <ele>1516</ele>
        <time>2018-12-04T13:53:35Z</time>
      </trkpt>
      <trkpt lat="42.97805" lon="0.26327">
        <ele>1515</ele>
        <time>2018-12-04T13:53:40Z</time>
      </trkpt>
      <trkpt lat="42.97802" lon="0.26333">
        <ele>1515</ele>
        <time>2018-12-04T13:53:47Z</time>
      </trkpt>
      <trkpt lat="42.97797" lon="0.26338">
        <ele>1515</ele>
        <time>2018-12-04T13:53:52Z</time>
      </trkpt>
      <trkpt lat="42.9779" lon="0.2634">
        <ele>1514</ele>
        <time>2018-12-04T13:54:01Z</time>
      </trkpt>
      <trkpt lat="42.97788" lon="0.26345">
        <ele>1514</ele>
        <time>2018-12-04T13:54:03Z</time>
      </trkpt>
      <trkpt lat="42.97786" lon="0.2635">
        <ele>1514</ele>
        <time>2018-12-04T13:54:06Z</time>
      </trkpt>
      <trkpt lat="42.9778" lon="0.2636">
        <ele>1514</ele>
        <time>2018-12-04T13:54:13Z</time>
      </trkpt>
      <trkpt lat="42.97777" lon="0.26366">
        <ele>1514</ele>
        <time>2018-12-04T13:54:16Z</time>
      </trkpt>
      <trkpt lat="42.97775" lon="0.26372">
        <ele>1513</ele>
        <time>2018-12-04T13:54:23Z</time>
      </trkpt>
      <trkpt lat="42.97769" lon="0.26397">
        <ele>1512</ele>
        <time>2018-12-04T13:54:42Z</time>
      </trkpt>
      <trkpt lat="42.9776" lon="0.26405">
        <ele>1512</ele>
        <time>2018-12-04T13:54:54Z</time>
      </trkpt>
      <trkpt lat="42.97754" lon="0.26405">
        <ele>1511</ele>
        <time>2018-12-04T13:54:59Z</time>
      </trkpt>
      <trkpt lat="42.97751" lon="0.26401">
        <ele>1511</ele>
        <time>2018-12-04T13:55:06Z</time>
      </trkpt>
      <trkpt lat="42.97748" lon="0.26399">
        <ele>1511</ele>
        <time>2018-12-04T13:55:15Z</time>
      </trkpt>
      <trkpt lat="42.97747" lon="0.26394">
        <ele>1510</ele>
        <time>2018-12-04T13:55:21Z</time>
      </trkpt>
      <trkpt lat="42.97743" lon="0.26393">
        <ele>1510</ele>
        <time>2018-12-04T13:55:51Z</time>
      </trkpt>
      <trkpt lat="42.97739" lon="0.26393">
        <ele>1509</ele>
        <time>2018-12-04T13:55:56Z</time>
      </trkpt>
      <trkpt lat="42.97736" lon="0.2639">
        <ele>1509</ele>
        <time>2018-12-04T13:56:02Z</time>
      </trkpt>
      <trkpt lat="42.97729" lon="0.26385">
        <ele>1508</ele>
        <time>2018-12-04T13:56:15Z</time>
      </trkpt>
      <trkpt lat="42.97725" lon="0.26391">
        <ele>1508</ele>
        <time>2018-12-04T13:56:30Z</time>
      </trkpt>
      <trkpt lat="42.97721" lon="0.26388">
        <ele>1507</ele>
        <time>2018-12-04T13:56:50Z</time>
      </trkpt>
      <trkpt lat="42.97714" lon="0.2638">
        <ele>1506</ele>
        <time>2018-12-04T13:56:57Z</time>
      </trkpt>
      <trkpt lat="42.97711" lon="0.26379">
        <ele>1506</ele>
        <time>2018-12-04T13:57:01Z</time>
      </trkpt>
      <trkpt lat="42.97707" lon="0.26377">
        <ele>1506</ele>
        <time>2018-12-04T13:57:05Z</time>
      </trkpt>
      <trkpt lat="42.97703" lon="0.26377">
        <ele>1505</ele>
        <time>2018-12-04T13:57:14Z</time>
      </trkpt>
      <trkpt lat="42.97695" lon="0.26371">
        <ele>1505</ele>
        <time>2018-12-04T13:57:21Z</time>
      </trkpt>
      <trkpt lat="42.97692" lon="0.26368">
        <ele>1504</ele>
        <time>2018-12-04T13:57:24Z</time>
      </trkpt>
      <trkpt lat="42.97687" lon="0.26367">
        <ele>1504</ele>
        <time>2018-12-04T13:57:28Z</time>
      </trkpt>
      <trkpt lat="42.97683" lon="0.26367">
        <ele>1504</ele>
        <time>2018-12-04T13:57:32Z</time>
      </trkpt>
      <trkpt lat="42.97681" lon="0.26364">
        <ele>1504</ele>
        <time>2018-12-04T13:57:35Z</time>
      </trkpt>
      <trkpt lat="42.97673" lon="0.26358">
        <ele>1503</ele>
        <time>2018-12-04T13:57:48Z</time>
      </trkpt>
      <trkpt lat="42.97669" lon="0.26357">
        <ele>1503</ele>
        <time>2018-12-04T13:57:54Z</time>
      </trkpt>
      <trkpt lat="42.97666" lon="0.26355">
        <ele>1502</ele>
        <time>2018-12-04T13:57:59Z</time>
      </trkpt>
      <trkpt lat="42.97659" lon="0.2635">
        <ele>1501</ele>
        <time>2018-12-04T13:58:20Z</time>
      </trkpt>
      <trkpt lat="42.97652" lon="0.26344">
        <ele>1500</ele>
        <time>2018-12-04T13:58:32Z</time>
      </trkpt>
      <trkpt lat="42.97654" lon="0.26348">
        <ele>1499</ele>
        <time>2018-12-04T13:59:07Z</time>
      </trkpt>
      <trkpt lat="42.97654" lon="0.26353">
        <ele>1498</ele>
        <time>2018-12-04T14:00:47Z</time>
      </trkpt>
      <trkpt lat="42.9765" lon="0.26354">
        <ele>1492</ele>
        <time>2018-12-04T14:01:37Z</time>
      </trkpt>
      <trkpt lat="42.97646" lon="0.26351">
        <ele>1491</ele>
        <time>2018-12-04T14:01:40Z</time>
      </trkpt>
      <trkpt lat="42.9764" lon="0.26344">
        <ele>1489</ele>
        <time>2018-12-04T14:01:47Z</time>
      </trkpt>
      <trkpt lat="42.97636" lon="0.26342">
        <ele>1489</ele>
        <time>2018-12-04T14:01:51Z</time>
      </trkpt>
      <trkpt lat="42.97624" lon="0.26332">
        <ele>1486</ele>
        <time>2018-12-04T14:02:25Z</time>
      </trkpt>
      <trkpt lat="42.9762" lon="0.2633">
        <ele>1485</ele>
        <time>2018-12-04T14:02:29Z</time>
      </trkpt>
      <trkpt lat="42.97615" lon="0.26329">
        <ele>1484</ele>
        <time>2018-12-04T14:02:33Z</time>
      </trkpt>
      <trkpt lat="42.97608" lon="0.26325">
        <ele>1483</ele>
        <time>2018-12-04T14:02:41Z</time>
      </trkpt>
      <trkpt lat="42.976" lon="0.26324">
        <ele>1482</ele>
        <time>2018-12-04T14:02:49Z</time>
      </trkpt>
      <trkpt lat="42.97592" lon="0.26322">
        <ele>1481</ele>
        <time>2018-12-04T14:02:57Z</time>
      </trkpt>
      <trkpt lat="42.97588" lon="0.26322">
        <ele>1481</ele>
        <time>2018-12-04T14:03:02Z</time>
      </trkpt>
      <trkpt lat="42.97584" lon="0.2632">
        <ele>1481</ele>
        <time>2018-12-04T14:03:06Z</time>
      </trkpt>
      <trkpt lat="42.97581" lon="0.26317">
        <ele>1480</ele>
        <time>2018-12-04T14:03:10Z</time>
      </trkpt>
      <trkpt lat="42.97577" lon="0.26313">
        <ele>1480</ele>
        <time>2018-12-04T14:03:13Z</time>
      </trkpt>
      <trkpt lat="42.97574" lon="0.26311">
        <ele>1480</ele>
        <time>2018-12-04T14:03:17Z</time>
      </trkpt>
      <trkpt lat="42.9757" lon="0.2631">
        <ele>1479</ele>
        <time>2018-12-04T14:03:23Z</time>
      </trkpt>
      <trkpt lat="42.97565" lon="0.26308">
        <ele>1479</ele>
        <time>2018-12-04T14:03:29Z</time>
      </trkpt>
      <trkpt lat="42.97561" lon="0.26307">
        <ele>1478</ele>
        <time>2018-12-04T14:03:32Z</time>
      </trkpt>
      <trkpt lat="42.9755" lon="0.26309">
        <ele>1477</ele>
        <time>2018-12-04T14:03:45Z</time>
      </trkpt>
      <trkpt lat="42.97542" lon="0.26305">
        <ele>1477</ele>
        <time>2018-12-04T14:03:51Z</time>
      </trkpt>
      <trkpt lat="42.9753" lon="0.26304">
        <ele>1475</ele>
        <time>2018-12-04T14:04:06Z</time>
      </trkpt>
      <trkpt lat="42.97512" lon="0.26293">
        <ele>1472</ele>
        <time>2018-12-04T14:04:30Z</time>
      </trkpt>
      <trkpt lat="42.97504" lon="0.26293">
        <ele>1471</ele>
        <time>2018-12-04T14:04:37Z</time>
      </trkpt>
      <trkpt lat="42.97499" lon="0.26292">
        <ele>1470</ele>
        <time>2018-12-04T14:04:40Z</time>
      </trkpt>
      <trkpt lat="42.97495" lon="0.26292">
        <ele>1470</ele>
        <time>2018-12-04T14:04:43Z</time>
      </trkpt>
      <trkpt lat="42.97491" lon="0.26292">
        <ele>1469</ele>
        <time>2018-12-04T14:04:47Z</time>
      </trkpt>
      <trkpt lat="42.97487" lon="0.26292">
        <ele>1468</ele>
        <time>2018-12-04T14:04:52Z</time>
      </trkpt>
      <trkpt lat="42.97483" lon="0.26293">
        <ele>1467</ele>
        <time>2018-12-04T14:04:57Z</time>
      </trkpt>
      <trkpt lat="42.97468" lon="0.26298">
        <ele>1464</ele>
        <time>2018-12-04T14:05:14Z</time>
      </trkpt>
      <trkpt lat="42.97464" lon="0.26297">
        <ele>1463</ele>
        <time>2018-12-04T14:05:19Z</time>
      </trkpt>
      <trkpt lat="42.97461" lon="0.26293">
        <ele>1462</ele>
        <time>2018-12-04T14:05:23Z</time>
      </trkpt>
      <trkpt lat="42.97454" lon="0.26288">
        <ele>1460</ele>
        <time>2018-12-04T14:05:43Z</time>
      </trkpt>
      <trkpt lat="42.97451" lon="0.26292">
        <ele>1458</ele>
        <time>2018-12-04T14:06:48Z</time>
      </trkpt>
      <trkpt lat="42.97447" lon="0.26293">
        <ele>1454</ele>
        <time>2018-12-04T14:07:10Z</time>
      </trkpt>
      <trkpt lat="42.97432" lon="0.26293">
        <ele>1447</ele>
        <time>2018-12-04T14:07:35Z</time>
      </trkpt>
      <trkpt lat="42.97429" lon="0.2629">
        <ele>1446</ele>
        <time>2018-12-04T14:07:39Z</time>
      </trkpt>
      <trkpt lat="42.97425" lon="0.26291">
        <ele>1444</ele>
        <time>2018-12-04T14:07:44Z</time>
      </trkpt>
      <trkpt lat="42.97422" lon="0.26293">
        <ele>1443</ele>
        <time>2018-12-04T14:08:05Z</time>
      </trkpt>
      <trkpt lat="42.97421" lon="0.26288">
        <ele>1442</ele>
        <time>2018-12-04T14:08:15Z</time>
      </trkpt>
      <trkpt lat="42.9742" lon="0.26283">
        <ele>1439</ele>
        <time>2018-12-04T14:08:25Z</time>
      </trkpt>
      <trkpt lat="42.9742" lon="0.26277">
        <ele>1438</ele>
        <time>2018-12-04T14:08:31Z</time>
      </trkpt>
      <trkpt lat="42.97418" lon="0.26272">
        <ele>1437</ele>
        <time>2018-12-04T14:08:35Z</time>
      </trkpt>
      <trkpt lat="42.97415" lon="0.2627">
        <ele>1435</ele>
        <time>2018-12-04T14:09:00Z</time>
      </trkpt>
      <trkpt lat="42.97411" lon="0.2627">
        <ele>1434</ele>
        <time>2018-12-04T14:09:06Z</time>
      </trkpt>
      <trkpt lat="42.97408" lon="0.26268">
        <ele>1433</ele>
        <time>2018-12-04T14:09:09Z</time>
      </trkpt>
      <trkpt lat="42.97396" lon="0.26265">
        <ele>1430</ele>
        <time>2018-12-04T14:09:35Z</time>
      </trkpt>
      <trkpt lat="42.97393" lon="0.26262">
        <ele>1429</ele>
        <time>2018-12-04T14:09:41Z</time>
      </trkpt>
      <trkpt lat="42.9739" lon="0.2626">
        <ele>1428</ele>
        <time>2018-12-04T14:09:48Z</time>
      </trkpt>
      <trkpt lat="42.97387" lon="0.26256">
        <ele>1428</ele>
        <time>2018-12-04T14:09:54Z</time>
      </trkpt>
      <trkpt lat="42.97384" lon="0.26252">
        <ele>1426</ele>
        <time>2018-12-04T14:10:02Z</time>
      </trkpt>
      <trkpt lat="42.9738" lon="0.2625">
        <ele>1426</ele>
        <time>2018-12-04T14:10:06Z</time>
      </trkpt>
      <trkpt lat="42.97377" lon="0.26248">
        <ele>1425</ele>
        <time>2018-12-04T14:10:11Z</time>
      </trkpt>
      <trkpt lat="42.97376" lon="0.26242">
        <ele>1425</ele>
        <time>2018-12-04T14:10:15Z</time>
      </trkpt>
      <trkpt lat="42.97374" lon="0.26238">
        <ele>1424</ele>
        <time>2018-12-04T14:10:18Z</time>
      </trkpt>
      <trkpt lat="42.9737" lon="0.26237">
        <ele>1424</ele>
        <time>2018-12-04T14:10:23Z</time>
      </trkpt>
      <trkpt lat="42.97364" lon="0.26233">
        <ele>1423</ele>
        <time>2018-12-04T14:10:33Z</time>
      </trkpt>
      <trkpt lat="42.97352" lon="0.26228">
        <ele>1420</ele>
        <time>2018-12-04T14:10:51Z</time>
      </trkpt>
      <trkpt lat="42.97349" lon="0.26224">
        <ele>1419</ele>
        <time>2018-12-04T14:10:54Z</time>
      </trkpt>
      <trkpt lat="42.97348" lon="0.26218">
        <ele>1418</ele>
        <time>2018-12-04T14:10:58Z</time>
      </trkpt>
      <trkpt lat="42.9734" lon="0.26218">
        <ele>1417</ele>
        <time>2018-12-04T14:11:07Z</time>
      </trkpt>
      <trkpt lat="42.97322" lon="0.26217">
        <ele>1412</ele>
        <time>2018-12-04T14:11:27Z</time>
      </trkpt>
      <trkpt lat="42.97318" lon="0.26217">
        <ele>1411</ele>
        <time>2018-12-04T14:11:32Z</time>
      </trkpt>
      <trkpt lat="42.97314" lon="0.26217">
        <ele>1410</ele>
        <time>2018-12-04T14:11:37Z</time>
      </trkpt>
      <trkpt lat="42.97299" lon="0.26208">
        <ele>1406</ele>
        <time>2018-12-04T14:11:54Z</time>
      </trkpt>
      <trkpt lat="42.97282" lon="0.26208">
        <ele>1400</ele>
        <time>2018-12-04T14:12:13Z</time>
      </trkpt>
      <trkpt lat="42.97278" lon="0.26207">
        <ele>1398</ele>
        <time>2018-12-04T14:12:22Z</time>
      </trkpt>
      <trkpt lat="42.97274" lon="0.26207">
        <ele>1397</ele>
        <time>2018-12-04T14:12:31Z</time>
      </trkpt>
      <trkpt lat="42.97261" lon="0.26206">
        <ele>1390</ele>
        <time>2018-12-04T14:12:51Z</time>
      </trkpt>
      <trkpt lat="42.97252" lon="0.26206">
        <ele>1387</ele>
        <time>2018-12-04T14:12:59Z</time>
      </trkpt>
      <trkpt lat="42.97249" lon="0.26206">
        <ele>1386</ele>
        <time>2018-12-04T14:13:02Z</time>
      </trkpt>
      <trkpt lat="42.97245" lon="0.26205">
        <ele>1385</ele>
        <time>2018-12-04T14:13:05Z</time>
      </trkpt>
      <trkpt lat="42.97241" lon="0.26203">
        <ele>1384</ele>
        <time>2018-12-04T14:13:09Z</time>
      </trkpt>
      <trkpt lat="42.97239" lon="0.26199">
        <ele>1383</ele>
        <time>2018-12-04T14:13:17Z</time>
      </trkpt>
      <trkpt lat="42.97229" lon="0.26191">
        <ele>1378</ele>
        <time>2018-12-04T14:14:35Z</time>
      </trkpt>
      <trkpt lat="42.97225" lon="0.26192">
        <ele>1377</ele>
        <time>2018-12-04T14:14:50Z</time>
      </trkpt>
      <trkpt lat="42.97222" lon="0.26194">
        <ele>1375</ele>
        <time>2018-12-04T14:14:53Z</time>
      </trkpt>
      <trkpt lat="42.97214" lon="0.26198">
        <ele>1373</ele>
        <time>2018-12-04T14:15:01Z</time>
      </trkpt>
      <trkpt lat="42.9721" lon="0.26197">
        <ele>1372</ele>
        <time>2018-12-04T14:15:06Z</time>
      </trkpt>
      <trkpt lat="42.97206" lon="0.26197">
        <ele>1371</ele>
        <time>2018-12-04T14:15:10Z</time>
      </trkpt>
      <trkpt lat="42.97202" lon="0.26196">
        <ele>1370</ele>
        <time>2018-12-04T14:15:13Z</time>
      </trkpt>
      <trkpt lat="42.97198" lon="0.26195">
        <ele>1369</ele>
        <time>2018-12-04T14:15:17Z</time>
      </trkpt>
      <trkpt lat="42.97195" lon="0.26196">
        <ele>1368</ele>
        <time>2018-12-04T14:15:21Z</time>
      </trkpt>
      <trkpt lat="42.97183" lon="0.26199">
        <ele>1366</ele>
        <time>2018-12-04T14:15:32Z</time>
      </trkpt>
      <trkpt lat="42.97175" lon="0.26203">
        <ele>1364</ele>
        <time>2018-12-04T14:15:39Z</time>
      </trkpt>
      <trkpt lat="42.97163" lon="0.26202">
        <ele>1362</ele>
        <time>2018-12-04T14:15:50Z</time>
      </trkpt>
      <trkpt lat="42.9716" lon="0.26204">
        <ele>1361</ele>
        <time>2018-12-04T14:15:53Z</time>
      </trkpt>
      <trkpt lat="42.97145" lon="0.26207">
        <ele>1359</ele>
        <time>2018-12-04T14:16:05Z</time>
      </trkpt>
      <trkpt lat="42.97141" lon="0.26208">
        <ele>1358</ele>
        <time>2018-12-04T14:16:10Z</time>
      </trkpt>
      <trkpt lat="42.97138" lon="0.26211">
        <ele>1357</ele>
        <time>2018-12-04T14:16:15Z</time>
      </trkpt>
      <trkpt lat="42.97135" lon="0.26214">
        <ele>1357</ele>
        <time>2018-12-04T14:16:18Z</time>
      </trkpt>
      <trkpt lat="42.97118" lon="0.26218">
        <ele>1354</ele>
        <time>2018-12-04T14:16:34Z</time>
      </trkpt>
      <trkpt lat="42.97115" lon="0.26219">
        <ele>1353</ele>
        <time>2018-12-04T14:16:37Z</time>
      </trkpt>
      <trkpt lat="42.9711" lon="0.26217">
        <ele>1352</ele>
        <time>2018-12-04T14:16:45Z</time>
      </trkpt>
      <trkpt lat="42.97106" lon="0.26214">
        <ele>1351</ele>
        <time>2018-12-04T14:17:08Z</time>
      </trkpt>
      <trkpt lat="42.97086" lon="0.26217">
        <ele>1347</ele>
        <time>2018-12-04T14:17:26Z</time>
      </trkpt>
      <trkpt lat="42.97078" lon="0.26217">
        <ele>1346</ele>
        <time>2018-12-04T14:17:34Z</time>
      </trkpt>
      <trkpt lat="42.97074" lon="0.26216">
        <ele>1345</ele>
        <time>2018-12-04T14:17:37Z</time>
      </trkpt>
      <trkpt lat="42.9707" lon="0.26215">
        <ele>1344</ele>
        <time>2018-12-04T14:18:01Z</time>
      </trkpt>
      <trkpt lat="42.97067" lon="0.26217">
        <ele>1343</ele>
        <time>2018-12-04T14:18:08Z</time>
      </trkpt>
      <trkpt lat="42.97063" lon="0.26219">
        <ele>1341</ele>
        <time>2018-12-04T14:18:21Z</time>
      </trkpt>
      <trkpt lat="42.97061" lon="0.26213">
        <ele>1340</ele>
        <time>2018-12-04T14:18:24Z</time>
      </trkpt>
      <trkpt lat="42.97061" lon="0.26207">
        <ele>1340</ele>
        <time>2018-12-04T14:18:27Z</time>
      </trkpt>
      <trkpt lat="42.9706" lon="0.26195">
        <ele>1339</ele>
        <time>2018-12-04T14:18:33Z</time>
      </trkpt>
      <trkpt lat="42.97058" lon="0.2619">
        <ele>1338</ele>
        <time>2018-12-04T14:18:36Z</time>
      </trkpt>
      <trkpt lat="42.97056" lon="0.26185">
        <ele>1338</ele>
        <time>2018-12-04T14:18:39Z</time>
      </trkpt>
      <trkpt lat="42.97054" lon="0.26168">
        <ele>1336</ele>
        <time>2018-12-04T14:18:48Z</time>
      </trkpt>
      <trkpt lat="42.97051" lon="0.26165">
        <ele>1335</ele>
        <time>2018-12-04T14:18:55Z</time>
      </trkpt>
      <trkpt lat="42.9705" lon="0.2616">
        <ele>1335</ele>
        <time>2018-12-04T14:18:58Z</time>
      </trkpt>
      <trkpt lat="42.97055" lon="0.26143">
        <ele>1333</ele>
        <time>2018-12-04T14:19:09Z</time>
      </trkpt>
      <trkpt lat="42.9706" lon="0.26133">
        <ele>1332</ele>
        <time>2018-12-04T14:19:19Z</time>
      </trkpt>
      <trkpt lat="42.97063" lon="0.26129">
        <ele>1331</ele>
        <time>2018-12-04T14:19:22Z</time>
      </trkpt>
      <trkpt lat="42.97075" lon="0.26106">
        <ele>1329</ele>
        <time>2018-12-04T14:19:36Z</time>
      </trkpt>
      <trkpt lat="42.97082" lon="0.26099">
        <ele>1329</ele>
        <time>2018-12-04T14:19:42Z</time>
      </trkpt>
      <trkpt lat="42.97089" lon="0.26088">
        <ele>1328</ele>
        <time>2018-12-04T14:19:51Z</time>
      </trkpt>
      <trkpt lat="42.971" lon="0.26077">
        <ele>1326</ele>
        <time>2018-12-04T14:20:01Z</time>
      </trkpt>
      <trkpt lat="42.97103" lon="0.26073">
        <ele>1326</ele>
        <time>2018-12-04T14:20:05Z</time>
      </trkpt>
      <trkpt lat="42.97111" lon="0.26061">
        <ele>1325</ele>
        <time>2018-12-04T14:20:14Z</time>
      </trkpt>
      <trkpt lat="42.97129" lon="0.26046">
        <ele>1324</ele>
        <time>2018-12-04T14:20:30Z</time>
      </trkpt>
      <trkpt lat="42.97153" lon="0.26013">
        <ele>1321</ele>
        <time>2018-12-04T14:21:01Z</time>
      </trkpt>
      <trkpt lat="42.97164" lon="0.26004">
        <ele>1320</ele>
        <time>2018-12-04T14:21:08Z</time>
      </trkpt>
      <trkpt lat="42.97169" lon="0.26001">
        <ele>1320</ele>
        <time>2018-12-04T14:21:11Z</time>
      </trkpt>
      <trkpt lat="42.97187" lon="0.25982">
        <ele>1318</ele>
        <time>2018-12-04T14:21:32Z</time>
      </trkpt>
      <trkpt lat="42.97192" lon="0.25974">
        <ele>1317</ele>
        <time>2018-12-04T14:21:38Z</time>
      </trkpt>
      <trkpt lat="42.97226" lon="0.25942">
        <ele>1313</ele>
        <time>2018-12-04T14:22:08Z</time>
      </trkpt>
      <trkpt lat="42.97238" lon="0.25933">
        <ele>1312</ele>
        <time>2018-12-04T14:22:17Z</time>
      </trkpt>
      <trkpt lat="42.97251" lon="0.25916">
        <ele>1310</ele>
        <time>2018-12-04T14:22:29Z</time>
      </trkpt>
      <trkpt lat="42.97265" lon="0.25916">
        <ele>1308</ele>
        <time>2018-12-04T14:22:47Z</time>
      </trkpt>
      <trkpt lat="42.97265" lon="0.25917">
        <ele>1306</ele>
        <time>2018-12-04T14:23:43Z</time>
      </trkpt>
      <trkpt lat="42.9727" lon="0.25914">
        <ele>1305</ele>
        <time>2018-12-04T14:23:59Z</time>
      </trkpt>
      <trkpt lat="42.97292" lon="0.25902">
        <ele>1300</ele>
        <time>2018-12-04T14:24:13Z</time>
      </trkpt>
      <trkpt lat="42.97297" lon="0.25901">
        <ele>1298</ele>
        <time>2018-12-04T14:24:18Z</time>
      </trkpt>
      <trkpt lat="42.9731" lon="0.25898">
        <ele>1296</ele>
        <time>2018-12-04T14:24:28Z</time>
      </trkpt>
      <trkpt lat="42.97314" lon="0.25896">
        <ele>1296</ele>
        <time>2018-12-04T14:24:32Z</time>
      </trkpt>
      <trkpt lat="42.97317" lon="0.25892">
        <ele>1295</ele>
        <time>2018-12-04T14:24:37Z</time>
      </trkpt>
      <trkpt lat="42.97328" lon="0.25887">
        <ele>1293</ele>
        <time>2018-12-04T14:24:46Z</time>
      </trkpt>
      <trkpt lat="42.97333" lon="0.25885">
        <ele>1293</ele>
        <time>2018-12-04T14:24:49Z</time>
      </trkpt>
      <trkpt lat="42.97339" lon="0.25883">
        <ele>1292</ele>
        <time>2018-12-04T14:24:57Z</time>
      </trkpt>
      <trkpt lat="42.9735" lon="0.25876">
        <ele>1290</ele>
        <time>2018-12-04T14:25:11Z</time>
      </trkpt>
      <trkpt lat="42.97356" lon="0.25873">
        <ele>1289</ele>
        <time>2018-12-04T14:25:14Z</time>
      </trkpt>
      <trkpt lat="42.97361" lon="0.2587">
        <ele>1288</ele>
        <time>2018-12-04T14:25:19Z</time>
      </trkpt>
      <trkpt lat="42.97387" lon="0.25848">
        <ele>1285</ele>
        <time>2018-12-04T14:25:46Z</time>
      </trkpt>
      <trkpt lat="42.97393" lon="0.25844">
        <ele>1285</ele>
        <time>2018-12-04T14:25:50Z</time>
      </trkpt>
      <trkpt lat="42.97434" lon="0.25824">
        <ele>1282</ele>
        <time>2018-12-04T14:26:16Z</time>
      </trkpt>
      <trkpt lat="42.9744" lon="0.25824">
        <ele>1281</ele>
        <time>2018-12-04T14:26:26Z</time>
      </trkpt>
      <trkpt lat="42.97446" lon="0.25824">
        <ele>1281</ele>
        <time>2018-12-04T14:26:30Z</time>
      </trkpt>
      <trkpt lat="42.97452" lon="0.2582">
        <ele>1280</ele>
        <time>2018-12-04T14:26:33Z</time>
      </trkpt>
      <trkpt lat="42.97457" lon="0.25814">
        <ele>1280</ele>
        <time>2018-12-04T14:26:38Z</time>
      </trkpt>
      <trkpt lat="42.97458" lon="0.25807">
        <ele>1279</ele>
        <time>2018-12-04T14:26:43Z</time>
      </trkpt>
      <trkpt lat="42.97458" lon="0.25801">
        <ele>1279</ele>
        <time>2018-12-04T14:26:45Z</time>
      </trkpt>
      <trkpt lat="42.97458" lon="0.25795">
        <ele>1279</ele>
        <time>2018-12-04T14:26:48Z</time>
      </trkpt>
      <trkpt lat="42.97456" lon="0.2579">
        <ele>1278</ele>
        <time>2018-12-04T14:26:51Z</time>
      </trkpt>
      <trkpt lat="42.97447" lon="0.25773">
        <ele>1277</ele>
        <time>2018-12-04T14:27:09Z</time>
      </trkpt>
      <trkpt lat="42.97444" lon="0.25768">
        <ele>1277</ele>
        <time>2018-12-04T14:27:12Z</time>
      </trkpt>
      <trkpt lat="42.97442" lon="0.25763">
        <ele>1276</ele>
        <time>2018-12-04T14:27:16Z</time>
      </trkpt>
      <trkpt lat="42.9744" lon="0.25758">
        <ele>1276</ele>
        <time>2018-12-04T14:27:19Z</time>
      </trkpt>
      <trkpt lat="42.97438" lon="0.25754">
        <ele>1276</ele>
        <time>2018-12-04T14:27:22Z</time>
      </trkpt>
      <trkpt lat="42.97431" lon="0.25748">
        <ele>1275</ele>
        <time>2018-12-04T14:27:31Z</time>
      </trkpt>
      <trkpt lat="42.97428" lon="0.25743">
        <ele>1274</ele>
        <time>2018-12-04T14:27:35Z</time>
      </trkpt>
      <trkpt lat="42.97424" lon="0.25738">
        <ele>1274</ele>
        <time>2018-12-04T14:27:41Z</time>
      </trkpt>
      <trkpt lat="42.97422" lon="0.25734">
        <ele>1273</ele>
        <time>2018-12-04T14:27:45Z</time>
      </trkpt>
      <trkpt lat="42.9742" lon="0.25729">
        <ele>1273</ele>
        <time>2018-12-04T14:27:48Z</time>
      </trkpt>
      <trkpt lat="42.97418" lon="0.25724">
        <ele>1273</ele>
        <time>2018-12-04T14:27:50Z</time>
      </trkpt>
      <trkpt lat="42.97414" lon="0.25721">
        <ele>1273</ele>
        <time>2018-12-04T14:27:54Z</time>
      </trkpt>
      <trkpt lat="42.97413" lon="0.25716">
        <ele>1272</ele>
        <time>2018-12-04T14:28:00Z</time>
      </trkpt>
      <trkpt lat="42.97413" lon="0.25711">
        <ele>1272</ele>
        <time>2018-12-04T14:28:03Z</time>
      </trkpt>
      <trkpt lat="42.97411" lon="0.25705">
        <ele>1271</ele>
        <time>2018-12-04T14:28:06Z</time>
      </trkpt>
      <trkpt lat="42.97408" lon="0.25699">
        <ele>1271</ele>
        <time>2018-12-04T14:28:09Z</time>
      </trkpt>
      <trkpt lat="42.97405" lon="0.25698">
        <ele>1271</ele>
        <time>2018-12-04T14:28:15Z</time>
      </trkpt>
      <trkpt lat="42.97404" lon="0.25691">
        <ele>1270</ele>
        <time>2018-12-04T14:28:19Z</time>
      </trkpt>
      <trkpt lat="42.97402" lon="0.25686">
        <ele>1270</ele>
        <time>2018-12-04T14:28:34Z</time>
      </trkpt>
      <trkpt lat="42.97403" lon="0.25682">
        <ele>1269</ele>
        <time>2018-12-04T14:28:45Z</time>
      </trkpt>
      <trkpt lat="42.97401" lon="0.25676">
        <ele>1269</ele>
        <time>2018-12-04T14:28:54Z</time>
      </trkpt>
      <trkpt lat="42.97402" lon="0.2567">
        <ele>1269</ele>
        <time>2018-12-04T14:28:57Z</time>
      </trkpt>
      <trkpt lat="42.97397" lon="0.2565">
        <ele>1267</ele>
        <time>2018-12-04T14:29:10Z</time>
      </trkpt>
      <trkpt lat="42.97395" lon="0.25645">
        <ele>1267</ele>
        <time>2018-12-04T14:29:14Z</time>
      </trkpt>
      <trkpt lat="42.97391" lon="0.25642">
        <ele>1267</ele>
        <time>2018-12-04T14:29:18Z</time>
      </trkpt>
      <trkpt lat="42.97383" lon="0.2563">
        <ele>1265</ele>
        <time>2018-12-04T14:29:33Z</time>
      </trkpt>
      <trkpt lat="42.97381" lon="0.25625">
        <ele>1265</ele>
        <time>2018-12-04T14:29:39Z</time>
      </trkpt>
      <trkpt lat="42.9738" lon="0.2562">
        <ele>1265</ele>
        <time>2018-12-04T14:29:43Z</time>
      </trkpt>
      <trkpt lat="42.97384" lon="0.25608">
        <ele>1264</ele>
        <time>2018-12-04T14:29:49Z</time>
      </trkpt>
      <trkpt lat="42.97393" lon="0.25597">
        <ele>1263</ele>
        <time>2018-12-04T14:29:57Z</time>
      </trkpt>
      <trkpt lat="42.97396" lon="0.25594">
        <ele>1263</ele>
        <time>2018-12-04T14:30:00Z</time>
      </trkpt>
      <trkpt lat="42.97401" lon="0.2559">
        <ele>1263</ele>
        <time>2018-12-04T14:30:06Z</time>
      </trkpt>
      <trkpt lat="42.97403" lon="0.25585">
        <ele>1263</ele>
        <time>2018-12-04T14:30:13Z</time>
      </trkpt>
      <trkpt lat="42.97403" lon="0.2558">
        <ele>1262</ele>
        <time>2018-12-04T14:30:20Z</time>
      </trkpt>
      <trkpt lat="42.97404" lon="0.25569">
        <ele>1262</ele>
        <time>2018-12-04T14:30:30Z</time>
      </trkpt>
      <trkpt lat="42.97401" lon="0.25565">
        <ele>1261</ele>
        <time>2018-12-04T14:30:35Z</time>
      </trkpt>
      <trkpt lat="42.97389" lon="0.25572">
        <ele>1261</ele>
        <time>2018-12-04T14:30:46Z</time>
      </trkpt>
      <trkpt lat="42.97387" lon="0.25577">
        <ele>1260</ele>
        <time>2018-12-04T14:30:50Z</time>
      </trkpt>
      <trkpt lat="42.97385" lon="0.2558">
        <ele>1260</ele>
        <time>2018-12-04T14:30:53Z</time>
      </trkpt>
      <trkpt lat="42.97381" lon="0.25583">
        <ele>1260</ele>
        <time>2018-12-04T14:30:57Z</time>
      </trkpt>
      <trkpt lat="42.97371" lon="0.25592">
        <ele>1260</ele>
        <time>2018-12-04T14:31:02Z</time>
      </trkpt>
      <trkpt lat="42.97366" lon="0.25594">
        <ele>1260</ele>
        <time>2018-12-04T14:31:05Z</time>
      </trkpt>
      <trkpt lat="42.97359" lon="0.25605">
        <ele>1259</ele>
        <time>2018-12-04T14:31:13Z</time>
      </trkpt>
      <trkpt lat="42.97359" lon="0.25599">
        <ele>1259</ele>
        <time>2018-12-04T14:31:20Z</time>
      </trkpt>
      <trkpt lat="42.97356" lon="0.25595">
        <ele>1258</ele>
        <time>2018-12-04T14:31:47Z</time>
      </trkpt>
      <trkpt lat="42.97357" lon="0.2559">
        <ele>1257</ele>
        <time>2018-12-04T14:31:54Z</time>
      </trkpt>
      <trkpt lat="42.97353" lon="0.25593">
        <ele>1257</ele>
        <time>2018-12-04T14:32:12Z</time>
      </trkpt>
      <trkpt lat="42.97353" lon="0.25587">
        <ele>1257</ele>
        <time>2018-12-04T14:32:56Z</time>
      </trkpt>
      <trkpt lat="42.9735" lon="0.25585">
        <ele>1255</ele>
        <time>2018-12-04T14:33:10Z</time>
      </trkpt>
      <trkpt lat="42.97344" lon="0.25587">
        <ele>1255</ele>
        <time>2018-12-04T14:33:29Z</time>
      </trkpt>
      <trkpt lat="42.97338" lon="0.25585">
        <ele>1254</ele>
        <time>2018-12-04T14:33:38Z</time>
      </trkpt>
      <trkpt lat="42.97334" lon="0.25581">
        <ele>1253</ele>
        <time>2018-12-04T14:33:42Z</time>
      </trkpt>
      <trkpt lat="42.9733" lon="0.25574">
        <ele>1253</ele>
        <time>2018-12-04T14:33:45Z</time>
      </trkpt>
      <trkpt lat="42.97329" lon="0.25567">
        <ele>1252</ele>
        <time>2018-12-04T14:33:50Z</time>
      </trkpt>
      <trkpt lat="42.97326" lon="0.25561">
        <ele>1252</ele>
        <time>2018-12-04T14:33:55Z</time>
      </trkpt>
      <trkpt lat="42.97322" lon="0.25556">
        <ele>1251</ele>
        <time>2018-12-04T14:34:03Z</time>
      </trkpt>
      <trkpt lat="42.97315" lon="0.25555">
        <ele>1250</ele>
        <time>2018-12-04T14:34:09Z</time>
      </trkpt>
      <trkpt lat="42.97309" lon="0.2555">
        <ele>1250</ele>
        <time>2018-12-04T14:34:16Z</time>
      </trkpt>
      <trkpt lat="42.97301" lon="0.25549">
        <ele>1248</ele>
        <time>2018-12-04T14:34:25Z</time>
      </trkpt>
      <trkpt lat="42.97295" lon="0.25536">
        <ele>1247</ele>
        <time>2018-12-04T14:34:37Z</time>
      </trkpt>
      <trkpt lat="42.97292" lon="0.2553">
        <ele>1247</ele>
        <time>2018-12-04T14:34:42Z</time>
      </trkpt>
      <trkpt lat="42.97286" lon="0.25519">
        <ele>1245</ele>
        <time>2018-12-04T14:34:57Z</time>
      </trkpt>
      <trkpt lat="42.97284" lon="0.25515">
        <ele>1244</ele>
        <time>2018-12-04T14:35:03Z</time>
      </trkpt>
      <trkpt lat="42.97267" lon="0.25498">
        <ele>1241</ele>
        <time>2018-12-04T14:35:22Z</time>
      </trkpt>
      <trkpt lat="42.97264" lon="0.25491">
        <ele>1240</ele>
        <time>2018-12-04T14:35:28Z</time>
      </trkpt>
      <trkpt lat="42.97259" lon="0.25488">
        <ele>1240</ele>
        <time>2018-12-04T14:35:32Z</time>
      </trkpt>
      <trkpt lat="42.97251" lon="0.25477">
        <ele>1238</ele>
        <time>2018-12-04T14:35:44Z</time>
      </trkpt>
      <trkpt lat="42.97247" lon="0.25471">
        <ele>1236</ele>
        <time>2018-12-04T14:35:51Z</time>
      </trkpt>
      <trkpt lat="42.97244" lon="0.25464">
        <ele>1236</ele>
        <time>2018-12-04T14:35:56Z</time>
      </trkpt>
      <trkpt lat="42.97235" lon="0.25452">
        <ele>1232</ele>
        <time>2018-12-04T14:36:08Z</time>
      </trkpt>
      <trkpt lat="42.97213" lon="0.25429">
        <ele>1225</ele>
        <time>2018-12-04T14:36:33Z</time>
      </trkpt>
      <trkpt lat="42.97209" lon="0.25424">
        <ele>1223</ele>
        <time>2018-12-04T14:36:39Z</time>
      </trkpt>
      <trkpt lat="42.97206" lon="0.25428">
        <ele>1221</ele>
        <time>2018-12-04T14:36:47Z</time>
      </trkpt>
      <trkpt lat="42.97206" lon="0.2542">
        <ele>1210</ele>
        <time>2018-12-04T14:38:22Z</time>
      </trkpt>
      <trkpt lat="42.97203" lon="0.25414">
        <ele>1201</ele>
        <time>2018-12-04T14:38:29Z</time>
      </trkpt>
      <trkpt lat="42.97199" lon="0.25409">
        <ele>1197</ele>
        <time>2018-12-04T14:39:14Z</time>
      </trkpt>
      <trkpt lat="42.97197" lon="0.25405">
        <ele>1194</ele>
        <time>2018-12-04T14:39:29Z</time>
      </trkpt>
      <trkpt lat="42.97195" lon="0.25397">
        <ele>1191</ele>
        <time>2018-12-04T14:39:41Z</time>
      </trkpt>
      <trkpt lat="42.9719" lon="0.25393">
        <ele>1190</ele>
        <time>2018-12-04T14:39:48Z</time>
      </trkpt>
      <trkpt lat="42.97185" lon="0.25387">
        <ele>1189</ele>
        <time>2018-12-04T14:39:56Z</time>
      </trkpt>
      <trkpt lat="42.9718" lon="0.25378">
        <ele>1188</ele>
        <time>2018-12-04T14:40:02Z</time>
      </trkpt>
      <trkpt lat="42.9716" lon="0.25346">
        <ele>1185</ele>
        <time>2018-12-04T14:40:32Z</time>
      </trkpt>
      <trkpt lat="42.9714" lon="0.25313">
        <ele>1182</ele>
        <time>2018-12-04T14:41:00Z</time>
      </trkpt>
      <trkpt lat="42.97132" lon="0.25301">
        <ele>1181</ele>
        <time>2018-12-04T14:41:09Z</time>
      </trkpt>
      <trkpt lat="42.97129" lon="0.25293">
        <ele>1181</ele>
        <time>2018-12-04T14:41:14Z</time>
      </trkpt>
      <trkpt lat="42.97129" lon="0.25277">
        <ele>1180</ele>
        <time>2018-12-04T14:41:26Z</time>
      </trkpt>
      <trkpt lat="42.97131" lon="0.25251">
        <ele>1178</ele>
        <time>2018-12-04T14:41:46Z</time>
      </trkpt>
      <trkpt lat="42.97131" lon="0.25245">
        <ele>1177</ele>
        <time>2018-12-04T14:41:50Z</time>
      </trkpt>
      <trkpt lat="42.97143" lon="0.25211">
        <ele>1174</ele>
        <time>2018-12-04T14:42:28Z</time>
      </trkpt>
      <trkpt lat="42.97145" lon="0.25206">
        <ele>1174</ele>
        <time>2018-12-04T14:42:33Z</time>
      </trkpt>
      <trkpt lat="42.97159" lon="0.25172">
        <ele>1170</ele>
        <time>2018-12-04T14:43:06Z</time>
      </trkpt>
      <trkpt lat="42.97162" lon="0.25166">
        <ele>1169</ele>
        <time>2018-12-04T14:43:11Z</time>
      </trkpt>
      <trkpt lat="42.97161" lon="0.2516">
        <ele>1168</ele>
        <time>2018-12-04T14:43:20Z</time>
      </trkpt>
      <trkpt lat="42.97155" lon="0.25148">
        <ele>1166</ele>
        <time>2018-12-04T14:43:33Z</time>
      </trkpt>
      <trkpt lat="42.97148" lon="0.25137">
        <ele>1164</ele>
        <time>2018-12-04T14:43:39Z</time>
      </trkpt>
      <trkpt lat="42.97144" lon="0.25136">
        <ele>1162</ele>
        <time>2018-12-04T14:43:45Z</time>
      </trkpt>
      <trkpt lat="42.97143" lon="0.25125">
        <ele>1156</ele>
        <time>2018-12-04T14:44:17Z</time>
      </trkpt>
      <trkpt lat="42.97139" lon="0.25126">
        <ele>1149</ele>
        <time>2018-12-04T14:44:28Z</time>
      </trkpt>
      <trkpt lat="42.97136" lon="0.25125">
        <ele>1146</ele>
        <time>2018-12-04T14:44:36Z</time>
      </trkpt>
      <trkpt lat="42.97141" lon="0.25121">
        <ele>1144</ele>
        <time>2018-12-04T14:45:01Z</time>
      </trkpt>
      <trkpt lat="42.97137" lon="0.25119">
        <ele>1142</ele>
        <time>2018-12-04T14:45:20Z</time>
      </trkpt>
      <trkpt lat="42.97137" lon="0.25115">
        <ele>1138</ele>
        <time>2018-12-04T14:45:40Z</time>
      </trkpt>
      <trkpt lat="42.97137" lon="0.2511">
        <ele>1137</ele>
        <time>2018-12-04T14:45:43Z</time>
      </trkpt>
      <trkpt lat="42.9714" lon="0.25097">
        <ele>1134</ele>
        <time>2018-12-04T14:45:53Z</time>
      </trkpt>
      <trkpt lat="42.97143" lon="0.25091">
        <ele>1132</ele>
        <time>2018-12-04T14:45:59Z</time>
      </trkpt>
      <trkpt lat="42.97146" lon="0.25088">
        <ele>1131</ele>
        <time>2018-12-04T14:46:08Z</time>
      </trkpt>
      <trkpt lat="42.97148" lon="0.25084">
        <ele>1130</ele>
        <time>2018-12-04T14:46:13Z</time>
      </trkpt>
      <trkpt lat="42.97149" lon="0.25076">
        <ele>1128</ele>
        <time>2018-12-04T14:46:24Z</time>
      </trkpt>
      <trkpt lat="42.97151" lon="0.25071">
        <ele>1126</ele>
        <time>2018-12-04T14:46:34Z</time>
      </trkpt>
      <trkpt lat="42.97154" lon="0.25054">
        <ele>1124</ele>
        <time>2018-12-04T14:46:44Z</time>
      </trkpt>
      <trkpt lat="42.97157" lon="0.25047">
        <ele>1124</ele>
        <time>2018-12-04T14:46:53Z</time>
      </trkpt>
      <trkpt lat="42.97163" lon="0.25048">
        <ele>1122</ele>
        <time>2018-12-04T14:47:04Z</time>
      </trkpt>
      <trkpt lat="42.97169" lon="0.25045">
        <ele>1122</ele>
        <time>2018-12-04T14:47:08Z</time>
      </trkpt>
      <trkpt lat="42.9718" lon="0.25043">
        <ele>1120</ele>
        <time>2018-12-04T14:47:24Z</time>
      </trkpt>
      <trkpt lat="42.97174" lon="0.25034">
        <ele>1120</ele>
        <time>2018-12-04T14:47:29Z</time>
      </trkpt>
      <trkpt lat="42.97178" lon="0.25027">
        <ele>1119</ele>
        <time>2018-12-04T14:47:34Z</time>
      </trkpt>
      <trkpt lat="42.97183" lon="0.25019">
        <ele>1118</ele>
        <time>2018-12-04T14:47:42Z</time>
      </trkpt>
      <trkpt lat="42.97188" lon="0.25011">
        <ele>1117</ele>
        <time>2018-12-04T14:47:47Z</time>
      </trkpt>
      <trkpt lat="42.97202" lon="0.25003">
        <ele>1116</ele>
        <time>2018-12-04T14:48:10Z</time>
      </trkpt>
      <trkpt lat="42.97207" lon="0.24993">
        <ele>1115</ele>
        <time>2018-12-04T14:48:20Z</time>
      </trkpt>
      <trkpt lat="42.97226" lon="0.24971">
        <ele>1114</ele>
        <time>2018-12-04T14:48:43Z</time>
      </trkpt>
      <trkpt lat="42.9723" lon="0.24957">
        <ele>1113</ele>
        <time>2018-12-04T14:48:54Z</time>
      </trkpt>
      <trkpt lat="42.97234" lon="0.24952">
        <ele>1112</ele>
        <time>2018-12-04T14:49:05Z</time>
      </trkpt>
      <trkpt lat="42.97239" lon="0.24944">
        <ele>1112</ele>
        <time>2018-12-04T14:49:16Z</time>
      </trkpt>
      <trkpt lat="42.9724" lon="0.24936">
        <ele>1111</ele>
        <time>2018-12-04T14:49:26Z</time>
      </trkpt>
      <trkpt lat="42.97241" lon="0.24929">
        <ele>1111</ele>
        <time>2018-12-04T14:49:39Z</time>
      </trkpt>
      <trkpt lat="42.97241" lon="0.24912">
        <ele>1110</ele>
        <time>2018-12-04T14:49:50Z</time>
      </trkpt>
      <trkpt lat="42.97242" lon="0.24905">
        <ele>1109</ele>
        <time>2018-12-04T14:49:59Z</time>
      </trkpt>
      <trkpt lat="42.97243" lon="0.24896">
        <ele>1109</ele>
        <time>2018-12-04T14:50:08Z</time>
      </trkpt>
      <trkpt lat="42.97244" lon="0.24889">
        <ele>1108</ele>
        <time>2018-12-04T14:50:19Z</time>
      </trkpt>
      <trkpt lat="42.97247" lon="0.24881">
        <ele>1108</ele>
        <time>2018-12-04T14:50:23Z</time>
      </trkpt>
      <trkpt lat="42.97243" lon="0.24875">
        <ele>1107</ele>
        <time>2018-12-04T14:50:36Z</time>
      </trkpt>
      <trkpt lat="42.97244" lon="0.24867">
        <ele>1106</ele>
        <time>2018-12-04T14:50:41Z</time>
      </trkpt>
      <trkpt lat="42.97244" lon="0.24859">
        <ele>1106</ele>
        <time>2018-12-04T14:50:48Z</time>
      </trkpt>
      <trkpt lat="42.97247" lon="0.24844">
        <ele>1105</ele>
        <time>2018-12-04T14:50:59Z</time>
      </trkpt>
      <trkpt lat="42.97249" lon="0.24832">
        <ele>1105</ele>
        <time>2018-12-04T14:51:08Z</time>
      </trkpt>
      <trkpt lat="42.97253" lon="0.24825">
        <ele>1104</ele>
        <time>2018-12-04T14:51:14Z</time>
      </trkpt>
      <trkpt lat="42.97257" lon="0.24817">
        <ele>1103</ele>
        <time>2018-12-04T14:51:22Z</time>
      </trkpt>
      <trkpt lat="42.97264" lon="0.24799">
        <ele>1101</ele>
        <time>2018-12-04T14:51:40Z</time>
      </trkpt>
      <trkpt lat="42.97267" lon="0.24791">
        <ele>1100</ele>
        <time>2018-12-04T14:51:51Z</time>
      </trkpt>
      <trkpt lat="42.97267" lon="0.24784">
        <ele>1099</ele>
        <time>2018-12-04T14:51:55Z</time>
      </trkpt>
      <trkpt lat="42.97268" lon="0.24775">
        <ele>1098</ele>
        <time>2018-12-04T14:52:01Z</time>
      </trkpt>
      <trkpt lat="42.97271" lon="0.24765">
        <ele>1096</ele>
        <time>2018-12-04T14:52:17Z</time>
      </trkpt>
      <trkpt lat="42.97277" lon="0.24738">
        <ele>1093</ele>
        <time>2018-12-04T14:52:45Z</time>
      </trkpt>
      <trkpt lat="42.97282" lon="0.24733">
        <ele>1091</ele>
        <time>2018-12-04T14:52:56Z</time>
      </trkpt>
      <trkpt lat="42.97284" lon="0.24725">
        <ele>1088</ele>
        <time>2018-12-04T14:53:10Z</time>
      </trkpt>
      <trkpt lat="42.97287" lon="0.24719">
        <ele>1087</ele>
        <time>2018-12-04T14:53:15Z</time>
      </trkpt>
      <trkpt lat="42.97289" lon="0.2471">
        <ele>1085</ele>
        <time>2018-12-04T14:53:26Z</time>
      </trkpt>
      <trkpt lat="42.97291" lon="0.24703">
        <ele>1084</ele>
        <time>2018-12-04T14:53:37Z</time>
      </trkpt>
      <trkpt lat="42.97292" lon="0.24692">
        <ele>1081</ele>
        <time>2018-12-04T14:53:51Z</time>
      </trkpt>
      <trkpt lat="42.97296" lon="0.24659">
        <ele>1077</ele>
        <time>2018-12-04T14:54:27Z</time>
      </trkpt>
      <trkpt lat="42.97303" lon="0.24641">
        <ele>1075</ele>
        <time>2018-12-04T14:54:40Z</time>
      </trkpt>
      <trkpt lat="42.97315" lon="0.24624">
        <ele>1069</ele>
        <time>2018-12-04T14:55:11Z</time>
      </trkpt>
      <trkpt lat="42.97317" lon="0.24616">
        <ele>1068</ele>
        <time>2018-12-04T14:55:17Z</time>
      </trkpt>
      <trkpt lat="42.97323" lon="0.24602">
        <ele>1065</ele>
        <time>2018-12-04T14:55:32Z</time>
      </trkpt>
      <trkpt lat="42.97325" lon="0.24594">
        <ele>1062</ele>
        <time>2018-12-04T14:55:43Z</time>
      </trkpt>
      <trkpt lat="42.97325" lon="0.24585">
        <ele>1061</ele>
        <time>2018-12-04T14:55:49Z</time>
      </trkpt>
      <trkpt lat="42.97322" lon="0.24577">
        <ele>1058</ele>
        <time>2018-12-04T14:55:56Z</time>
      </trkpt>
      <trkpt lat="42.97324" lon="0.2457">
        <ele>1056</ele>
        <time>2018-12-04T14:56:05Z</time>
      </trkpt>
      <trkpt lat="42.9733" lon="0.24547">
        <ele>1046</ele>
        <time>2018-12-04T14:56:33Z</time>
      </trkpt>
      <trkpt lat="42.97335" lon="0.2454">
        <ele>1043</ele>
        <time>2018-12-04T14:56:41Z</time>
      </trkpt>
      <trkpt lat="42.97337" lon="0.24533">
        <ele>1041</ele>
        <time>2018-12-04T14:56:51Z</time>
      </trkpt>
      <trkpt lat="42.97336" lon="0.24515">
        <ele>1038</ele>
        <time>2018-12-04T14:57:04Z</time>
      </trkpt>
      <trkpt lat="42.97332" lon="0.24508">
        <ele>1036</ele>
        <time>2018-12-04T14:57:08Z</time>
      </trkpt>
      <trkpt lat="42.97329" lon="0.24502">
        <ele>1035</ele>
        <time>2018-12-04T14:57:15Z</time>
      </trkpt>
      <trkpt lat="42.97331" lon="0.24485">
        <ele>1031</ele>
        <time>2018-12-04T14:57:30Z</time>
      </trkpt>
      <trkpt lat="42.97334" lon="0.24476">
        <ele>1029</ele>
        <time>2018-12-04T14:57:36Z</time>
      </trkpt>
      <trkpt lat="42.97341" lon="0.24473">
        <ele>1027</ele>
        <time>2018-12-04T14:57:45Z</time>
      </trkpt>
      <trkpt lat="42.97347" lon="0.24471">
        <ele>1025</ele>
        <time>2018-12-04T14:57:58Z</time>
      </trkpt>
      <trkpt lat="42.97354" lon="0.24461">
        <ele>1022</ele>
        <time>2018-12-04T14:58:11Z</time>
      </trkpt>
      <trkpt lat="42.97356" lon="0.24453">
        <ele>1019</ele>
        <time>2018-12-04T14:58:20Z</time>
      </trkpt>
      <trkpt lat="42.97366" lon="0.24434">
        <ele>1016</ele>
        <time>2018-12-04T14:58:41Z</time>
      </trkpt>
      <trkpt lat="42.97369" lon="0.24425">
        <ele>1014</ele>
        <time>2018-12-04T14:58:47Z</time>
      </trkpt>
      <trkpt lat="42.97374" lon="0.24421">
        <ele>1013</ele>
        <time>2018-12-04T14:58:53Z</time>
      </trkpt>
      <trkpt lat="42.97379" lon="0.24427">
        <ele>1011</ele>
        <time>2018-12-04T14:58:59Z</time>
      </trkpt>
      <trkpt lat="42.97385" lon="0.24428">
        <ele>1010</ele>
        <time>2018-12-04T14:59:03Z</time>
      </trkpt>
      <trkpt lat="42.9739" lon="0.24426">
        <ele>1008</ele>
        <time>2018-12-04T14:59:10Z</time>
      </trkpt>
      <trkpt lat="42.97397" lon="0.24423">
        <ele>1006</ele>
        <time>2018-12-04T14:59:20Z</time>
      </trkpt>
      <trkpt lat="42.97416" lon="0.24428">
        <ele>1001</ele>
        <time>2018-12-04T14:59:38Z</time>
      </trkpt>
      <trkpt lat="42.97424" lon="0.2443">
        <ele>999</ele>
        <time>2018-12-04T14:59:46Z</time>
      </trkpt>
      <trkpt lat="42.97431" lon="0.24433">
        <ele>998</ele>
        <time>2018-12-04T14:59:55Z</time>
      </trkpt>
      <trkpt lat="42.97438" lon="0.24431">
        <ele>994</ele>
        <time>2018-12-04T15:00:18Z</time>
      </trkpt>
      <trkpt lat="42.97444" lon="0.2443">
        <ele>992</ele>
        <time>2018-12-04T15:00:38Z</time>
      </trkpt>
      <trkpt lat="42.97447" lon="0.24435">
        <ele>986</ele>
        <time>2018-12-04T15:01:27Z</time>
      </trkpt>
      <trkpt lat="42.97449" lon="0.24439">
        <ele>984</ele>
        <time>2018-12-04T15:01:31Z</time>
      </trkpt>
      <trkpt lat="42.97453" lon="0.24445">
        <ele>983</ele>
        <time>2018-12-04T15:01:42Z</time>
      </trkpt>
      <trkpt lat="42.97456" lon="0.24452">
        <ele>981</ele>
        <time>2018-12-04T15:01:53Z</time>
      </trkpt>
      <trkpt lat="42.97461" lon="0.24453">
        <ele>979</ele>
        <time>2018-12-04T15:02:22Z</time>
      </trkpt>
      <trkpt lat="42.97466" lon="0.24458">
        <ele>976</ele>
        <time>2018-12-04T15:02:30Z</time>
      </trkpt>
      <trkpt lat="42.97472" lon="0.24458">
        <ele>975</ele>
        <time>2018-12-04T15:02:38Z</time>
      </trkpt>
      <trkpt lat="42.97478" lon="0.24453">
        <ele>973</ele>
        <time>2018-12-04T15:02:42Z</time>
      </trkpt>
      <trkpt lat="42.9748" lon="0.24446">
        <ele>973</ele>
        <time>2018-12-04T15:02:45Z</time>
      </trkpt>
      <trkpt lat="42.9748" lon="0.24438">
        <ele>972</ele>
        <time>2018-12-04T15:02:48Z</time>
      </trkpt>
      <trkpt lat="42.97477" lon="0.24431">
        <ele>971</ele>
        <time>2018-12-04T15:02:52Z</time>
      </trkpt>
      <trkpt lat="42.97479" lon="0.24416">
        <ele>970</ele>
        <time>2018-12-04T15:03:00Z</time>
      </trkpt>
      <trkpt lat="42.97484" lon="0.24411">
        <ele>969</ele>
        <time>2018-12-04T15:03:05Z</time>
      </trkpt>
      <trkpt lat="42.97488" lon="0.24405">
        <ele>968</ele>
        <time>2018-12-04T15:03:09Z</time>
      </trkpt>
      <trkpt lat="42.97492" lon="0.244">
        <ele>967</ele>
        <time>2018-12-04T15:03:12Z</time>
      </trkpt>
      <trkpt lat="42.97498" lon="0.24387">
        <ele>966</ele>
        <time>2018-12-04T15:03:19Z</time>
      </trkpt>
      <trkpt lat="42.97499" lon="0.24369">
        <ele>963</ele>
        <time>2018-12-04T15:03:35Z</time>
      </trkpt>
      <trkpt lat="42.97504" lon="0.24369">
        <ele>962</ele>
        <time>2018-12-04T15:03:43Z</time>
      </trkpt>
      <trkpt lat="42.97515" lon="0.24362">
        <ele>959</ele>
        <time>2018-12-04T15:03:54Z</time>
      </trkpt>
      <trkpt lat="42.97522" lon="0.24359">
        <ele>956</ele>
        <time>2018-12-04T15:03:59Z</time>
      </trkpt>
      <trkpt lat="42.97518" lon="0.24363">
        <ele>947</ele>
        <time>2018-12-04T15:04:32Z</time>
      </trkpt>
      <trkpt lat="42.97516" lon="0.24357">
        <ele>939</ele>
        <time>2018-12-04T15:04:55Z</time>
      </trkpt>
      <trkpt lat="42.97517" lon="0.24349">
        <ele>937</ele>
        <time>2018-12-04T15:05:06Z</time>
      </trkpt>
      <trkpt lat="42.97535" lon="0.24357">
        <ele>919</ele>
        <time>2018-12-04T15:05:38Z</time>
      </trkpt>
      <trkpt lat="42.97539" lon="0.24363">
        <ele>918</ele>
        <time>2018-12-04T15:06:02Z</time>
      </trkpt>
      <trkpt lat="42.97551" lon="0.24357">
        <ele>916</ele>
        <time>2018-12-04T15:06:23Z</time>
      </trkpt>
      <trkpt lat="42.97576" lon="0.24364">
        <ele>915</ele>
        <time>2018-12-04T15:06:40Z</time>
      </trkpt>
      <trkpt lat="42.97608" lon="0.24373">
        <ele>914</ele>
        <time>2018-12-04T15:07:09Z</time>
      </trkpt>
      <trkpt lat="42.97616" lon="0.2437">
        <ele>914</ele>
        <time>2018-12-04T15:07:17Z</time>
      </trkpt>
      <trkpt lat="42.97638" lon="0.2437">
        <ele>914</ele>
        <time>2018-12-04T15:07:32Z</time>
      </trkpt>
      <trkpt lat="42.97645" lon="0.24369">
        <ele>914</ele>
        <time>2018-12-04T15:07:37Z</time>
      </trkpt>
      <trkpt lat="42.97671" lon="0.24351">
        <ele>914</ele>
        <time>2018-12-04T15:08:01Z</time>
      </trkpt>
      <trkpt lat="42.97677" lon="0.24343">
        <ele>914</ele>
        <time>2018-12-04T15:08:07Z</time>
      </trkpt>
      <trkpt lat="42.97682" lon="0.24337">
        <ele>914</ele>
        <time>2018-12-04T15:08:13Z</time>
      </trkpt>
      <trkpt lat="42.97687" lon="0.24332">
        <ele>913</ele>
        <time>2018-12-04T15:08:21Z</time>
      </trkpt>
      <trkpt lat="42.97692" lon="0.24326">
        <ele>913</ele>
        <time>2018-12-04T15:08:31Z</time>
      </trkpt>
      <trkpt lat="42.97696" lon="0.24322">
        <ele>913</ele>
        <time>2018-12-04T15:08:36Z</time>
      </trkpt>
      <trkpt lat="42.97702" lon="0.24307">
        <ele>912</ele>
        <time>2018-12-04T15:08:48Z</time>
      </trkpt>
      <trkpt lat="42.97707" lon="0.24301">
        <ele>912</ele>
        <time>2018-12-04T15:08:53Z</time>
      </trkpt>
      <trkpt lat="42.9771" lon="0.24295">
        <ele>912</ele>
        <time>2018-12-04T15:08:57Z</time>
      </trkpt>
      <trkpt lat="42.97725" lon="0.24282">
        <ele>912</ele>
        <time>2018-12-04T15:09:11Z</time>
      </trkpt>
      <trkpt lat="42.9773" lon="0.24274">
        <ele>912</ele>
        <time>2018-12-04T15:09:15Z</time>
      </trkpt>
      <trkpt lat="42.97733" lon="0.24267">
        <ele>912</ele>
        <time>2018-12-04T15:09:24Z</time>
      </trkpt>
      <trkpt lat="42.97732" lon="0.2424">
        <ele>913</ele>
        <time>2018-12-04T15:09:39Z</time>
      </trkpt>
      <trkpt lat="42.97734" lon="0.24232">
        <ele>913</ele>
        <time>2018-12-04T15:09:42Z</time>
      </trkpt>
      <trkpt lat="42.97737" lon="0.24225">
        <ele>913</ele>
        <time>2018-12-04T15:09:47Z</time>
      </trkpt>
      <trkpt lat="42.97742" lon="0.24228">
        <ele>913</ele>
        <time>2018-12-04T15:09:57Z</time>
      </trkpt>
      <trkpt lat="42.97746" lon="0.24222">
        <ele>912</ele>
        <time>2018-12-04T15:10:10Z</time>
      </trkpt>
      <trkpt lat="42.97753" lon="0.24219">
        <ele>912</ele>
        <time>2018-12-04T15:10:19Z</time>
      </trkpt>
      <trkpt lat="42.97757" lon="0.2421">
        <ele>912</ele>
        <time>2018-12-04T15:10:23Z</time>
      </trkpt>
      <trkpt lat="42.97758" lon="0.242">
        <ele>912</ele>
        <time>2018-12-04T15:10:29Z</time>
      </trkpt>
      <trkpt lat="42.9776" lon="0.24184">
        <ele>912</ele>
        <time>2018-12-04T15:10:47Z</time>
      </trkpt>
      <trkpt lat="42.9776" lon="0.24177">
        <ele>912</ele>
        <time>2018-12-04T15:10:53Z</time>
      </trkpt>
      <trkpt lat="42.9776" lon="0.24168">
        <ele>912</ele>
        <time>2018-12-04T15:10:59Z</time>
      </trkpt>
      <trkpt lat="42.97763" lon="0.24153">
        <ele>912</ele>
        <time>2018-12-04T15:11:12Z</time>
      </trkpt>
      <trkpt lat="42.97765" lon="0.24136">
        <ele>912</ele>
        <time>2018-12-04T15:11:24Z</time>
      </trkpt>
      <trkpt lat="42.97766" lon="0.24129">
        <ele>912</ele>
        <time>2018-12-04T15:11:28Z</time>
      </trkpt>
      <trkpt lat="42.97767" lon="0.24122">
        <ele>912</ele>
        <time>2018-12-04T15:11:32Z</time>
      </trkpt>
      <trkpt lat="42.97773" lon="0.24112">
        <ele>912</ele>
        <time>2018-12-04T15:11:41Z</time>
      </trkpt>
      <trkpt lat="42.9778" lon="0.24107">
        <ele>912</ele>
        <time>2018-12-04T15:11:50Z</time>
      </trkpt>
      <trkpt lat="42.97787" lon="0.24105">
        <ele>912</ele>
        <time>2018-12-04T15:11:54Z</time>
      </trkpt>
      <trkpt lat="42.97795" lon="0.24101">
        <ele>912</ele>
        <time>2018-12-04T15:12:03Z</time>
      </trkpt>
      <trkpt lat="42.97801" lon="0.24103">
        <ele>912</ele>
        <time>2018-12-04T15:12:37Z</time>
      </trkpt>
      <trkpt lat="42.97804" lon="0.2411">
        <ele>911</ele>
        <time>2018-12-04T15:13:22Z</time>
      </trkpt>
      <trkpt lat="42.97809" lon="0.24113">
        <ele>911</ele>
        <time>2018-12-04T15:13:48Z</time>
      </trkpt>
      <trkpt lat="42.9781" lon="0.24121">
        <ele>911</ele>
        <time>2018-12-04T15:13:58Z</time>
      </trkpt>
      <trkpt lat="42.97816" lon="0.24124">
        <ele>910</ele>
        <time>2018-12-04T15:14:15Z</time>
      </trkpt>
      <trkpt lat="42.97815" lon="0.24132">
        <ele>907</ele>
        <time>2018-12-04T15:14:35Z</time>
      </trkpt>
      <trkpt lat="42.97829" lon="0.24126">
        <ele>906</ele>
        <time>2018-12-04T15:14:43Z</time>
      </trkpt>
      <trkpt lat="42.97821" lon="0.24126">
        <ele>905</ele>
        <time>2018-12-04T15:15:06Z</time>
      </trkpt>
      <trkpt lat="42.9782" lon="0.24136">
        <ele>905</ele>
        <time>2018-12-04T15:15:18Z</time>
      </trkpt>
      <trkpt lat="42.97827" lon="0.24136">
        <ele>905</ele>
        <time>2018-12-04T15:15:22Z</time>
      </trkpt>
      <trkpt lat="42.97827" lon="0.24125">
        <ele>905</ele>
        <time>2018-12-04T15:15:31Z</time>
      </trkpt>
      <trkpt lat="42.97833" lon="0.24118">
        <ele>905</ele>
        <time>2018-12-04T15:15:35Z</time>
      </trkpt>
      <trkpt lat="42.97839" lon="0.24114">
        <ele>904</ele>
        <time>2018-12-04T15:15:38Z</time>
      </trkpt>
      <trkpt lat="42.97837" lon="0.24107">
        <ele>904</ele>
        <time>2018-12-04T15:15:48Z</time>
      </trkpt>
      <trkpt lat="42.97843" lon="0.24097">
        <ele>903</ele>
        <time>2018-12-04T15:16:04Z</time>
      </trkpt>
      <trkpt lat="42.9785" lon="0.24096">
        <ele>903</ele>
        <time>2018-12-04T15:16:09Z</time>
      </trkpt>
      <trkpt lat="42.9785" lon="0.24086">
        <ele>903</ele>
        <time>2018-12-04T15:16:22Z</time>
      </trkpt>
      <trkpt lat="42.97847" lon="0.24078">
        <ele>903</ele>
        <time>2018-12-04T15:16:29Z</time>
      </trkpt>
      <trkpt lat="42.97849" lon="0.2407">
        <ele>903</ele>
        <time>2018-12-04T15:16:40Z</time>
      </trkpt>
      <trkpt lat="42.9785" lon="0.24065">
        <ele>903</ele>
        <time>2018-12-04T15:16:45Z</time>
      </trkpt>
      <trkpt lat="42.97851" lon="0.24059">
        <ele>903</ele>
        <time>2018-12-04T15:16:50Z</time>
      </trkpt>
      <trkpt lat="42.97853" lon="0.24054">
        <ele>903</ele>
        <time>2018-12-04T15:16:56Z</time>
      </trkpt>
      <trkpt lat="42.97856" lon="0.24051">
        <ele>903</ele>
        <time>2018-12-04T15:17:00Z</time>
      </trkpt>
      <trkpt lat="42.97866" lon="0.24047">
        <ele>903</ele>
        <time>2018-12-04T15:17:10Z</time>
      </trkpt>
      <trkpt lat="42.97871" lon="0.24047">
        <ele>904</ele>
        <time>2018-12-04T15:17:18Z</time>
      </trkpt>
      <trkpt lat="42.97878" lon="0.24048">
        <ele>904</ele>
        <time>2018-12-04T15:17:41Z</time>
      </trkpt>
      <trkpt lat="42.97885" lon="0.24041">
        <ele>904</ele>
        <time>2018-12-04T15:17:49Z</time>
      </trkpt>
      <trkpt lat="42.97894" lon="0.24028">
        <ele>904</ele>
        <time>2018-12-04T15:18:07Z</time>
      </trkpt>
      <trkpt lat="42.97899" lon="0.24025">
        <ele>904</ele>
        <time>2018-12-04T15:18:15Z</time>
      </trkpt>
      <trkpt lat="42.97906" lon="0.24021">
        <ele>904</ele>
        <time>2018-12-04T15:18:19Z</time>
      </trkpt>
    </trkseg>
  </trk>
</gpx>